[[{"header":{"parameterUnit":"m.s-1","parameterCategory":1,"la1":30.6,"la2":28.766,"lo1":-90.7593,"lo2":-88.6598,"dy":0.0162,"dx":0.0183,"nx":116,"ny":114,"refTime":"2023-09-15T00:00:00:Z","depth":0,"parameterNumber":2,"parameterNumberName":"U-component_of_WINDS"},"data":[0.0,0.0,0.0,0.0,0.0,0.0,0.0,0.0,0.0,0.0,0.0,0.0,0.0,0.0,0.0,0.0,0.0,0.0,0.0,0.0,0.0,0.0,0.0,0.0,0.0,0.0,0.0,0.0,0.0,0.0,0.0,0.0,0.0,0.0,0.0,0.0,0.0,0.0,0.0,0.0,0.0,0.0,0.0,0.0,0.0,0.0,0.0,0.0,0.0,0.0,0.0,0.0,0.0,0.0,0.0,0.0,0.0,0.0,0.0,0.0,0.0,0.0,0.0,0.0,0.0,0.0,0.0,0.0,0.0,0.0,0.0,0.0,0.0,0.0,0.0,0.0,0.0,0.0,0.0,0.0,0.0,0.0,0.0,0.0,0.0,0.0,0.0,0.0,0.0,0.0,0.0,0.0,0.0,0.0,0.0,0.0,0.0,0.0,0.0,0.0,0.0,0.0,0.0,0.0,0.0,0.0,0.0,0.0,0.0,0.0,0.0,0.0,0.0,0.0,0.0,0.0,0.0,0.0,0.0,0.0,0.0,0.0,0.0,0.0,0.0,0.0,0.0,0.0,0.0,0.0,0.0,0.0,0.0,0.0,0.0,0.0,0.0,0.0,0.0,0.0,0.0,0.0,0.0,0.0,0.0,0.0,0.0,0.0,0.0,0.0,0.0,0.0,0.0,0.0,0.0,0.0,0.0,0.0,0.0,0.0,0.0,0.0,0.0,0.0,0.0,0.0,0.0,0.0,0.0,0.0,0.0,0.0,0.0,0.0,0.0,0.0,0.0,0.0,0.0,0.0,0.0,0.0,0.0,0.0,0.0,0.0,0.0,0.0,0.0,0.0,0.0,0.0,0.0,0.0,0.0,0.0,0.0,0.0,0.0,0.0,0.0,0.0,0.0,0.0,0.0,0.0,0.0,0.0,0.0,0.0,0.0,0.0,0.0,0.0,0.0,0.0,0.0,0.0,0.0,0.0,0.0,0.0,0.0,0.0,0.0,0.0,0.0,0.0,0.0,0.0,0.0,0.0,0.0,0.0,0.0,0.0,0.0,0.0,0.0,0.0,0.0,0.0,0.0,0.0,0.0,0.0,0.0,0.0,0.0,0.0,0.0,0.0,0.0,0.0,0.0,0.0,0.0,0.0,0.0,0.0,0.0,0.0,0.0,0.0,0.0,0.0,0.0,0.0,0.0,0.0,0.0,0.0,0.0,0.0,0.0,0.0,0.0,0.0,0.0,0.0,0.0,0.0,0.0,0.0,0.0,0.0,0.0,0.0,0.0,0.0,0.0,0.0,0.0,0.0,0.0,0.0,0.0,0.0,0.0,0.0,0.0,0.0,0.0,0.0,0.0,0.0,0.0,0.0,0.0,0.0,0.0,0.0,0.0,0.0,0.0,0.0,0.0,0.0,0.0,0.0,0.0,0.0,0.0,0.0,0.0,0.0,0.0,0.0,0.0,0.0,0.0,0.0,0.0,0.0,0.0,0.0,0.0,0.0,0.0,0.0,0.0,0.0,0.0,0.0,0.0,0.0,0.0,0.0,0.0,0.0,0.0,0.0,0.0,0.0,0.0,0.0,0.0,0.0,0.0,0.0,0.0,0.0,0.0,0.0,0.0,0.0,0.0,0.0,0.0,0.0,0.0,0.0,0.0,0.0,0.0,0.0,0.0,0.0,0.0,0.0,0.0,0.0,0.0,0.0,0.0,0.0,0.0,0.0,0.0,0.0,0.0,0.0,0.0,0.0,0.0,0.0,0.0,0.0,0.0,0.0,0.0,0.0,0.0,0.0,0.0,0.0,0.0,0.0,0.0,0.0,0.0,0.0,0.0,0.0,0.0,0.0,0.0,0.0,0.0,0.0,0.0,0.0,0.0,0.0,0.0,0.0,0.0,0.0,0.0,0.0,0.0,0.0,0.0,0.0,0.0,0.0,0.0,0.0,0.0,0.0,0.0,0.0,0.0,0.0,0.0,0.0,0.0,0.0,0.0,0.0,0.0,0.0,0.0,0.0,0.0,0.0,0.0,0.0,0.0,0.0,0.0,0.0,0.0,0.0,0.0,0.0,0.0,0.0,0.0,0.0,0.0,0.0,0.0,0.0,0.0,0.0,0.0,0.0,0.0,0.0,0.0,0.0,0.0,0.0,0.0,0.0,0.0,0.0,0.0,0.0,0.0,0.0,0.0,0.0,0.0,0.0,0.0,0.0,0.0,0.0,0.0,0.0,0.0,0.0,0.0,0.0,0.0,0.0,0.0,0.0,0.0,0.0,0.0,0.0,0.0,0.0,0.0,0.0,0.0,0.0,0.0,0.0,0.0,0.0,0.0,0.0,0.0,0.0,0.0,0.0,0.0,0.0,0.0,0.0,0.0,0.0,0.0,0.0,0.0,0.0,0.0,0.0,0.0,0.0,0.0,0.0,0.0,0.0,0.0,0.0,0.0,0.0,0.0,0.0,0.0,0.0,0.0,0.0,0.0,0.0,0.0,0.0,0.0,0.0,0.0,0.0,0.0,0.0,0.0,0.0,0.0,0.0,0.0,0.0,0.0,0.0,0.0,0.0,0.0,0.0,0.0,0.0,0.0,0.0,0.0,0.0,0.0,0.0,0.0,0.0,0.0,0.0,0.0,0.0,0.0,0.0,0.0,0.0,0.0,0.0,0.0,0.0,0.0,0.0,0.0,0.0,0.0,0.0,0.0,0.0,0.0,0.0,0.0,0.0,0.0,0.0,0.0,0.0,0.0,0.0,0.0,0.0,0.0,0.0,0.0,0.0,0.0,0.0,0.0,0.0,0.0,0.0,0.0,0.0,0.0,0.0,0.0,0.0,0.0,0.0,0.0,0.0,0.0,0.0,0.0,0.0,0.0,0.0,0.0,0.0,0.0,0.0,0.0,0.0,0.0,0.0,0.0,0.0,0.0,0.0,0.0,0.0,0.0,0.0,0.0,0.0,0.0,0.0,0.0,0.0,0.0,0.0,0.0,0.0,0.0,0.0,0.0,0.0,0.0,0.0,0.0,0.0,0.0,0.0,0.0,0.0,0.0,0.0,0.0,0.0,0.0,0.0,0.0,0.0,0.0,0.0,0.0,0.0,0.0,0.0,0.0,0.0,0.0,0.0,0.0,0.0,0.0,0.0,0.0,0.0,0.0,0.0,0.0,0.0,0.0,0.0,0.0,0.0,0.0,0.0,0.0,0.0,0.0,0.0,0.0,0.0,0.0,0.0,0.0,0.0,0.0,0.0,0.0,0.0,0.0,0.0,0.0,0.0,0.0,0.0,0.0,0.0,0.0,0.0,0.0,0.0,0.0,0.0,0.0,0.0,0.0,0.0,0.0,0.0,0.0,0.0,0.0,0.0,0.0,0.0,0.0,0.0,0.0,0.0,0.0,0.0,0.0,0.0,0.0,0.0,0.0,0.0,0.0,0.0,0.0,0.0,0.0,0.0,0.0,0.0,0.0,0.0,0.0,0.0,0.0,0.0,0.0,0.0,0.0,0.0,0.0,0.0,0.0,0.0,0.0,0.0,0.0,0.0,0.0,0.0,0.0,0.0,0.0,0.0,0.0,0.0,0.0,0.0,0.0,0.0,0.0,0.0,0.0,0.0,0.0,0.0,0.0,0.0,0.0,0.0,0.0,0.0,0.0,0.0,0.0,0.0,0.0,0.0,0.0,0.0,0.0,0.0,0.0,0.0,0.0,0.0,0.0,0.0,0.0,0.0,0.0,0.0,0.0,0.0,0.0,0.0,0.0,0.0,0.0,0.0,0.0,0.0,0.0,0.0,0.0,0.0,0.0,0.0,0.0,0.0,0.0,0.0,0.0,0.0,0.0,0.0,0.0,0.0,0.0,0.0,0.0,0.0,0.0,0.0,0.0,0.0,0.0,0.0,0.0,0.0,0.0,0.0,0.0,0.0,0.0,0.0,0.0,0.0,0.0,0.0,0.0,0.0,0.0,0.0,0.0,0.0,0.0,0.0,0.0,0.0,0.0,0.0,0.0,0.0,0.0,0.0,0.0,0.0,0.0,0.0,0.0,0.0,0.0,0.0,0.0,0.0,0.0,0.0,0.0,0.0,0.0,0.0,0.0,0.0,0.0,0.0,0.0,0.0,0.0,0.0,0.0,0.0,0.0,0.0,0.0,0.0,0.0,0.0,0.0,0.0,0.0,0.0,0.0,0.0,0.0,0.0,0.0,0.0,0.0,0.0,0.0,0.0,0.0,0.0,0.0,0.0,0.0,0.0,0.0,0.0,0.0,0.0,0.0,0.0,0.0,0.0,0.0,0.0,0.0,0.0,0.0,0.0,0.0,0.0,0.0,0.0,0.0,0.0,0.0,0.0,0.0,0.0,0.0,0.0,0.0,0.0,0.0,0.0,0.0,0.0,0.0,0.0,0.0,0.0,0.0,0.0,0.0,0.0,0.0,0.0,0.0,0.0,0.0,0.0,0.0,0.0,0.0,0.0,0.0,0.0,0.0,0.0,0.0,0.0,0.0,0.0,0.0,0.0,0.0,0.0,0.0,0.0,0.0,0.0,0.0,0.0,0.0,0.0,0.0,0.0,0.0,0.0,0.0,0.0,0.0,0.0,0.0,0.0,0.0,0.0,0.0,0.0,0.0,0.0,0.0,0.0,0.0,0.0,0.0,0.0,0.0,0.0,0.0,0.0,0.0,0.0,0.0,0.0,0.0,0.0,0.0,0.0,0.0,0.0,0.0,0.0,0.0,0.0,0.0,0.0,0.0,0.0,0.0,0.0,0.0,0.0,0.0,0.0,0.0,0.0,0.0,0.0,0.0,0.0,0.0,0.0,0.0,0.0,0.0,0.0,0.0,0.0,0.0,0.0,0.0,0.0,0.0,0.0,0.0,0.0,0.0,0.0,0.0,0.0,0.0,0.0,0.0,0.0,0.0,0.0,0.0,0.0,0.0,0.0,0.0,0.0,0.0,0.0,0.0,0.0,0.0,0.0,0.0,0.0,0.0,0.0,0.0,0.0,0.0,0.0,0.0,0.0,0.0,0.0,0.0,0.0,0.0,0.0,0.0,0.0,0.0,0.0,0.0,0.0,0.0,0.0,0.0,0.0,0.0,0.0,0.0,0.0,0.0,0.0,0.0,0.0,0.0,0.0,0.0,0.0,0.0,0.0,0.0,0.0,0.0,0.0,0.0,0.0,0.0,0.0,0.0,0.0,0.0,0.0,0.0,0.0,0.0,0.0,0.0,0.0,0.0,0.0,0.0,0.0,0.0,0.0,0.0,0.0,0.0,0.0,0.0,0.0,0.0,0.0,0.0,0.0,0.0,0.0,0.0,0.0,0.0,0.0,0.0,0.0,0.0,0.0,0.0,0.0,0.0,0.0,0.0,0.0,0.0,0.0,0.0,0.0,0.0,0.0,0.0,0.0,0.0,0.0,0.0,0.0,0.0,0.0,0.0,0.0,0.0,0.0,0.0,0.0,0.0,0.0,0.0,0.0,0.0,0.0,0.0,0.0,0.0,0.0,0.0,0.0,0.0,0.0,0.0,0.0,0.0,0.0,0.0,0.0,0.0,0.0,0.0,0.0,0.0,0.0,0.0,0.0,0.0,0.0,0.0,0.0,0.0,0.0,0.0,0.0,0.0,0.0,0.0,0.0,0.0,0.0,0.0,0.0,0.0,0.0,0.0,0.0,0.0,0.0,0.0,0.0,0.0,0.0,0.0,0.0,0.0,0.0,0.0,0.0,0.0,0.0,0.0,0.0,0.0,0.0,0.0,0.0,0.0,0.0,0.0,0.0,0.0,0.0,0.0,0.0,0.0,0.0,0.0,0.0,0.0,0.0,0.0,0.0,0.0,0.0,0.0,0.0,0.0,0.0,0.0,0.0,0.0,0.0,0.0,0.0,0.0,0.0,0.0,0.0,0.0,0.0,0.0,0.0,0.0,0.0,0.0,0.0,0.0,0.0,0.0,0.0,0.0,0.0,0.0,0.0,0.0,0.0,0.0,0.0,0.0,0.0,0.0,0.0,0.0,0.0,0.0,0.0,0.0,0.0,0.0,0.0,0.0,0.0,0.0,0.0,0.0,0.0,0.0,0.0,0.0,0.0,0.0,0.0,0.0,0.0,0.0,0.0,1.7785,0.0,0.0,0.0,0.0,0.0,0.0,0.0,0.0,0.0,0.0,0.0,0.0,0.0,0.0,0.0,0.0,0.0,0.0,0.0,0.0,0.0,0.0,0.0,0.0,0.0,0.0,0.0,0.0,0.0,0.0,0.0,0.0,0.0,0.0,0.0,0.0,0.0,0.0,0.0,0.0,0.0,0.0,0.0,0.0,0.0,0.0,0.0,0.0,0.0,0.0,0.0,0.0,0.0,0.0,0.0,0.0,0.0,0.0,0.0,0.0,0.0,0.0,0.0,0.0,0.0,0.0,0.0,0.0,0.0,0.0,0.0,0.0,0.0,0.0,0.0,0.0,0.0,0.0,0.0,0.0,0.0,0.0,0.0,0.0,0.0,0.0,0.0,0.0,0.0,0.0,0.0,0.0,0.0,0.0,0.0,0.0,0.0,0.0,0.0,0.0,0.0,0.0,0.0,0.0,0.0,0.0,0.0,0.0,0.0,0.0,0.0,0.0,0.0,0.0,0.0,0.0,1.8115,0.0,0.0,0.0,0.0,0.0,0.0,0.0,0.0,0.0,0.0,0.0,0.0,0.0,0.0,0.0,0.0,0.0,0.0,0.0,0.0,0.0,0.0,0.0,0.0,0.0,0.0,0.0,0.0,0.0,0.0,0.0,0.0,0.0,0.0,0.0,0.0,0.0,0.0,0.0,0.0,0.0,0.0,0.0,0.0,0.0,0.0,0.0,0.0,0.0,0.0,0.0,0.0,0.0,0.0,0.0,0.0,0.0,0.0,0.0,0.0,0.0,0.0,0.0,0.0,0.0,0.0,0.0,0.0,0.0,0.0,0.0,0.0,0.0,0.0,0.0,0.0,0.0,0.0,0.0,0.0,0.0,0.0,0.0,0.0,0.0,0.0,0.0,0.0,0.0,0.0,0.0,0.0,0.0,0.0,0.0,0.0,0.0,0.0,0.0,0.0,0.0,0.0,0.0,0.0,0.0,0.0,0.0,0.0,2.2623,2.3227,2.3302,2.284,2.2332,2.1743,2.0863,1.9894,1.8964,1.8882,0.0,0.0,0.0,0.0,0.0,0.0,0.0,0.0,0.0,0.0,0.0,0.0,0.0,0.0,0.0,0.0,0.0,0.0,0.0,0.0,0.0,0.0,0.0,0.0,0.0,0.0,0.0,0.0,0.0,0.0,0.0,0.0,0.0,0.0,0.0,0.0,0.0,0.0,1.5065,1.631,1.6766,1.6518,1.5668,0.0,0.0,0.0,0.0,0.0,0.0,0.0,0.0,0.0,0.0,0.0,0.0,0.0,0.0,0.0,0.0,0.0,0.0,0.0,0.0,0.0,0.0,0.0,0.0,0.0,0.0,0.0,0.0,0.0,0.0,0.0,0.0,0.0,0.0,0.0,0.0,0.0,0.0,0.0,0.0,0.0,0.0,0.0,1.5477,1.577,0.0,0.0,0.0,0.0,0.0,0.0,0.0,0.0,0.0,0.0,0.0,0.0,0.0,2.0754,2.163,2.3362,2.4398,2.4694,2.5431,2.5818,2.5808,2.4759,2.4237,2.4073,2.2877,0.0,1.9552,1.8963,0.0,0.0,0.0,0.0,0.0,0.0,0.0,0.0,0.0,0.0,0.0,0.0,0.0,0.0,0.0,0.0,0.0,0.0,0.0,0.0,0.0,0.0,0.0,0.0,0.0,0.0,0.0,0.0,0.0,0.0,0.0,0.0,0.0,0.0,0.0,0.0,1.5632,1.6805,1.7282,1.8142,1.8757,1.9037,1.827,1.7251,1.612,1.5643,0.0,0.0,0.0,0.0,0.0,0.0,0.0,0.0,0.0,0.0,0.0,0.0,0.0,0.0,0.0,0.0,0.0,0.0,0.0,0.0,0.0,0.0,0.0,0.0,0.0,0.0,0.0,0.0,0.0,0.0,0.0,0.0,0.0,0.0,0.0,0.0,0.0,0.0,0.0,1.5659,1.623,1.6005,1.6973,1.7324,0.0,0.0,0.0,0.0,0.0,0.0,0.0,0.0,0.0,2.1657,2.2463,2.3082,2.3522,2.533,2.6348,2.6591,2.7531,2.8033,2.8117,2.7645,2.7215,2.6811,2.5839,2.4507,2.2877,2.1111,2.0393,2.0325,0.0,0.0,0.0,0.0,1.9735,2.0099,0.0,0.0,0.0,0.0,0.0,0.0,0.0,0.0,0.0,0.0,0.0,0.0,0.0,1.3051,0.0,1.394,0.0,0.0,0.0,0.0,0.0,0.0,0.0,0.0,0.0,0.0,0.0,1.5653,1.7741,1.9126,1.9886,2.0564,2.1104,2.1506,2.1217,1.9861,1.7752,1.7187,1.643,0.0,0.0,0.0,0.0,0.0,0.0,0.0,0.0,0.0,0.0,0.0,0.0,0.0,0.0,0.0,0.0,0.0,0.0,0.0,0.0,0.0,0.0,0.0,0.0,0.0,0.0,0.0,0.0,0.0,0.0,0.0,0.0,0.0,0.0,0.0,0.0,0.0,0.0,1.6229,1.6891,1.6175,1.7497,1.8056,0.0,0.0,0.0,0.0,0.0,0.0,2.1027,2.2163,2.3198,2.4036,2.5078,2.5762,2.6123,2.7856,2.8824,2.9139,2.9554,2.9853,2.9989,2.944,2.9028,2.8719,2.8091,2.7195,2.6086,2.3508,2.2338,2.2154,2.1721,2.1271,2.0895,2.1507,2.1812,2.2108,0.0,0.0,0.0,0.0,0.0,0.0,0.0,0.0,0.0,0.0,0.0,0.0,0.0,1.441,1.5353,1.6407,1.6099,1.5203,0.0,0.0,0.0,0.0,0.0,0.0,0.0,0.0,0.0,1.7661,2.0091,2.1581,2.2171,2.3276,2.3803,2.3853,2.4343,2.3326,2.1104,1.9007,1.8066,1.7848,0.0,0.0,0.0,0.0,0.0,0.0,0.0,0.0,0.0,0.0,0.0,0.0,0.0,0.0,0.0,0.0,0.0,0.0,0.0,0.0,0.0,0.0,0.0,0.0,0.0,0.0,0.0,0.0,0.0,0.0,0.0,0.0,0.0,0.0,0.0,0.0,0.0,0.0,0.0,1.6189,1.8741,0.0,0.0,0.0,0.0,1.954,2.082,2.2124,2.3368,2.4088,2.5061,2.6396,2.7694,2.8981,3.0193,3.1539,3.2542,3.3185,3.1772,3.1112,3.1036,2.9007,2.8521,2.9261,2.8569,2.8253,2.795,2.5475,2.4103,2.3445,2.2858,2.2589,2.2499,2.1939,2.2119,2.266,0.0,0.0,0.0,0.0,0.0,0.0,0.0,0.0,0.0,0.0,0.0,0.0,0.0,1.619,1.7539,1.7957,1.859,1.8137,1.6214,0.0,0.0,0.0,0.0,0.0,0.0,0.0,1.8037,2.0155,2.2141,2.3389,2.3941,2.4343,2.4908,2.5561,2.5046,2.4971,2.5021,2.2096,2.0024,1.8606,1.7383,1.6217,0.0,0.0,0.0,0.0,0.0,0.0,0.0,0.0,0.0,0.0,0.0,0.0,0.0,0.0,0.0,0.0,0.0,0.0,0.0,0.0,0.0,0.0,0.0,0.0,0.0,0.0,0.0,0.0,0.0,0.0,0.0,0.0,0.0,0.0,0.0,0.0,0.0,1.8571,2.0626,0.0,2.0976,2.1695,2.2203,2.2203,2.3849,2.5226,2.6108,2.7215,2.8412,2.9729,3.0238,3.0911,3.1794,3.1338,3.1375,3.1926,3.05,2.9961,3.0247,2.917,2.8588,2.8456,2.8232,2.7851,2.7376,2.6511,2.5734,2.5218,2.5663,2.5141,2.4346,2.5648,2.5952,2.5827,0.0,0.0,0.0,0.0,0.0,0.0,0.0,0.0,0.0,0.0,0.0,1.3651,1.5556,1.7748,1.9287,1.9875,2.0218,1.9359,1.6961,0.0,0.0,0.0,0.0,0.0,0.0,1.7213,1.9454,2.132,2.2826,2.3869,2.4389,2.4502,2.5168,2.626,2.5672,2.6181,2.7406,2.5008,2.2723,2.0564,1.9149,1.8041,1.7059,0.0,0.0,0.0,0.0,0.0,0.0,0.0,0.0,0.0,0.0,0.0,0.0,0.0,0.0,0.0,0.0,0.0,0.0,0.0,0.0,0.0,0.0,0.0,0.0,0.0,0.0,0.0,0.0,0.0,0.0,0.0,0.0,0.0,0.0,0.0,1.9587,2.0269,2.251,2.3819,2.337,2.4103,2.4702,2.4926,2.6587,2.7771,2.8134,2.9724,3.0656,3.0935,3.1659,3.2085,3.2169,3.1295,3.0963,3.1296,2.9693,2.9168,2.9645,2.8596,2.8096,2.7908,2.7908,2.7678,2.7284,2.753,2.7176,2.6489,2.7172,2.669,2.5892,2.7465,2.7859,2.7862,0.0,0.0,0.0,0.0,0.0,0.0,0.0,0.0,0.0,0.0,1.2458,1.4451,1.7471,1.9039,2.0539,2.2171,2.0778,1.8656,1.5944,1.4428,0.0,0.0,0.0,0.0,1.5997,1.8123,1.9847,2.1085,2.221,2.3005,2.357,2.3988,2.4814,2.5813,2.6273,2.7049,2.8036,2.7473,2.6008,2.3841,2.1066,2.0195,2.0171,0.0,0.0,0.0,0.0,0.0,0.0,0.0,0.0,0.0,0.0,0.0,0.0,0.0,0.0,0.0,0.0,0.0,0.0,0.0,0.0,0.0,0.0,0.0,0.0,0.0,0.0,0.0,0.0,0.0,0.0,0.0,0.0,0.0,1.5548,1.9684,2.2235,2.1153,2.4345,2.6135,2.4851,2.5944,2.6976,2.7619,2.8891,2.9507,2.9347,3.125,3.1533,2.9807,3.1806,3.2443,3.1544,3.1613,3.1709,3.1723,2.9672,2.8966,2.9412,2.7455,2.6969,2.7723,2.7709,2.7696,2.7762,2.8583,2.8279,2.7246,2.7122,2.7028,2.6969,2.7028,2.7589,2.844,0.0,0.0,0.0,0.0,0.0,0.0,0.0,0.0,1.1061,1.2044,1.3826,1.5841,1.8086,2.0297,2.1807,2.2272,2.0778,1.9145,1.7614,0.0,0.0,0.0,0.0,0.0,1.8223,1.9735,2.1207,2.2684,2.339,2.4033,2.4425,2.4559,2.4971,2.561,2.5394,2.6325,2.8011,2.6235,2.5831,2.6154,2.379,2.214,2.0926,0.0,0.0,0.0,0.0,0.0,0.0,0.0,0.0,0.0,0.0,0.0,0.0,0.0,0.0,0.0,0.0,0.0,0.0,0.0,0.0,0.0,0.0,0.0,0.0,0.0,0.0,0.0,0.0,0.0,0.0,0.0,0.0,1.7868,1.8026,2.0348,2.2478,2.3712,2.6221,2.7694,2.7345,2.8601,2.9273,2.8881,2.9595,2.9964,2.9694,2.9064,2.8923,2.9245,2.901,2.9212,2.9758,2.9145,2.9254,3.0027,2.842,2.7972,2.8507,2.7927,2.7788,2.7964,2.7557,2.7379,2.7449,2.7644,2.7608,2.7404,2.8163,2.7685,2.6817,2.799,2.8615,2.8872,0.0,0.0,0.0,0.0,0.0,0.0,0.0,0.0,1.1693,1.2582,1.4494,1.6426,1.8192,2.008,2.1355,2.1606,2.01,1.8367,1.6584,0.0,0.0,0.0,0.0,1.6911,1.9326,2.0465,2.145,2.2188,2.2664,2.3034,2.3298,2.3689,2.426,2.4995,2.4827,2.575,2.7325,2.6086,2.5961,2.6511,2.5193,2.4014,2.2958,2.1982,2.148,2.1211,1.9774,1.9621,1.9756,1.7747,0.0,0.0,0.0,0.0,0.0,0.0,0.0,0.0,0.0,0.0,0.0,0.0,0.0,0.0,0.0,0.0,0.0,0.0,0.0,0.0,0.0,0.0,0.0,0.0,1.8431,2.0368,2.1296,2.269,2.4013,2.5244,2.7252,2.8457,2.8203,2.9215,2.9748,2.952,2.9874,2.9847,2.928,2.8922,2.8515,2.8011,2.8147,2.8268,2.8319,2.8004,2.8195,2.8853,2.8045,2.7921,2.8448,2.821,2.7984,2.7745,2.7419,2.7155,2.6954,2.718,2.7419,0.0,0.0,0.0,0.0,0.0,2.8427,2.8525,0.0,0.0,0.0,0.0,0.0,0.0,0.0,0.0,1.2713,1.3034,1.4672,1.6415,1.8004,1.917,2.0012,2.0526,1.8945,1.6767,0.0,0.0,0.0,1.5219,1.6959,1.8509,1.9712,2.0638,2.0998,2.0644,2.1045,2.1289,2.1396,2.2158,2.3102,2.4054,2.444,2.521,2.6307,2.6141,2.5886,2.5477,2.5477,2.5485,2.5286,2.3928,2.3679,2.3854,2.2252,2.1227,2.0532,1.9903,0.0,0.0,0.0,0.0,0.0,0.0,0.0,0.0,0.0,0.0,0.0,0.0,0.0,0.0,0.0,0.0,0.0,0.0,0.0,0.0,0.0,0.0,0.0,0.0,2.0238,2.2686,2.4808,2.582,2.6264,2.6188,2.784,2.8798,2.8214,2.8766,2.9366,2.9706,2.9679,2.9321,2.8523,0.0,0.0,0.0,0.0,2.8555,2.7193,2.7795,2.8134,2.8197,2.8197,2.8448,2.8913,2.8486,2.7996,2.7469,2.7406,2.7105,2.6747,2.7168,2.7708,2.8185,2.8059,2.767,2.7258,2.7455,2.7551,2.7657,0.0,0.0,0.0,0.0,0.0,0.0,0.0,0.0,1.2796,1.3411,1.485,1.6373,1.7891,1.9077,1.9849,1.9962,1.7652,1.5311,0.0,0.0,1.3351,1.7146,1.7706,1.8818,2.0834,2.0752,2.081,2.1103,2.1191,2.1592,2.2266,2.2432,2.2771,2.3355,2.3434,2.4049,2.5041,2.4135,2.4255,2.4987,2.4987,2.4675,2.4348,2.4907,2.4885,2.4594,2.4277,2.4859,2.5388,2.2185,2.2014,2.2618,1.9594,0.0,0.0,0.0,0.0,0.0,0.0,0.0,0.0,0.0,0.0,0.0,0.0,0.0,0.0,0.0,0.0,0.0,0.0,0.0,0.0,2.1801,2.359,2.5272,2.6615,2.7321,2.7728,2.7657,2.8656,2.9276,2.9169,2.9849,3.0038,2.9558,2.9037,2.8572,2.8185,2.7212,2.6365,2.5762,2.6607,2.6924,2.6684,2.7607,2.8335,2.8775,0.0,0.0,2.8938,2.9302,2.9151,2.8586,2.8134,2.7883,2.7795,2.7896,2.8273,2.8687,2.7795,2.7105,2.6678,2.6843,2.6802,2.6841,0.0,0.0,0.0,0.0,0.0,0.0,0.0,0.0,1.1782,1.2152,1.3052,1.4166,1.5607,1.596,1.6434,1.7262,1.5311,0.0,0.0,1.34,1.4881,1.7822,1.859,1.9553,2.0868,2.0671,2.0781,2.123,2.123,2.167,2.251,2.251,2.2734,2.3135,2.3135,2.3387,2.3877,2.3299,2.3474,2.3963,2.3963,2.3811,2.3769,2.5442,2.5842,2.5597,2.5292,2.5769,2.6078,2.3587,2.3269,2.3488,2.1335,2.0054,1.9102,0.0,0.0,0.0,0.0,0.0,0.0,0.0,0.0,0.0,0.0,0.0,0.0,0.0,0.0,1.9919,0.0,0.0,2.2249,2.3703,2.5134,2.6515,2.7908,2.8599,2.8637,2.7795,2.8341,2.8563,2.7996,2.8525,2.8882,2.8769,2.844,2.8388,2.8486,2.772,2.7005,2.6452,2.6992,2.7155,2.6866,2.7959,2.8649,2.8925,2.9227,2.9365,2.9365,2.9365,2.9051,2.8486,2.7934,2.7544,2.7318,2.7871,2.8273,2.8461,2.7908,2.7356,2.6873,2.6675,2.6527,2.6552,0.0,0.0,0.0,0.0,0.0,0.0,0.0,0.0,0.0,1.0746,1.1136,1.1911,1.3279,1.2838,1.2851,0.0,0.0,0.0,0.0,1.4522,1.6118,1.8027,1.9277,2.0039,2.0312,2.0391,2.0654,2.1103,2.1191,2.167,2.251,2.251,2.2734,2.3135,2.3135,2.3135,2.3135,2.3135,2.3135,2.3135,2.3135,2.3135,2.3299,2.5147,2.5975,2.6157,2.5739,2.557,2.5335,2.4507,2.3862,2.3364,2.2811,2.2033,2.0936,1.8887,1.861,0.0,0.0,0.0,0.0,0.0,0.0,0.0,0.0,0.0,1.9963,2.0479,2.1199,2.1663,2.1655,2.2611,2.3916,2.5385,2.6452,2.757,2.8913,2.9503,2.9214,2.7632,2.8021,2.8084,2.7193,2.7507,2.7959,2.8398,2.8335,2.8461,2.89,2.8925,2.8473,2.7469,2.8084,2.8172,2.7607,2.8599,2.9089,2.9101,2.9566,2.9729,2.9616,2.9139,2.8561,2.7921,2.7469,2.7092,2.6854,2.7858,2.826,2.826,2.8147,2.777,2.7218,2.6666,2.6533,2.6533,0.0,0.0,0.0,0.0,0.0,0.0,0.0,0.0,0.0,0.0,1.087,1.1605,1.3075,1.2894,0.0,0.0,0.0,0.0,1.2446,1.4165,1.6218,1.8457,1.9434,1.9766,1.9434,1.9795,2.0205,2.0635,2.1035,2.167,2.251,2.251,2.2734,2.3135,2.3135,2.3135,2.3135,2.3135,2.3135,2.3135,2.3135,2.3135,2.3135,2.3387,2.4135,2.5062,2.5577,2.5352,2.4909,2.4886,2.4755,2.4544,2.3991,2.3728,2.3106,2.0231,0.0,1.7804,1.5419,1.4626,1.5367,1.9017,1.9435,1.9906,0.0,0.0,2.4041,2.3533,2.4792,2.5728,2.5163,2.6364,2.7682,2.836,2.9001,2.9478,2.9666,2.9754,2.9352,2.816,2.8963,2.9553,2.9428,2.9478,2.9541,2.9603,2.9126,2.8863,2.8925,2.8925,2.8649,2.8034,2.9051,2.9327,2.875,2.9377,2.9691,2.9691,2.9767,2.9528,2.9026,2.895,2.836,2.7369,2.7306,2.7532,2.7971,2.8586,2.8837,2.8787,2.8298,2.777,2.7218,2.6666,2.6533,2.6533,0.0,0.0,0.0,0.0,0.0,0.0,0.0,0.0,0.0,0.0,0.0,0.9574,1.0739,0.0,0.0,0.0,0.0,0.0,1.232,1.3741,1.5684,1.8154,1.9092,1.9473,1.9287,1.9697,2.0127,2.0566,2.0752,2.1416,2.251,2.2266,2.25,2.3135,2.3135,2.3135,2.3135,2.3135,2.3291,2.3496,2.3242,2.3291,2.3437,2.2695,2.2403,2.2442,2.2755,2.2684,0.0,0.0,2.2904,2.3376,2.3464,2.305,2.2128,1.9889,1.9235,0.0,1.8071,1.8131,0.0,0.0,2.1959,2.3398,2.5094,2.5418,2.5406,2.584,2.6773,2.7494,2.754,2.7846,2.8398,0.0,2.9076,2.9038,2.9704,2.9503,2.9001,2.8197,2.8247,2.7913,2.6723,2.8213,2.8786,2.7667,2.8387,2.9076,2.9415,2.9428,2.9327,2.9101,2.9553,2.9679,2.9428,2.9666,2.9792,2.9792,2.9792,2.949,2.8925,2.8599,2.7846,2.6804,2.6804,2.7306,2.8122,2.8348,2.8637,2.89,2.8674,2.8247,2.7657,2.6779,2.6533,2.6533,0.0,0.0,0.0,0.0,0.0,0.0,0.0,0.0,0.0,0.0,0.0,0.0,0.0,0.0,0.0,0.0,0.0,0.0,0.0,1.315,1.4893,1.7363,1.8418,1.8936,1.8936,1.9463,2.001,2.0566,2.0684,2.1357,2.251,2.2197,2.2441,2.3135,2.3135,2.3135,2.3135,2.3135,2.332,2.3584,2.3271,2.3262,2.3301,2.2012,2.0977,2.0272,2.0192,1.996,0.0,0.0,2.0427,2.128,2.1775,2.1656,2.0941,1.9284,1.8676,1.8685,1.936,0.0,0.0,2.216,2.4067,2.5788,2.6524,2.6581,2.6796,2.7842,2.8359,2.8699,2.9101,2.8837,2.8837,2.9666,2.9114,2.8863,2.9679,2.9289,2.8549,2.7532,2.7051,2.5718,2.3124,2.6291,2.8027,2.6846,2.8077,2.9176,2.9767,2.9792,2.9792,2.9792,2.9792,2.9792,2.9792,2.9792,2.9792,2.9792,2.9792,2.949,2.89,2.8197,2.7444,2.6678,2.6596,2.7005,2.7871,2.7871,2.821,2.8687,2.8536,2.8323,2.7996,2.703,2.6691,2.6666,0.0,0.0,0.0,0.0,0.0,0.0,0.0,0.0,0.0,0.0,0.0,0.0,0.0,0.0,0.0,0.0,0.0,0.0,0.0,1.2248,1.3877,1.6086,1.7363,1.8047,1.8047,1.8877,1.9727,2.0566,2.0996,2.166,2.251,2.25,2.2725,2.3135,2.3135,2.3135,2.3135,2.3135,2.3144,2.3154,2.3144,2.29,2.2412,2.1103,2.0103,1.9402,1.8944,0.0,0.0,1.7363,1.7917,1.843,1.8982,1.9861,0.0,1.8719,1.6728,1.5475,1.7518,0.0,1.8708,2.3581,2.4844,2.5597,2.8417,2.8959,2.8976,2.9566,2.9716,2.9741,2.9767,2.9754,2.9754,2.9779,2.9767,2.9754,2.9792,2.9289,2.8122,2.5925,2.5578,2.3803,0.0,2.4177,2.7758,2.8725,2.8838,2.9176,2.9767,2.9792,2.9792,2.9792,2.9792,2.9792,2.9792,2.9792,2.9792,2.9792,2.9792,2.949,2.8888,2.7808,2.7293,2.7231,2.676,2.6779,2.7306,2.7306,2.7632,2.8084,2.7544,2.7657,2.8034,2.7469,2.7256,2.718,0.0,0.0,0.0,0.0,0.0,0.0,0.0,0.0,0.0,0.0,0.0,0.0,0.0,0.0,0.0,0.0,0.0,0.0,0.0,1.0213,1.1367,1.2796,1.4399,1.5325,1.5526,1.6941,1.7837,1.8304,1.8807,1.9743,2.1221,2.0638,2.1018,2.2324,2.2598,2.2725,2.2744,2.3018,2.3301,2.3496,2.2646,2.2383,2.2178,1.9449,1.7896,1.692,0.0,0.0,0.0,1.5732,1.6114,1.6635,1.7187,1.753,1.7678,1.7075,1.7034,1.7409,1.8832,0.0,2.2829,2.482,2.6489,2.7905,2.925,2.9581,2.9553,2.9754,2.7863,2.6176,2.6082,2.4548,2.3928,2.5871,2.5523,2.6118,2.9312,2.7089,2.5469,2.6564,2.5196,0.0,0.0,0.0,0.0,2.5194,2.7815,2.9591,2.9779,2.9792,2.9792,2.9792,2.9792,2.9792,2.9792,2.9792,2.9792,2.9792,2.9402,2.8535,2.7291,2.7692,2.7445,2.6821,2.6946,2.7318,2.7795,2.7431,2.7607,2.8084,2.7896,2.816,2.8512,2.72,2.6976,2.7194,0.0,0.0,0.0,0.0,0.0,0.0,0.0,0.0,0.0,0.0,0.0,0.0,0.0,0.0,0.0,0.0,0.0,0.0,0.0,0.0,0.9141,1.0339,1.1589,1.2427,1.2876,1.4279,1.5224,1.5701,1.6453,1.7479,1.8873,1.8644,1.9307,2.078,2.1293,2.1501,2.153,2.199,2.2032,2.1768,2.0847,2.0623,2.0371,1.7365,1.6001,0.0,0.0,0.0,1.4623,1.4323,1.467,1.5234,1.5491,1.5671,1.5971,1.6745,1.7674,1.8956,2.1258,2.3628,2.5724,2.7055,2.8473,2.9628,3.0005,2.993,2.9679,2.9277,2.7176,2.5157,2.4298,2.2238,2.1379,2.3541,2.3135,2.4046,2.83,2.6432,2.5228,2.6847,2.533,2.4316,0.0,0.0,0.0,2.4026,2.676,2.8496,2.8694,2.8706,2.9046,2.9779,2.9792,2.9792,2.9792,2.9792,2.9624,2.9197,2.8827,2.7842,2.6488,2.6995,2.6764,2.5941,2.6664,2.6962,2.6954,2.7193,2.7369,2.7519,2.7519,2.7752,2.79,2.6856,2.645,2.6439,0.0,0.0,0.0,0.0,0.0,0.0,0.0,0.0,0.0,0.0,0.0,0.0,0.0,0.0,0.0,0.0,0.0,0.0,0.0,0.0,0.0,0.8736,0.9104,0.9525,1.0089,1.115,1.2085,1.2932,1.3961,1.4849,1.5653,1.6596,1.7469,1.8349,1.9199,1.9507,1.9316,2.0042,1.9516,1.8122,1.7983,1.766,1.7205,1.4986,0.0,0.0,0.0,0.0,0.0,1.3276,1.3668,1.4363,1.4166,1.4588,1.5583,1.771,1.8819,2.0313,2.4469,2.6138,2.7356,2.9993,3.0633,3.062,3.062,3.0143,2.9365,2.8185,2.7356,2.6189,0.0,0.0,2.1636,2.2767,2.2615,2.3563,2.6847,2.7197,2.6984,0.0,0.0,0.0,0.0,0.0,0.0,2.5289,0.0,2.6406,2.6911,2.6923,2.7721,2.9664,2.9624,2.9624,2.9702,2.9702,2.9094,2.7968,2.7992,2.7429,2.6345,2.5876,2.5304,2.4835,2.5958,2.5853,2.5015,2.6514,2.6897,2.649,2.6396,2.6369,2.6387,2.6335,2.5666,2.485,0.0,0.0,0.0,0.0,0.0,0.0,0.0,0.0,0.0,0.0,0.0,0.0,0.0,0.0,0.0,0.0,0.0,0.0,0.0,0.0,0.0,0.0,0.0,0.0,0.0,0.0,0.0,1.0403,1.0699,1.1523,1.2833,1.2274,1.2583,1.3636,1.4972,1.537,1.5155,1.6243,1.665,1.6537,0.0,1.6249,1.6284,0.0,0.0,0.0,0.0,0.0,0.0,0.0,0.0,0.0,1.6716,1.7683,1.8753,1.963,2.2127,2.472,2.541,2.7821,3.0306,3.1022,3.0896,3.062,3.062,2.9541,2.7984,2.6063,2.3044,1.9932,0.0,0.0,0.0,1.9754,2.0093,0.0,2.6239,2.567,0.0,2.6057,0.0,2.6081,2.6748,2.763,0.0,0.0,2.7655,2.8884,2.9021,2.8198,2.798,2.8505,2.7787,2.7718,2.8518,2.8518,2.7735,2.6222,2.6701,2.6117,2.4647,2.5771,2.5743,2.4811,2.5507,2.612,2.6598,2.5464,2.5389,2.5889,2.4693,2.4499,2.4793,2.4303,2.4041,2.3995,0.0,0.0,0.0,0.0,0.0,0.0,0.0,0.0,0.0,0.0,0.0,0.0,0.0,0.0,0.0,0.0,0.0,0.0,0.0,0.0,0.0,0.0,0.0,0.0,0.0,0.0,0.0,0.0,0.0,0.0,1.0168,0.9848,1.0349,1.1616,1.2842,1.3263,1.3086,1.4307,0.0,0.0,0.0,0.0,0.0,0.0,0.0,0.0,0.0,0.0,0.0,0.0,0.0,1.7578,1.9269,2.0489,2.1562,2.3018,0.0,2.7369,2.826,3.0093,3.1813,3.2064,3.1537,3.057,2.9126,2.7695,2.5762,2.2573,1.9818,0.0,1.4517,1.3125,0.0,0.0,0.0,0.0,2.4695,2.4838,2.4966,0.0,2.6332,0.0,2.8687,2.9126,2.8811,0.0,2.8147,2.8252,2.7777,2.7195,2.6988,2.736,2.6801,2.6801,2.736,2.7371,2.6642,2.5218,2.5583,2.5009,2.3618,2.4608,2.4556,2.3752,0.0,2.5292,2.5413,2.4777,2.4759,2.502,2.3926,2.3519,2.3525,2.3171,2.306,2.3165,0.0,0.0,0.0,0.0,0.0,0.0,0.0,0.0,0.0,0.0,0.0,0.0,0.0,0.0,0.0,0.0,0.0,0.0,0.0,0.0,0.0,0.0,0.0,0.0,0.0,0.0,0.0,0.0,0.0,0.0,0.0,0.0,0.0,0.0,0.0,0.0,0.0,0.0,0.0,0.0,0.0,0.0,0.0,0.0,0.0,0.0,0.0,0.0,0.0,0.0,1.9423,1.9493,2.1912,2.3285,2.4481,2.6816,2.8047,2.9139,3.1386,3.2164,3.2428,3.2855,3.2064,3.0369,2.7281,2.5435,2.3163,1.8869,0.0,1.6211,1.3727,1.3007,1.3668,1.6488,0.0,1.9575,2.265,2.442,2.5613,2.6315,2.6605,2.7588,2.9601,2.9576,2.9462,2.9611,2.7992,2.66,2.5597,2.5284,2.5427,2.6036,2.6224,2.6224,2.6058,2.6224,2.5714,2.4542,2.4542,2.4049,2.3135,2.3135,2.2849,2.2461,2.395,2.4119,2.3415,2.4293,2.4415,2.4082,2.3444,2.2875,2.2424,2.2486,2.2352,2.2275,0.0,0.0,0.0,0.0,0.0,0.0,0.0,0.0,0.0,0.0,0.5852,0.566,0.0,0.0,0.0,0.0,0.0,0.0,0.0,0.0,0.0,0.0,0.0,0.0,0.0,0.0,0.0,0.0,0.0,0.0,0.0,0.0,0.0,0.0,0.0,0.0,0.0,0.0,0.0,0.0,0.0,0.0,0.0,0.0,0.0,0.0,0.0,0.0,0.0,0.0,2.1212,2.2003,2.4811,2.7062,2.8637,2.8649,3.0005,3.1411,3.1009,3.1888,3.283,3.2453,3.121,2.9553,2.7582,2.4506,0.0,0.0,1.5643,1.4113,1.2361,1.2894,1.4491,1.7312,0.0,0.0,0.0,0.0,2.5612,0.0,0.0,0.0,0.0,0.0,0.0,0.0,0.0,2.7822,2.7584,2.5864,2.4556,2.3714,2.4628,2.4628,2.3724,2.4628,2.4542,2.3387,2.3387,2.3299,2.3135,2.3135,2.3018,2.2985,2.3288,0.0,2.4449,2.3368,2.3176,2.3493,2.2117,2.1312,2.1025,2.1322,2.1243,2.1006,0.0,0.0,0.0,0.0,0.0,0.0,0.0,0.5781,0.5952,0.5137,0.4916,0.4793,0.473,0.4345,0.0,0.0,0.0,0.0,0.0,0.0,0.0,0.0,0.0,0.0,0.0,0.0,0.3822,0.4377,0.0,0.0,0.0,0.5605,0.5735,0.0,0.0,0.0,0.0,0.0,0.0,0.0,0.0,0.0,0.0,0.0,0.0,0.0,0.0,0.0,0.0,0.0,1.9274,2.0511,2.5382,2.8069,2.9102,2.7795,2.9298,3.1197,3.0225,3.1468,3.2943,3.2353,3.0997,2.875,2.4745,0.0,0.0,0.0,1.2441,1.1634,1.0684,1.1425,0.0,0.0,0.0,0.0,0.0,0.0,0.0,0.0,0.0,0.0,0.0,0.0,0.0,0.0,0.0,2.5901,2.6333,2.4787,2.3627,2.3135,2.3637,2.3627,2.3144,2.3637,2.3637,2.3135,2.3135,2.3135,2.3135,2.3135,2.3135,2.3135,2.3135,2.2553,2.1787,2.2281,2.18,2.0843,2.1099,2.1103,2.0908,2.0889,2.0898,2.0977,0.0,0.0,0.0,0.0,0.0,0.0,0.0,0.4747,0.4749,0.4476,0.4346,0.4249,0.4192,0.4136,0.3963,0.0,0.0,0.0,0.0,0.0,0.0,0.0,0.0,0.0,0.0,0.0,0.0,0.5076,0.4934,0.0,0.0,0.0,0.0,0.0,0.7231,0.7306,0.0,0.0,0.0,0.0,0.0,0.0,0.0,0.0,0.0,0.0,0.0,0.0,0.0,0.0,1.6543,1.7837,2.3251,2.6387,2.7753,2.6193,2.7801,2.994,2.963,3.11,3.2635,3.2118,3.0633,2.777,2.2121,1.9196,0.0,1.1286,1.0069,0.989,0.987,0.0,1.1828,0.0,1.5727,0.0,0.0,0.0,0.0,0.0,0.0,0.0,0.0,0.0,0.0,0.0,0.0,0.0,2.4426,2.3551,2.3135,2.3135,2.3135,2.3135,2.3135,2.3135,2.3135,2.3135,2.3135,2.3135,2.3135,2.3135,2.3135,2.3135,2.3135,2.171,1.972,2.1779,2.1109,1.9002,2.0676,2.126,2.1045,2.0693,2.0938,2.1392,0.0,0.0,0.0,0.0,0.0,0.0,0.0,0.5204,0.536,0.4669,0.4369,0.4185,0.4116,0.4102,0.3963,0.0,0.0,0.0,0.0,0.0,0.0,0.0,0.0,0.0,0.0,0.0,0.0,0.5018,0.5063,0.0,0.0,0.0,0.0,0.0,0.0,0.6682,0.6714,0.0,0.0,0.0,0.0,0.0,0.0,0.0,0.0,0.0,0.0,0.0,0.0,0.0,0.0,1.5405,1.6968,2.1019,2.5165,2.4957,0.0,0.0,3.0048,3.0946,3.1436,3.1464,2.9478,2.644,2.2347,0.0,1.5078,1.2052,1.0621,1.0219,1.1207,1.1452,0.0,0.0,0.0,1.4395,0.0,0.0,0.0,0.0,0.0,0.0,0.0,0.0,0.0,0.0,0.0,0.0,2.3212,2.3135,2.3135,2.3135,2.3135,2.3135,2.3135,2.3135,2.3135,2.3135,2.3135,2.3135,2.3135,2.3135,2.3135,2.3135,2.3135,2.2571,0.0,2.2658,2.2016,2.0449,2.1423,2.1328,2.0625,2.0576,2.1175,2.1949,0.0,0.0,0.0,0.0,0.0,0.0,0.4647,0.477,0.4777,0.4349,0.4205,0.4093,0.3991,0.3977,0.3906,0.0,0.0,0.0,0.0,0.0,0.0,0.0,0.0,0.0,0.0,0.0,0.0,0.5479,0.5719,0.0,0.0,0.0,0.0,0.0,0.0,0.6599,0.6616,0.0,0.0,0.0,0.0,0.0,0.0,0.0,0.0,0.0,0.0,0.0,0.0,0.0,0.0,0.0,1.1475,1.422,0.0,0.0,2.1669,2.4653,2.6651,2.8763,3.0543,3.124,2.8812,2.5247,2.1355,0.0,1.4362,1.1211,1.0219,1.0044,1.0495,1.0571,1.1061,0.0,0.0,0.0,1.8343,0.0,0.0,0.0,0.0,0.0,0.0,0.0,0.0,0.0,0.0,0.0,2.3028,2.3135,2.3135,2.3135,2.3135,2.3135,2.3135,2.3135,2.3135,2.3135,2.2881,2.2764,2.2764,2.2764,2.2764,2.2764,2.2764,2.1345,0.0,2.1511,2.0732,1.8406,2.0661,2.1279,2.0937,2.0664,2.1155,2.2027,0.0,0.0,0.0,0.0,0.0,0.479,0.4556,0.4452,0.4323,0.4129,0.4068,0.3998,0.3913,0.3906,0.3891,0.3891,0.0,0.0,0.0,0.0,0.0,0.0,0.0,0.0,0.0,0.0,0.5307,0.604,0.6224,0.6614,0.0,0.0,0.6633,0.6702,0.0,0.0,0.0,0.0,0.0,0.0,0.0,0.0,0.0,0.0,0.0,0.0,0.0,0.0,0.0,0.0,0.0,0.0,0.0,0.0,0.0,0.0,1.7848,2.1669,2.4024,2.6881,2.951,3.0661,2.7871,2.3941,0.0,0.0,1.3333,1.0495,0.9905,0.9905,0.9905,0.9905,1.0243,0.0,0.0,1.2721,1.691,0.0,0.0,0.0,0.0,0.0,0.0,0.0,0.0,0.0,0.0,0.0,2.3018,2.3135,2.3135,2.3135,2.3135,2.3076,2.2959,2.2949,2.2891,2.2764,2.2598,2.2246,2.1768,2.2402,2.2353,2.1777,2.2285,2.1086,0.0,2.1041,2.0341,1.8216,2.0352,2.1152,2.0996,2.1053,2.1451,2.2027,0.0,0.0,0.0,0.0,0.0,0.0,0.0,0.4489,0.4336,0.4129,0.3984,0.3906,0.3906,0.3906,0.3956,0.4082,0.0,0.0,0.0,0.0,0.0,0.0,0.0,0.0,0.0,0.0,0.0,0.658,0.6405,0.6614,0.718,0.6794,0.6706,0.6908,0.0,0.0,0.0,0.0,0.0,0.0,0.0,0.0,0.0,0.0,0.0,0.0,0.0,0.0,0.0,0.0,0.0,0.0,0.0,0.0,0.0,0.0,1.5905,2.0336,2.3247,2.5945,2.8208,2.9492,2.6452,2.2376,0.0,0.0,1.1952,1.0257,0.9905,0.9905,0.9905,0.9905,1.0123,1.0882,1.1463,0.0,1.3837,0.0,0.0,0.0,0.0,0.0,0.0,0.0,0.0,0.0,0.0,0.0,2.3135,2.3135,2.3135,2.3135,2.3135,2.2939,2.2519,2.2519,2.2314,2.1904,2.2314,2.1611,2.001,2.2158,2.1963,2.0039,2.1758,2.2311,0.0,2.1899,2.1718,2.1366,2.1262,2.0967,2.0722,2.1669,2.1952,2.2103,0.0,0.0,0.0,0.0,0.0,0.0,0.0,0.4452,0.4329,0.4129,0.41,0.4118,0.4172,0.4124,0.4118,0.4166,0.0,0.0,0.0,0.0,0.0,0.0,0.0,0.0,0.0,0.0,0.5712,0.5573,0.62,0.6602,0.6772,0.6512,0.6653,0.7112,0.7112,0.0,0.0,0.0,0.0,0.0,0.0,0.0,0.0,0.0,0.0,0.0,0.0,0.0,0.0,0.0,0.0,0.0,0.0,0.0,0.0,0.0,0.0,0.0,1.805,1.978,2.1031,2.2335,2.0316,1.7626,1.5994,1.3358,1.0969,1.0094,0.9905,0.9905,0.9905,0.9905,1.0243,1.1238,1.1636,0.0,0.0,0.0,0.0,0.0,0.0,0.0,0.0,0.0,0.0,0.0,0.0,0.0,2.5357,2.443,2.3517,2.2705,2.2715,2.251,2.209,2.209,2.2021,2.1885,2.1719,2.1115,2.0109,2.1273,2.1204,2.0129,2.1164,2.1643,2.1722,2.1215,2.1447,2.2105,2.185,2.165,2.1669,2.2627,2.2627,2.2178,0.0,0.0,0.0,0.0,0.0,0.0,0.0,0.4478,0.4381,0.4192,0.4192,0.4224,0.4255,0.4273,0.4257,0.4242,0.0,0.0,0.0,0.0,0.0,0.0,0.0,0.0,0.0,0.516,0.5485,0.5106,0.5803,0.6161,0.6214,0.5968,0.6256,0.6967,0.6967,0.0,0.0,0.0,0.0,0.0,0.0,0.0,0.9835,0.0,0.0,0.0,0.0,0.0,0.0,0.0,0.0,0.0,0.0,0.0,0.0,0.0,0.9513,1.1216,0.0,1.6161,1.7326,1.835,1.6635,0.0,0.0,1.155,0.9767,0.9617,0.9918,1.0144,0.9943,1.0244,1.0503,1.0342,1.1822,0.0,0.0,0.0,0.0,0.0,0.0,0.0,0.0,0.0,0.0,0.0,0.0,0.0,2.5809,2.4978,2.4013,2.3135,2.2585,2.207,2.1641,2.1641,2.1553,2.1387,2.1279,2.0613,1.9656,2.0889,2.0809,1.9686,2.0741,2.164,0.0,2.1432,2.2037,2.3332,2.2234,2.188,2.2081,2.2507,2.2179,2.1593,0.0,0.0,0.0,0.0,0.0,0.0,0.0,0.0,0.4468,0.4328,0.4267,0.422,0.422,0.4335,0.4392,0.4322,0.0,0.0,0.0,0.0,0.0,0.0,0.0,0.0,0.0,0.4797,0.5081,0.5037,0.5256,0.544,0.5548,0.5231,0.5603,0.6553,0.6623,0.72,0.0,0.0,0.0,0.0,0.0,0.0,0.0,0.0,0.0,0.0,0.0,0.0,0.0,0.0,0.0,0.0,0.0,0.0,0.0,0.0,0.0,0.0,0.0,1.4237,1.5986,1.651,0.0,0.0,0.0,0.0,0.0,0.9088,1.0006,1.0556,1.0106,1.0947,1.0986,0.8754,1.198,0.0,0.0,0.0,0.0,0.0,0.0,0.0,0.0,0.0,0.0,0.0,0.0,2.5543,2.5082,2.4948,2.4724,2.4352,2.2832,2.1755,2.1262,2.1182,2.0937,2.0507,2.0947,2.0244,1.8714,2.0938,2.0713,0.0,2.0594,2.2159,2.3441,2.2403,2.3198,2.4684,2.2361,2.1639,2.1782,2.1544,2.1008,2.0469,0.0,0.0,0.0,0.0,0.0,0.0,0.0,0.0,0.0,0.0,0.4437,0.4431,0.4431,0.4506,0.4547,0.0,0.0,0.0,0.0,0.0,0.0,0.0,0.0,0.0,0.0,0.4918,0.493,0.4411,0.4814,0.5032,0.5066,0.4988,0.5348,0.6085,0.6754,0.7611,0.8567,0.0,0.0,0.0,0.0,0.0,0.0,0.0,0.0,0.0,0.9731,1.0067,0.0,0.0,0.0,0.0,0.0,0.0,0.0,0.0,0.8064,0.7681,0.8051,0.0,0.9526,0.9391,0.9059,0.8717,0.0,0.0,0.0,0.0,0.0,1.0794,1.1136,1.2102,1.2267,1.0612,1.2212,1.3152,0.0,0.0,0.0,0.0,0.0,0.0,0.0,0.0,0.0,0.0,0.0,2.7457,2.7323,2.6232,2.5491,2.5448,2.3921,2.2691,2.1834,2.1093,2.047,1.9819,2.0424,1.9975,1.8691,2.0949,2.0995,1.9483,2.1933,2.3194,2.3441,2.2403,2.2988,2.4317,2.2578,2.1254,2.0442,2.1447,2.0245,1.8212,0.0,0.0,0.0,0.0,0.0,0.0,0.0,0.0,0.0,0.0,0.0,0.0,0.0,0.0,0.0,0.0,0.0,0.0,0.0,0.0,0.0,0.0,0.0,0.0,0.4501,0.4695,0.4597,0.4195,0.4333,0.4409,0.4444,0.4409,0.4833,0.5681,0.7182,0.7931,0.8146,0.8587,0.8913,0.0,0.9159,0.0,0.0,0.0,0.0,0.0,0.9332,0.959,0.0,1.032,1.0421,1.0464,0.0,0.0,0.0,0.0,0.8064,0.7638,0.6824,0.6812,0.7168,0.7766,0.7461,0.7238,0.8001,0.0,0.0,0.0,0.0,1.0541,1.1203,1.1648,1.1569,1.0546,1.1417,0.0,0.0,0.0,0.0,0.0,0.0,0.0,0.0,0.0,0.0,0.0,2.7431,2.7494,2.6979,2.614,2.5578,2.5347,2.3699,2.255,2.2027,2.1517,2.0714,1.963,2.0044,1.9715,1.8807,2.0329,2.0525,1.9817,2.1111,2.1988,2.2491,2.1829,2.2067,2.2767,2.1481,2.0345,1.9363,1.9459,1.8538,1.7407,0.0,0.0,0.0,0.0,0.0,0.0,0.0,0.0,0.0,0.0,0.0,0.0,0.0,0.0,0.0,0.0,0.0,0.0,0.0,0.0,0.0,0.0,0.0,0.4582,0.4517,0.437,0.4259,0.4195,0.3949,0.384,0.3906,0.384,0.4208,0.5015,0.7259,0.7959,0.753,0.8482,0.8979,0.0,0.9237,0.0,0.0,0.0,0.0,0.0,0.0,0.0,0.0,0.9849,0.9986,1.009,1.0703,0.0,0.0,0.0,0.0,0.0,0.6887,0.6662,0.7075,0.8587,0.7784,0.7025,0.8723,0.0,0.0,0.0,0.0,0.0,0.0,0.0,0.0,0.0,0.0,0.0,0.0,0.0,0.0,0.0,0.0,0.0,0.0,0.0,0.0,2.7205,2.7155,2.6703,2.5649,2.5598,2.536,2.4845,2.329,2.2299,2.203,2.1816,2.1032,1.9713,1.9975,1.9613,1.8829,1.9777,2.0068,1.9873,0.0,0.0,2.1136,2.0962,2.0732,2.0535,1.9639,1.8736,1.7795,1.6665,1.6269,1.6324,0.0,0.0,0.0,0.0,0.0,0.0,0.0,0.0,0.0,0.0,0.0,0.0,0.0,0.0,0.0,0.0,0.0,0.0,0.0,0.0,0.0,0.0,0.5102,0.4648,0.4587,0.4398,0.4259,0.4195,0.3983,0.3891,0.3906,0.3891,0.3639,0.3281,0.5676,0.7103,0.7798,0.8576,0.8979,0.9109,0.9237,0.0,0.0,0.0,0.0,0.0,0.0,0.0,0.0,0.9431,0.9878,1.0378,1.0787,0.0,0.0,0.0,0.0,0.0,0.6774,0.6937,0.7456,0.8236,0.7508,0.7025,0.8723,0.0,0.0,0.0,0.0,0.0,0.0,0.0,0.0,0.0,0.0,0.0,0.0,0.0,0.0,0.0,0.0,0.0,0.0,0.0,2.718,2.6697,2.6647,2.6302,2.5636,2.5598,2.536,2.4845,2.4536,2.364,2.2051,2.0822,2.0268,2.026,2.0786,2.0071,1.8495,2.0665,2.105,1.9977,0.0,2.156,2.0178,2.0186,1.9291,1.7819,1.7195,1.5682,1.3794,1.3943,1.2978,1.1787,0.0,0.0,0.0,0.0,0.0,0.0,0.0,0.0,0.0,0.0,0.0,0.0,0.0,0.0,0.0,0.0,0.0,0.0,0.0,0.0,0.0,0.5435,0.496,0.4853,0.5184,0.4607,0.4257,0.414,0.3984,0.3548,0.2907,0.4323,0.4685,0.4249,0.6555,0.7631,0.7758,0.8644,0.9119,0.9331,0.0,0.0,0.0,0.0,0.0,0.0,0.0,0.0,0.0,0.0,0.982,1.0005,1.0852,0.0,0.0,0.0,0.0,0.0,0.6819,0.6862,0.7522,0.9201,0.8562,0.8273,1.114,0.0,0.0,0.0,0.0,0.0,0.0,0.0,0.0,0.0,0.0,0.0,0.0,0.0,0.0,0.0,0.0,0.0,0.0,2.4679,2.6798,2.6546,2.6163,2.5749,2.5209,2.4895,2.4481,2.3929,2.3453,2.2927,2.2391,2.0705,1.9896,1.9935,1.9858,1.9363,1.8633,1.9723,1.9565,1.8524,0.0,1.8893,1.7696,1.7602,1.6741,1.5618,1.5551,1.4222,1.2227,1.1904,1.125,1.0454,0.0,0.0,0.0,0.0,0.0,0.0,0.0,0.0,0.0,0.0,0.0,0.0,0.0,0.0,0.0,0.0,0.0,0.0,0.0,0.0,0.5084,0.5428,0.4939,0.4905,0.5447,0.472,0.4269,0.4129,0.3977,0.3086,0.1577,0.3862,0.5262,0.5968,0.7424,0.7885,0.7654,0.8678,0.9208,0.9403,0.0,0.0,0.0,0.0,0.0,0.0,0.0,0.0,0.0,0.0,0.0,0.0,0.0,0.0,0.0,0.8913,0.83,0.771,0.689,0.6881,0.766,0.9957,0.0,0.924,1.367,0.0,0.0,0.0,0.0,0.0,0.0,0.0,0.0,0.0,0.0,0.0,0.0,0.0,0.0,0.0,0.0,0.0,2.2993,2.5127,2.6533,2.6533,2.5925,2.5372,2.4845,2.4293,2.3728,2.309,2.2322,2.2005,2.2204,2.0609,1.9775,1.9692,1.9172,1.8694,1.8342,1.8395,1.7873,1.6847,1.6468,1.5834,1.5112,1.4898,1.4244,1.3461,1.4015,1.2986,1.1112,1.0197,0.9683,0.9433,0.0,0.0,0.0,0.0,0.0,0.0,0.0,0.0,0.0,0.0,0.0,0.0,0.0,0.0,0.0,0.0,0.0,0.0,0.0,0.0,0.5596,0.6972,0.5422,0.4596,0.4769,0.4522,0.433,0.4188,0.3989,0.2609,0.0175,0.1418,0.4053,0.7673,0.6845,0.6865,0.7573,0.8647,0.9109,0.9129,0.9257,0.0,0.0,0.0,0.0,0.0,0.0,0.0,0.0,0.0,0.0,0.0,0.0,0.0,0.9407,0.8798,0.7974,0.7201,0.6957,0.7288,0.809,0.9578,0.8703,0.0,1.499,1.3298,0.0,0.0,0.0,0.0,0.0,0.0,0.0,0.0,0.0,0.0,0.0,0.0,0.0,0.0,0.0,2.4661,2.4803,2.5824,2.6533,2.6533,2.5925,2.5372,2.4845,2.4293,2.3728,2.309,2.2322,2.1514,2.0775,1.9802,1.9596,2.009,1.9881,1.8724,1.6812,1.7571,1.7195,1.583,1.4901,1.394,1.3113,1.3064,1.2247,1.1111,1.2123,1.1298,0.9587,0.8679,0.7769,0.6947,0.0,0.0,0.0,0.0,0.0,0.0,0.0,0.0,0.0,0.0,0.0,0.0,0.0,0.0,0.0,0.0,0.0,0.0,0.0,0.0,0.5952,0.6429,0.5192,0.4472,0.4397,0.4271,0.415,0.401,0.2307,0.1668,0.205,0.194,0.3397,0.6106,0.625,0.6772,0.759,0.817,0.873,0.9183,0.8771,0.8576,0.0,0.0,0.0,0.0,0.0,0.0,0.0,0.0,0.9442,0.9687,0.9805,0.9564,0.9157,0.8714,0.7851,0.6942,0.6611,0.708,0.8121,0.995,0.0,0.0,0.0,0.0,0.0,0.0,0.0,0.0,0.0,0.0,0.0,0.0,0.0,0.0,0.0,0.0,0.0,0.0,0.0,2.6064,2.6637,2.7511,2.8051,2.8051,2.6737,2.5805,2.561,2.4238,2.3364,2.3078,2.2823,2.199,2.059,2.0268,1.9647,1.8781,1.8115,1.7655,1.7338,1.5896,1.4641,1.3499,1.2499,1.1546,1.0691,1.0691,1.0343,0.9895,1.0271,1.0402,1.0198,0.934,0.8321,0.7311,0.0,0.0,0.0,0.0,0.0,0.0,0.0,0.0,0.0,0.0,0.0,0.0,0.0,0.0,0.0,0.0,0.0,0.0,0.0,0.628,0.6619,0.6732,0.5764,0.5033,0.4647,0.4248,0.3586,0.2668,0.088,0.163,0.4723,0.3649,0.4138,0.5947,0.6411,0.7066,0.7863,0.7962,0.8338,0.8814,0.8081,0.7765,0.0,0.0,0.0,0.0,0.0,0.0,0.0,0.0,0.9082,0.9091,0.0,0.8817,0.8697,0.8211,0.7503,0.6865,0.6744,0.7141,0.8116,0.0,0.0,0.0,0.0,0.0,0.0,0.0,0.0,0.0,0.0,0.0,0.0,0.0,0.0,0.0,0.0,0.0,0.0,0.0,2.6408,2.6994,2.7719,2.8334,2.8504,2.8061,2.6644,2.5682,2.5449,2.3933,2.299,2.2874,2.2797,2.2103,2.0734,2.0384,1.941,1.7959,1.6775,1.6314,1.6441,1.419,1.249,1.1199,1.022,0.9417,0.8846,0.8846,0.8998,0.9296,0.9669,0.997,1.0282,0.9985,0.9034,0.7739,0.0,0.0,0.0,0.0,0.0,0.0,0.0,0.0,0.0,0.0,0.0,0.0,0.0,0.0,0.0,0.0,0.0,0.0,0.0,0.7431,0.7666,0.8268,0.7333,0.6423,0.5625,0.4479,0.2624,0.0045,0.0045,0.2728,0.7839,0.6301,0.6399,0.7854,0.7468,0.7704,0.8361,0.8116,0.8014,0.7909,0.7187,0.6971,0.7082,0.0,0.0,0.0,0.0,0.0,0.0,0.0,0.9419,0.851,0.0,0.0,0.0,0.7159,0.6912,0.6993,0.7475,0.7605,0.0,0.0,0.0,0.0,0.0,0.0,0.0,0.0,0.0,0.0,0.0,0.0,0.0,0.0,0.0,0.0,0.0,0.0,0.0,2.7604,2.7723,2.7824,2.7975,2.8043,2.7414,2.6008,2.5393,2.4801,2.4041,2.3439,2.2874,2.2322,2.2031,2.1616,2.1009,1.9887,1.8859,1.7852,1.6044,1.4617,1.3554,1.2576,1.1131,0.9221,0.8237,0.7783,0.7783,0.7783,0.8389,0.9372,1.0415,1.019,0.9448,1.0415,0.9513,0.7783,0.0,0.0,0.0,0.0,0.0,0.0,0.0,0.0,0.0,0.0,0.0,0.0,0.0,0.0,0.0,0.0,0.0,0.0,0.0,0.7506,0.772,0.8271,0.6804,0.6074,0.6302,0.4221,0.3006,0.2743,0.2743,0.381,0.5837,0.4856,0.4875,0.5771,0.6927,0.7055,0.6573,0.8768,0.8452,0.6508,0.6286,0.6446,0.676,0.0,0.0,0.0,0.0,0.0,0.0,0.0,0.0,0.0,0.7902,0.0,0.8413,0.8878,0.7717,0.6598,0.8109,0.0,0.0,0.0,0.0,0.0,0.0,0.0,0.0,0.0,0.0,0.0,0.0,0.0,0.0,0.0,0.0,0.0,0.0,0.0,0.0,2.7064,2.7692,2.8298,2.8859,2.9435,2.9405,2.8595,2.6567,2.5295,2.5081,2.3083,2.1895,2.1732,2.2027,2.1548,2.0159,2.0217,1.9114,1.6954,1.5781,1.4268,1.257,1.0908,0.9437,0.8161,0.7173,0.6718,0.6718,0.6718,0.7702,0.9221,0.9606,1.0421,1.1471,1.1774,1.0571,0.8765,0.0,0.0,0.0,0.0,0.0,0.0,0.0,0.0,0.0,0.0,0.0,0.0,0.0,0.0,0.0,0.0,0.0,0.0,0.0,0.0,0.8547,0.8874,0.7723,0.7027,0.6916,0.464,0.4032,0.5247,0.4423,0.4615,0.5732,0.49,0.4758,0.5287,0.6468,0.6564,0.594,0.7642,0.7333,0.5707,0.5707,0.5924,0.6257,0.0,0.0,0.0,0.0,0.0,0.0,0.0,0.0,0.0,0.7142,0.0,0.0,0.8803,0.8114,0.7597,0.9321,0.0,0.0,0.0,0.0,0.0,0.0,0.0,0.0,0.0,0.0,0.0,0.0,0.0,0.0,0.0,0.0,0.0,0.0,0.0,2.6128,2.7319,2.8124,2.8728,2.901,2.9421,2.92,2.8045,2.5977,2.4598,2.4259,2.2535,2.1393,2.1167,2.1907,2.1531,1.9984,2.0369,1.9444,1.7083,1.5781,1.4132,1.2151,1.0628,0.9367,0.8389,0.7783,0.7319,0.719,0.7626,0.842,0.9389,1.0174,1.1037,1.1872,1.2439,1.115,0.9015,0.0,0.0,0.0,0.0,0.0,0.0,0.0,0.0,0.0,0.0,0.0,0.0,0.0,0.0,0.0,0.0,0.0,0.0,0.0,0.0,0.9723,0.9752,0.9375,0.8635,0.7478,0.5593,0.5531,0.7383,0.5346,0.5208,0.6821,0.5849,0.5539,0.5835,0.6167,0.6186,0.5972,0.5713,0.5488,0.5302,0.531,0.5434,0.5692,0.6569,0.0,0.0,0.0,0.0,0.0,0.0,0.0,0.0,0.6387,0.7297,0.8043,0.7588,0.8243,0.9404,1.0801,0.0,0.0,0.0,0.0,0.0,0.0,0.0,0.0,0.0,0.0,0.0,0.0,0.0,0.0,0.0,0.0,0.0,0.0,0.0,2.6431,2.8097,2.8664,2.8815,2.8584,2.8446,2.7583,2.5626,2.4315,2.3248,2.2445,2.177,2.1159,2.0655,2.1656,2.1568,2.0111,2.0353,1.9565,1.7735,1.6026,1.4182,1.2297,1.1267,1.0248,0.9412,0.9386,0.9192,0.8788,0.9848,1.0137,1.0176,1.1956,1.2126,1.1587,1.2735,1.143,0.9114,0.0,0.0,0.0,0.0,0.0,0.0,0.0,0.0,0.0,0.0,0.0,0.0,0.0,0.0,0.0,0.0,0.0,0.0,0.0,0.0,0.9096,0.9466,0.8602,0.8033,0.7882,0.6878,0.6907,0.8004,0.6353,0.5831,0.6422,0.5625,0.5248,0.5325,0.6578,0.6121,0.4562,0.6954,0.6631,0.455,0.4648,0.5062,0.5641,0.6,0.65,0.0,0.0,0.0,0.0,0.0,0.0,0.0,0.646,0.6622,0.6954,0.7721,0.8506,0.9495,0.0,1.1582,0.0,0.0,0.0,0.0,0.0,0.0,0.0,0.0,0.0,0.0,0.0,0.0,0.0,0.0,0.0,0.0,0.0,2.503,2.6106,2.8125,2.7542,2.733,2.8406,2.7966,2.7055,2.5697,2.4399,2.335,2.2643,2.1555,2.0669,1.9987,2.1079,2.0876,1.9219,1.9756,1.8828,1.634,1.5641,1.4638,1.3437,1.1604,1.0512,0.9924,1.0337,1.0695,1.1005,1.1349,1.2204,1.3342,1.3877,1.4135,1.4122,1.3768,1.2542,1.0885,0.0,0.0,0.0,0.0,0.0,0.0,0.0,0.0,0.0,0.0,0.0,0.0,0.0,0.0,0.0,0.0,0.0,0.0,0.0,0.0,0.0,0.9436,0.8506,0.8188,0.8619,0.7584,0.7596,0.8726,0.7598,0.0,0.0,0.0,0.0,0.4649,0.0,0.5077,0.4104,0.5786,0.5643,0.4369,0.521,0.5829,0.6284,0.6842,0.7052,0.6964,0.6285,0.0,0.0,0.0,0.0,0.0,0.0,0.0,0.6916,0.7308,0.8065,0.9139,0.0,0.0,0.0,0.0,0.0,0.0,0.0,0.0,0.0,0.0,0.0,0.0,0.0,0.0,0.0,0.0,0.0,0.0,0.0,2.45,2.5529,2.7221,2.6837,2.6703,2.7396,2.6915,2.5997,2.4747,2.3478,2.2457,2.1766,2.1137,2.047,1.981,2.0964,2.0576,1.8636,1.9186,1.8436,1.63,1.5614,1.4707,1.3518,1.2669,1.2075,1.1696,1.2133,1.2477,1.2915,1.3817,1.4832,1.5816,1.6338,1.6138,1.5565,1.5205,1.351,1.1351,0.0,0.0,0.0,0.0,0.0,0.0,0.0,0.0,0.0,0.0,0.0,0.0,0.0,0.0,0.0,0.0,0.0,0.0,0.0,0.0,0.0,0.0,0.8786,0.8682,0.9322,0.8329,0.8326,0.9367,0.0,0.0,0.0,0.0,0.0,0.4625,0.0,0.4311,0.4123,0.4129,0.4285,0.4634,0.5993,0.6616,0.6836,0.7929,0.7662,0.6709,0.659,0.58,0.493,0.5617,0.0,0.0,0.0,0.0,0.6748,0.6412,0.7289,0.8629,0.0,0.0,0.0,0.0,0.0,0.0,0.0,0.0,0.0,0.0,0.0,0.0,0.0,0.0,0.0,0.0,0.0,0.0,2.332,2.3978,2.4805,2.6087,2.5998,2.5874,2.6035,2.5517,2.4671,2.3518,2.2453,2.1513,2.0724,2.0751,2.0416,1.9698,2.0814,2.0335,1.8058,1.8608,1.8051,1.6334,1.5526,1.4488,1.3397,1.376,1.3769,1.3434,1.392,1.4294,1.4724,1.6374,1.7457,1.8054,1.8718,1.8112,1.6881,1.6588,1.4637,1.2098,0.0,0.0,0.0,0.0,0.0,0.0,0.0,0.0,0.0,0.0,0.0,0.0,0.0,0.0,0.0,0.0,0.0,0.0,1.0001,0.0,0.0,0.9508,0.9269,0.9251,0.9465,0.997,1.0032,0.9641,0.0,0.0,0.0,0.0,0.0,0.677,0.0,0.0,0.4198,0.4242,0.4713,0.5458,0.5784,0.5971,0.6207,0.7855,0.7112,0.548,0.7598,0.6851,0.5011,0.5793,0.5411,0.0,0.0,0.0,0.4861,0.4817,0.6459,0.8359,0.0,0.0,0.0,0.0,0.0,0.0,0.0,0.0,0.0,0.0,0.0,0.0,0.0,0.0,0.0,0.0,0.0,0.0,2.2754,2.3317,2.4175,2.549,2.4027,2.3406,2.4642,2.4089,2.3431,2.2843,2.267,2.2007,2.0766,2.0726,2.0213,1.9153,2.0175,1.9533,1.7042,1.7654,1.6968,1.5039,1.4482,1.416,1.3993,1.405,1.3848,1.3473,1.447,1.556,1.6718,1.8076,1.9271,2.0344,2.0458,1.9965,1.9061,1.7579,1.6434,1.5579,0.0,0.0,0.0,0.0,0.0,0.0,0.0,0.0,0.0,0.0,0.0,0.0,0.0,0.0,0.0,1.0196,1.0159,1.0112,1.002,0.9737,0.9625,0.9677,0.9499,0.9483,0.9609,0.9956,1.0218,0.0,0.0,0.0,0.0,1.1515,1.0015,0.0,0.0,0.0,0.0,0.0,0.5862,0.5041,0.5624,0.5886,0.6045,0.6838,0.6519,0.578,0.6936,0.6607,0.5738,0.6436,0.6075,0.5376,0.5647,0.0,0.0,0.0,0.5676,0.0,0.975,0.0,0.0,0.0,0.0,0.0,0.0,0.0,0.0,0.0,0.0,0.0,0.0,0.0,0.0,0.0,0.0,0.0,2.1511,2.1899,2.2494,2.3621,2.2701,2.237,2.3251,2.2777,2.2212,2.1644,2.1575,2.1143,2.02,2.0485,2.0316,1.9418,1.9904,1.9305,1.7416,1.7065,1.6084,1.4414,1.3984,1.3779,1.3769,1.3861,1.4071,1.4385,1.4901,1.6003,1.7622,1.8893,1.9947,2.0845,2.1161,2.0631,1.9619,1.8686,1.7847,1.7079,0.0,0.0,0.0,0.0,0.0,0.0,0.0,0.0,0.0,0.0,0.0,0.0,0.0,0.0,0.0,0.0,1.0175,1.0212,1.0326,0.9938,0.9847,1.0137,0.9799,0.9635,0.9747,0.9957,0.0,0.0,0.0,0.0,1.2888,1.2667,1.1293,0.0,1.0384,0.0,0.0,0.0,0.0,0.0,0.6591,0.6537,0.6076,0.6357,0.6226,0.5985,0.6456,0.6321,0.6004,0.6645,0.6306,0.5698,0.6299,0.5739,0.0,0.0,0.0,0.0,0.0,0.0,0.0,0.0,0.0,0.0,0.0,0.0,0.0,0.0,0.0,0.0,0.0,0.0,0.0,0.0,0.0,0.0,2.0433,2.0713,2.1144,2.1865,2.1531,2.1385,2.1925,2.1644,2.1246,2.0752,2.0722,2.0423,1.972,2.0168,2.0144,1.952,1.9739,1.9094,1.7526,1.6369,1.5311,1.4255,1.3922,1.382,1.381,1.3984,1.4494,1.5221,1.5221,1.6165,1.7811,1.9282,2.0248,2.0863,2.1301,2.089,1.994,1.9414,1.8737,1.8186,0.0,0.0,0.0,0.0,0.0,0.0,0.0,0.0,0.0,0.0,0.0,0.0,0.0,1.0197,1.0205,1.0202,1.0133,1.0424,1.1176,1.0449,1.0318,1.1093,1.0326,0.0,0.9881,1.064,0.0,0.0,0.0,0.0,1.0237,1.191,1.2137,1.1152,1.13,1.1521,1.1646,0.0,0.0,0.0,0.0,0.0,0.0,0.0,0.6481,0.0,0.0,0.6461,0.5178,0.5985,0.5584,0.4908,0.5692,0.5886,0.5828,0.0,0.0,0.0,0.0,0.0,0.0,0.0,0.0,0.0,0.0,0.0,0.0,0.0,0.0,0.0,0.0,0.0,0.0,0.0,0.0,1.9308,1.986,2.0399,2.0729,2.079,2.022,2.0049,2.073,2.0767,2.0752,2.0722,2.0722,2.0423,1.972,1.972,1.9487,1.8974,1.9423,1.8659,1.6522,1.5345,1.473,1.4684,1.4662,1.4651,1.4651,1.4674,1.4994,1.5582,1.5582,1.6203,1.737,1.9317,2.0343,2.0804,2.0896,2.0867,2.0597,1.9162,1.8932,1.927,0.0,0.0,0.0,0.0,0.0,0.0,0.0,0.0,0.0,0.0,0.0,0.0,0.0,1.157,1.186,1.1881,1.1295,1.1286,1.2137,1.0828,1.0373,1.1234,1.0387,0.9893,0.9893,1.0169,0.0,0.0,0.0,1.0377,1.0901,1.0907,1.1072,1.148,1.4212,1.3336,0.997,1.2557,0.0,0.0,0.0,0.0,0.0,0.0,0.0,0.0,0.0,0.0,0.7891,0.6579,0.5839,0.5607,0.6376,0.6275,0.5901,0.5952,0.0,0.0,0.0,0.0,0.0,0.0,0.0,0.0,0.0,0.0,0.0,0.0,0.0,0.0,0.0,0.0,0.0,0.0,0.0,1.8752,1.9653,1.9641,1.9685,2.0012,1.9839,1.9779,2.0034,2.0049,2.0049,2.0049,1.8425,1.8097,1.9615,1.8022,1.7792,1.9346,1.9275,1.8444,1.6944,1.6151,1.5596,1.5229,1.4858,1.4698,1.4698,1.5096,1.541,1.5632,1.6008,1.6785,1.7948,1.9464,1.9905,1.9771,2.0964,2.0697,1.9634,1.9455,1.9967,2.0775,0.0,0.0,0.0,0.0,0.0,0.0,0.0,0.0,0.0,0.0,0.0,0.0,0.0,0.0,1.2784,1.2767,1.2204,1.2204,1.3089,1.1484,1.0885,1.1728,1.064,0.999,0.9971,1.0242,0.0,0.0,0.0,0.0,0.0,1.0434,1.0458,1.0727,1.4397,1.4154,0.0,0.0,0.0,0.8408,0.0,0.0,0.6854,0.0,0.0,0.0,0.0,0.0,0.0,0.8346,0.7616,0.7218,0.8229,0.7914,0.0,0.0,0.0,0.0,0.0,0.0,0.0,0.0,0.0,0.0,0.0,0.0,0.0,0.0,0.0,0.0,0.0,0.0,0.0,0.0,0.0,1.8638,1.9337,1.9281,1.9281,1.9639,1.969,1.969,1.969,1.969,1.969,1.969,1.7993,0.0,1.9585,1.7963,1.7733,1.9398,1.8893,1.8196,1.7246,1.6689,1.6232,1.5816,1.5487,1.5287,1.5332,1.5732,1.5908,1.5908,1.6337,1.714,1.8242,1.9135,1.9293,1.9079,2.0351,2.0083,1.9021,1.9409,2.0284,2.1325,0.0,0.0,0.0,0.0,0.0,0.0,0.0,0.0,0.0,0.0,0.0,0.0,0.0,0.0,0.0,1.2786,1.2748,1.3118,1.3975,1.2469,1.1873,1.2661,1.1087,1.0156,1.0075,1.0887,0.0,0.0,0.0,0.0,0.0,0.0,1.0468,0.8969,1.1513,1.3817,1.5841,0.0,1.5683,1.4918,0.0,1.2994,1.0017,0.0,0.0,0.0,0.9794,0.9522,0.0,1.1209,0.0,0.0,0.0,0.0,0.0,0.0,0.0,0.0,0.0,0.0,0.0,0.0,0.0,0.0,0.0,0.0,0.0,0.0,0.0,0.0,0.0,0.0,0.0,0.0,0.0,1.893,1.893,1.9369,1.969,1.969,1.969,1.969,1.969,1.969,1.969,1.969,1.9615,1.96,1.969,1.969,1.9442,1.8893,1.838,1.7867,1.7353,1.6795,1.6522,1.6552,1.6522,1.6522,1.6522,1.6522,1.6522,1.6522,1.6522,1.7118,1.8068,1.8257,1.8542,1.8905,1.9039,1.9063,1.8983,1.8995,1.9808,2.0845,0.0,0.0,0.0,0.0,0.0,0.0,0.0,0.0,0.0,0.0,0.0,0.0,0.0,0.0,1.4593,1.4585,1.3964,1.3964,1.4874,1.3335,1.2477,1.2683,1.1095,0.9889,0.9248,0.946,0.0,0.0,0.0,0.0,0.0,0.0,0.0,0.0,1.0068,1.1223,1.1823,1.4334,0.0,0.0,1.533,1.2333,0.0,0.0,0.0,0.0,0.0,1.1368,1.1776,0.0,1.1165,0.9151,0.0,0.0,0.0,0.0,0.0,0.0,0.5504,0.0,0.0,0.0,0.0,0.0,0.0,0.0,0.0,0.0,0.0,0.0,0.0,0.0,0.0,0.0,0.0,1.9479,1.9479,1.9603,1.969,1.969,1.969,1.969,1.969,1.969,1.969,0.0,1.7858,1.7605,1.9585,1.9332,1.8893,1.8341,1.8185,1.8027,1.7867,1.7353,1.7271,1.7666,1.7271,1.7076,1.7076,1.7076,1.6879,1.6522,1.6522,1.6879,1.7557,1.8102,1.8355,1.8462,1.9396,1.9426,1.907,1.9447,2.039,2.139,0.0,0.0,0.0,0.0,0.0,0.0,0.0,0.0,0.0,0.0,0.0,0.0,0.0,0.0,1.4887,1.5234,1.4786,1.4709,1.5253,1.3682,1.273,1.2748,1.1112,0.9789,0.8921,0.9229,0.9402,0.0,0.0,0.0,0.0,0.0,0.0,0.0,0.0,0.0,0.0,0.0,0.0,0.0,1.4237,0.0,0.0,1.3047,1.2982,0.0,0.0,0.0,1.4117,1.5463,1.4199,0.0,0.0,0.0,0.0,0.0,0.0,0.0,0.0,0.0,0.0,0.0,0.0,0.0,0.6301,0.8745,0.0,0.0,0.0,0.0,0.0,0.0,0.0,0.0,0.0,1.8335,1.9525,1.969,1.969,1.969,1.969,1.969,1.969,1.969,1.969,1.969,1.8235,1.7926,1.928,1.8855,1.8341,1.7787,1.7787,1.7666,1.7422,1.7105,1.7229,1.7747,1.7463,1.7435,1.7626,1.7626,1.7353,1.6837,1.6837,1.6879,1.6976,1.7385,1.7813,1.8271,1.8962,1.9147,1.9033,1.961,2.0607,2.1615,0.0,0.0,0.0,0.0,0.0,0.0,0.0,0.0,0.0,0.0,0.0,0.0,0.0,0.0,0.0,0.0,1.5195,1.5297,1.5295,1.3908,1.3031,1.2944,1.1263,0.9925,0.9056,0.9556,0.9863,0.9963,0.0,0.0,0.0,0.0,0.0,0.0,0.0,0.0,0.0,0.0,0.0,1.3424,1.2367,1.3331,0.0,0.0,1.4541,1.3164,1.5898,1.6208,1.5773,1.8773,1.8218,0.0,0.0,0.0,0.0,0.0,1.0215,0.0,0.0,0.0,0.0,0.0,0.0,0.0,0.6434,0.9284,1.2167,0.0,0.0,0.0,0.0,0.0,0.0,0.0,0.0,1.592,1.8728,1.945,1.957,1.9271,1.951,1.969,1.969,1.969,1.969,1.969,1.9639,1.9369,1.8855,1.8302,1.7787,1.7229,1.7188,1.6993,1.6522,1.6552,1.6879,1.7394,1.7504,1.7773,1.8185,1.8249,1.7933,1.7394,1.7353,1.7034,1.6595,1.6522,1.714,1.81,1.8088,1.8493,1.9083,1.9636,2.0604,2.1615,1.3484,0.0,0.0,0.0,0.0,0.0,0.0,0.0,0.0,0.0,0.0,0.0,0.0,0.0,0.0,0.0,1.4805,1.5245,1.5306,1.5001,1.4493,1.381,1.2146,1.0811,0.9883,0.8697,0.8431,0.9127,0.0,0.0,0.0,0.0,0.0,0.0,0.0,0.0,0.0,0.0,0.0,1.0168,1.2078,0.0,1.3111,1.5068,1.3765,1.1544,1.6359,1.7215,1.6325,1.7826,1.8129,1.7307,0.0,0.0,0.0,0.9053,0.0,0.0,0.0,0.0,0.0,0.0,0.0,0.0,0.7636,0.8488,0.9598,0.0,0.0,0.0,0.0,0.0,0.0,0.0,0.0,1.2755,1.5095,1.79,1.8847,1.6511,1.8306,1.969,1.969,1.969,1.969,1.969,1.9281,1.8817,1.8302,1.7747,1.7188,1.668,1.668,1.6595,1.6522,1.6909,1.7435,1.7947,1.876,1.8999,1.8765,1.9148,1.8797,1.7907,1.7504,1.7229,1.7118,1.668,1.6935,1.7568,1.7546,1.8154,1.9082,1.9733,2.0697,2.1697,1.4032,0.0,0.0,0.0,0.0,0.0,0.0,0.0,0.0,0.0,0.0,0.0,0.0,0.0,0.0,0.0,0.0,0.0,0.0,0.0,1.4047,1.3995,1.2776,1.1477,1.0133,0.8876,0.8665,0.9548,0.0,0.0,0.0,0.0,0.0,0.0,0.0,0.0,0.0,0.0,0.7649,0.9763,1.1187,0.0,1.2878,1.4996,1.4796,1.3791,1.7177,1.8626,1.8926,1.8839,1.8892,0.0,0.0,1.4673,1.2831,0.0,0.9538,0.8676,0.0,0.0,0.0,0.6513,0.0,0.0,0.0,0.91,1.0227,1.0363,1.0979,1.1168,1.0114,0.0,0.0,1.0167,0.9721,0.9522,1.0165,1.4173,1.6914,1.6588,1.7829,1.8837,1.9166,1.9196,1.9209,1.9303,1.8817,1.8263,1.7747,1.7188,1.6795,1.6522,1.6522,1.6637,1.6909,1.7146,1.7814,1.8835,1.9353,1.9728,1.9939,2.0181,1.9783,1.8835,1.8555,1.7985,1.7271,1.6993,1.6931,1.6974,1.7262,1.789,1.8654,1.9282,2.0032,2.0854,1.4488,0.0,0.0,0.0,0.0,0.0,0.0,0.0,0.0,0.0,0.0,0.0,0.0,0.0,0.0,0.0,0.0,0.0,0.0,0.0,0.0,1.3903,1.3301,1.2252,1.0816,0.9867,0.9737,1.0452,0.0,0.0,0.0,0.0,0.0,0.0,0.0,0.0,0.0,0.0,0.0,1.1216,0.0,1.1841,1.2839,1.5111,1.5902,1.6041,1.7943,1.9876,2.1316,2.002,1.958,1.9585,1.9433,1.7146,0.0,0.0,0.0,0.0,0.0,0.0,0.0,0.0,0.0,0.8875,0.0,0.0,0.0,1.0279,1.1207,0.0,0.0,0.0,0.0,0.0,0.0,0.0,0.0,1.014,0.0,1.5684,1.6233,1.6723,1.7518,1.7787,1.8121,1.8671,1.8198,1.7745,1.7299,1.6795,1.6522,1.6522,1.6595,1.6879,1.7312,1.7504,1.826,1.9606,1.9783,2.0249,2.0991,2.1086,2.0601,1.9728,1.9656,1.8821,1.7585,1.7504,1.7188,1.6846,1.7125,1.7551,1.8134,1.8773,1.9381,2.0014,1.4488,1.408,0.0,0.0,0.0,1.103,0.9998,0.0,0.0,0.0,0.0,0.0,0.0,0.0,0.0,0.0,0.0,0.0,1.3067,0.0,0.0,0.0,1.3719,1.3597,1.3204,1.1891,1.1243,1.1343,0.0,0.0,0.0,0.0,0.0,0.0,1.0057,0.0,0.0,0.0,1.3755,0.0,1.4599,1.3053,0.0,1.5152,1.5535,1.44,1.8067,2.019,2.1042,0.0,1.936,1.9266,0.0,1.5759,1.4187,1.2585,0.0,0.0,0.0,0.0,0.0,0.0,0.9196,0.0,0.0,0.0,0.8866,0.7895,0.0,0.0,0.0,0.0,0.0,0.0,0.0,0.0,0.7142,0.74,0.7863,0.9365,1.0905,1.2303,1.3454,1.4471,1.5903,1.7849,1.753,1.7231,1.7286,1.6795,1.6522,1.6522,1.6951,1.7229,1.7312,1.8263,1.9014,1.9621,2.0434,2.0894,2.0991,2.1368,2.1054,2.0212,1.9798,1.9259,1.8688,1.8224,1.7987,1.7827,1.6944,1.6974,1.7599,1.8692,1.9445,2.0045,1.4488,1.3947,0.0,0.0,0.0,1.0801,0.9839,0.0,0.0,0.0,0.0,0.0,0.0,0.0,0.0,0.0,0.0,1.5268,0.0,0.0,0.0,0.0,0.0,0.0,1.3143,1.2558,1.2252,1.2251,1.1805,0.0,0.0,0.0,0.0,0.0,1.0235,0.0,1.1947,0.0,1.3202,0.0,0.0,0.0,0.0,1.6138,1.752,1.7699,1.7962,1.9774,2.1617,0.0,1.9608,0.0,0.0,0.0,0.0,0.0,0.0,0.0,0.0,0.0,0.0,0.0,0.0,0.0,1.1409,0.0,0.8767,0.0,0.0,0.0,0.0,0.0,0.0,0.0,0.3926,0.0,0.0,0.0,0.6157,0.0,0.0,0.0,1.3661,1.3327,1.4062,1.6717,1.6005,1.5554,1.5717,1.6217,1.6522,1.6522,1.7034,1.7463,1.7747,1.8535,1.9419,2.0434,2.0813,2.126,2.1751,2.1945,2.1538,2.0698,2.0501,1.9834,1.8893,1.865,1.838,1.8066,1.7585,1.7581,1.7849,1.8357,1.8847,1.949,1.3908,0.0,0.0,0.0,0.0,0.0,0.0,0.0,0.0,0.0,0.0,0.0,1.3556,1.2961,0.0,0.0,1.5882,1.5924,0.0,0.0,1.4764,0.0,0.0,0.0,0.0,0.0,1.2815,1.2823,0.0,0.0,0.0,0.0,0.0,0.0,0.0,1.1298,1.2301,0.0,1.402,1.6078,1.5889,1.5788,1.5889,1.7159,1.8673,1.996,1.8631,1.9929,2.1804,1.8592,1.9777,0.0,1.9607,0.0,1.7894,0.0,0.0,0.0,1.3482,0.0,0.0,0.0,0.0,0.0,0.0,0.0,0.0,0.0,0.0,0.0,0.0,0.0,0.0,0.0,0.0,0.4463,0.0,0.3928,0.0,0.0,0.0,0.0,0.0,1.1589,1.2097,1.4702,1.437,1.4208,1.4577,1.5794,1.6552,1.671,1.7229,1.7787,1.8302,1.8977,1.9849,2.0991,2.1118,2.1554,2.231,2.231,2.1886,2.115,2.115,2.0534,1.9492,1.9492,1.9185,1.8684,1.8545,1.8521,1.8535,1.838,1.8574,1.904,1.241,1.2873,0.0,0.0,0.0,0.0,0.0,0.0,0.0,0.0,0.0,0.0,0.0,0.0,0.0,0.0,0.0,1.5431,1.6239,0.0,1.649,0.0,0.0,1.4074,0.0,0.0,0.0,0.0,0.0,0.0,0.0,0.0,0.0,0.0,0.0,1.2426,1.3478,1.6688,1.8485,1.9257,2.0461,2.0959,2.0654,0.0,1.7774,1.9147,2.056,0.0,0.0,1.99,1.9597,0.0,0.0,0.0,0.0,0.0,0.0,0.0,0.0,0.0,0.0,1.4064,0.0,0.0,0.0,0.0,0.9128,0.0,0.0,0.0,0.0,0.0,0.0,0.0,0.0,0.0,0.0,0.0,0.0,0.0,0.0,0.0,0.0,0.8228,0.9731,1.1512,1.2757,1.378,1.455,1.5794,1.6752,1.7271,1.7787,1.8341,1.8855,1.9778,2.0516,2.0991,2.1399,2.1823,2.231,2.231,2.2032,2.1582,2.1582,2.1337,2.0926,2.0926,2.0649,2.0196,1.9728,1.9579,1.9603,1.908,1.8893,1.8968,0.0,0.0,0.0,0.0,0.0,0.0,0.0,1.1473,0.0,0.0,0.0,0.0,0.0,1.78,1.7409,0.0,0.0,1.8871,1.8243,1.8027,0.0,0.0,0.0,1.6009,0.0,0.0,0.0,0.0,0.0,0.0,0.0,0.0,0.0,0.0,0.0,1.3105,0.0,0.0,0.0,0.0,0.0,1.9631,1.9135,0.0,1.9881,2.116,2.1177,2.1764,0.0,2.0308,2.0992,2.2406,2.1066,1.9997,1.9769,2.2226,2.012,1.7374,0.0,0.0,1.922,1.7926,0.0,0.0,0.0,0.0,0.0,0.0,0.0,0.0,0.0,0.0,0.0,0.0,0.0,0.0,0.0,0.0,0.0,0.0,0.0,0.0,0.0,0.0,0.7248,1.0768,1.0046,1.0245,1.2129,1.4488,1.5864,1.6032,1.7292,1.8275,1.8878,1.944,2.0127,2.0991,2.1399,2.1853,2.231,2.231,2.2032,2.1582,2.1582,2.1368,2.0991,2.0991,2.0894,2.0764,2.0601,2.0348,1.9984,1.9177,1.9132,1.9479,1.2593,0.0,0.0,0.0,0.0,0.0,0.0,0.0,0.0,0.0,1.6729,0.0,2.0744,0.0,1.9682,0.0,1.9631,1.9676,2.0264,1.8375,0.0,2.0281,1.8091,0.0,0.0,0.0,0.0,0.0,0.0,1.2773,0.0,0.0,0.0,0.0,0.0,1.2604,1.3149,1.5328,1.701,0.0,0.0,1.9419,0.0,0.0,2.0663,2.187,0.0,2.222,2.2816,2.1414,2.2311,2.3781,2.237,2.1892,2.2134,2.3731,2.2002,1.9911,2.15,2.1924,0.0,2.0318,1.9048,0.0,1.6375,0.0,1.1048,0.0,0.0,0.0,0.0,0.0,0.0,0.0,0.0,0.0,0.0,0.4867,0.0,0.0,0.0,0.0,0.0,0.5741,0.5892,0.7936,0.7984,0.8674,1.0486,1.329,1.496,1.5318,1.6626,1.7763,1.8652,1.9269,2.0019,2.0841,2.1513,2.2003,2.231,2.231,2.2135,2.1853,2.1853,2.1705,2.1462,2.1462,2.1354,2.1213,2.1213,2.0943,2.0483,1.9869,1.9864,2.0208,0.0,0.0,0.0,0.0,1.1807,0.0,0.0,0.0,1.6701,0.0,1.9906,2.0442,2.2392,2.0309,1.9416,2.1042,1.8253,1.8006,2.1739,1.8145,0.0,0.0,1.8269,1.7077,1.9321,0.0,0.0,0.0,0.0,0.0,0.0,0.0,0.0,0.0,1.1241,0.0,1.0621,1.4607,1.6358,1.6583,1.8455,2.0378,2.1933,2.0036,2.0125,2.1383,2.2067,2.25,2.2772,2.3117,2.3455,2.3774,2.4094,2.419,2.419,2.419,2.419,2.419,2.419,2.419,2.3602,2.1238,2.0372,0.0,0.0,0.0,1.5904,0.0,0.0,0.0,0.0,0.0,0.0,0.0,0.0,0.0,0.0,0.0,0.0,0.0,0.0,0.0,0.0,0.5688,0.5651,0.3564,0.6728,0.9081,0.0,1.2263,1.4114,1.5153,1.5816,1.6838,1.8207,1.9321,2.0078,2.0496,2.1709,2.231,2.231,2.231,2.231,2.231,2.231,2.231,2.231,2.231,2.2032,2.1628,2.1628,2.1399,2.1071,2.1039,2.1023,2.1039,1.3157,1.3073,1.3201,0.0,1.3659,1.4549,0.0,0.0,0.0,0.0,2.1461,2.2652,2.2678,2.3326,2.2279,1.8676,1.8944,0.0,0.0,0.0,0.0,2.2175,2.1191,2.0492,2.0261,1.8586,0.0,1.7599,0.0,0.0,1.3613,0.0,0.0,0.0,0.0,0.0,1.1426,1.485,1.7117,1.8387,1.7657,1.841,1.9973,0.0,2.0772,2.2324,2.253,2.2815,2.3117,2.3459,2.3795,2.4094,2.417,2.419,2.419,2.419,2.419,2.419,2.419,2.4016,2.3671,2.3037,2.1341,1.964,0.0,0.0,0.0,0.0,0.0,0.0,0.0,0.0,0.0,0.0,0.0,0.0,0.0,0.0,0.0,0.5959,0.0,0.0,0.4925,0.5167,0.5689,0.635,0.7527,0.8957,1.0672,0.0,1.2538,1.4953,1.4521,1.5492,1.8177,1.8146,1.8937,2.0496,2.1709,2.231,2.231,2.231,2.231,2.231,2.231,2.231,2.231,2.231,2.2237,2.2106,2.2106,2.2049,2.1886,2.1229,2.1359,2.1778,1.384,0.0,0.0,1.2839,0.0,0.0,1.7029,0.0,0.0,2.1566,2.2616,0.0,2.391,2.4662,2.3879,2.0707,1.9286,0.0,1.8857,0.0,0.0,2.2169,2.1805,2.1068,2.004,1.9531,0.0,1.8331,0.0,0.0,1.5126,0.0,0.0,0.0,0.0,1.1143,1.1745,1.5478,1.8186,1.9886,1.8702,1.9312,0.0,2.0222,2.1118,2.2721,2.2873,2.3141,2.3414,2.3477,2.3795,2.419,2.419,2.419,2.419,2.419,2.419,2.419,2.419,2.3955,2.3692,2.3692,2.2331,2.1008,2.1008,1.9521,1.8113,0.0,1.7186,1.6144,0.0,0.0,0.0,0.0,0.0,0.0,0.0,0.0,0.0,0.0,0.7297,0.0,0.555,0.5824,0.6185,0.6381,0.7176,0.8152,0.9288,0.0,1.156,1.3131,1.3187,1.4076,1.5924,1.5665,1.692,1.9629,2.0643,2.1686,2.2686,2.2527,2.249,2.2463,2.2349,2.231,2.231,2.231,2.236,2.249,2.249,2.2603,2.2676,2.1867,2.1831,2.2158,0.0,0.0,0.0,0.0,0.0,0.0,0.0,1.9679,0.0,2.3857,0.0,2.3574,2.506,2.4777,2.4354,2.3977,0.0,1.8193,2.1664,1.7577,1.7201,2.2084,2.13,2.0406,1.971,1.9646,1.9629,0.0,0.0,0.0,0.0,0.0,0.0,0.0,0.0,0.0,0.0,1.6113,1.8892,2.0849,2.0426,2.1274,2.2633,2.1153,2.1505,2.2797,2.3014,2.3323,2.3606,2.3346,2.3692,2.419,2.419,2.419,2.419,2.419,2.419,2.419,2.419,2.3955,2.3692,2.3692,2.3189,2.2695,2.2695,2.25,2.231,2.231,2.1661,2.0747,1.9609,0.0,0.0,0.0,0.0,0.0,0.0,0.0,0.0,0.0,0.0,0.0,0.6256,0.6864,0.6779,0.5421,0.6507,0.7368,0.7649,0.0,1.0913,1.1037,1.2046,1.2857,1.3438,1.3256,1.51,1.8906,1.9383,2.0855,2.3189,2.2848,2.2695,2.2712,2.2426,2.231,2.231,2.231,2.2453,2.266,2.266,2.2894,2.3173,2.2547,2.231,2.231,0.0,0.0,0.0,0.0,0.0,1.6594,2.1347,2.338,2.4064,2.3127,2.4235,2.4607,2.3325,2.3984,2.3595,2.1317,2.0229,0.0,0.0,0.0,0.0,2.2175,2.2095,2.1915,2.1782,2.1769,2.1769,0.0,0.0,0.0,0.0,0.0,0.0,0.0,0.0,0.0,1.6797,1.59,0.0,2.0373,2.0537,2.0654,2.0858,2.2176,2.2876,2.3045,2.2624,2.2824,2.3323,2.3544,2.3858,2.419,2.419,2.419,2.419,2.419,2.419,2.419,2.419,2.3955,2.3692,2.3692,2.3189,2.2695,2.2695,2.25,2.231,2.231,2.1869,2.1061,1.9655,0.0,0.0,0.0,0.0,0.0,0.0,0.0,0.0,0.0,0.0,1.0133,0.0,0.6384,0.6656,0.7027,0.7296,0.8394,1.0532,0.0,1.0026,0.0,1.174,1.2807,0.0,0.0,1.6416,2.1051,2.0074,2.0855,2.3189,2.2848,2.2738,2.2764,2.2443,2.231,2.231,2.231,2.2321,2.236,2.236,2.2434,2.2496,2.2361,2.231,2.231,0.0,0.0,0.0,0.0,0.0,0.0,0.0,2.4274,2.6131,2.4423,2.5023,2.5079,2.3785,2.4168,2.382,2.2105,2.0778,2.0324,2.098,2.0192,2.0622,2.2669,2.2773,2.2219,2.1033,2.2175,2.2194,2.0998,0.0,0.0,0.0,0.0,0.0,0.0,0.0,1.5507,0.0,0.0,0.0,2.1161,2.2131,2.2409,2.2373,2.3156,2.3346,2.3141,2.2652,2.2704,2.2996,2.3346,2.3671,2.3976,2.4151,2.419,2.419,2.419,2.419,2.419,2.419,2.3955,2.3671,2.3482,2.3189,2.2873,2.2563,2.25,2.2463,2.2321,2.1928,2.0918,1.8676,1.6786,0.0,0.0,0.0,0.0,0.0,0.0,1.2907,0.0,0.0,0.0,0.0,0.0,0.0,0.0,0.0,0.8703,0.0,0.0,1.0618,0.0,0.0,0.0,1.6329,0.0,1.6835,2.1024,2.0387,2.1363,2.3692,2.3189,2.2989,2.2982,2.2525,2.231,2.231,2.2436,2.2426,2.2293,2.2436,2.2426,2.231,2.231,2.231,2.231,0.0,1.5859,0.0,0.0,1.7629,0.0,2.097,2.4413,2.6673,2.593,2.5558,2.5203,2.4763,2.4472,2.3943,2.3096,2.1538,2.0947,2.1773,2.1212,2.1409,2.2668,2.3035,2.2352,2.0565,2.2293,2.2317,0.0,0.0,0.0,0.0,0.0,0.0,0.0,0.0,0.0,0.0,0.0,2.2155,2.2491,2.3713,2.4151,2.4054,2.3714,2.3392,2.3045,2.2738,2.2608,2.266,2.3069,2.3414,2.3774,2.4094,2.419,2.419,2.419,2.419,2.4209,2.4266,2.4037,2.3735,2.3424,2.3351,2.3159,2.2624,2.2652,2.2738,2.2453,2.1969,2.0858,1.8372,1.7615,0.0,0.0,0.0,0.0,0.0,0.0,0.0,0.0,0.0,0.0,1.1749,0.0,0.0,0.0,0.0,0.0,0.9622,0.0,0.0,0.0,0.0,1.4435,1.6358,0.0,1.7109,2.1168,2.0674,2.1716,2.4074,2.3392,2.3093,2.3069,2.2517,2.231,2.2338,2.2527,2.2473,2.2321,2.2537,2.249,2.231,2.231,2.231,2.231,0.0,0.0,0.0,0.0,0.0,0.0,2.5462,2.4906,2.4709,2.6369,2.5423,2.4814,2.5439,2.4306,2.3039,2.1863,2.2825,2.2258,1.9273,2.1476,2.2411,2.1268,2.2495,2.3112,2.2893,2.3088,2.3094,0.0,0.0,2.0624,0.0,0.0,0.0,0.0,0.0,0.0,0.0,2.1842,2.2774,2.3988,2.4135,2.4016,2.3714,2.3369,2.3045,2.2695,2.2453,2.2349,2.2443,2.3014,2.3414,2.3774,2.4094,2.419,2.419,2.419,2.419,2.4247,2.4409,2.4321,2.4114,2.3967,2.3806,2.3566,2.3206,2.3159,2.3069,2.2721,2.2102,2.1332,2.0438,1.9906,1.8733,0.0,0.0,0.0,0.0,0.0,1.415,1.5067,0.0,0.0,1.3563,1.2401,1.1415,1.0967,1.0391,0.0,0.0,0.0,0.0,1.2851,1.2943,1.4121,1.6562,1.5468,1.7783,2.3373,2.1184,2.1401,2.3714,2.3045,2.2746,2.2721,2.2426,2.231,2.231,2.2338,2.2321,2.231,2.2321,2.2321,2.231,2.231,2.231,2.231,0.0,0.0,0.0,0.0,0.0,0.0,0.0,2.6666,2.7073,2.765,2.6602,2.5761,2.5625,2.5285,2.4614,2.3431,2.4033,2.3815,2.2184,2.3142,2.3547,2.2933,2.3492,2.3714,2.3482,2.3692,2.3692,0.0,0.0,0.0,0.0,0.0,0.0,0.0,0.0,2.1054,2.1993,2.2941,2.3656,2.419,2.419,2.3996,2.3671,2.3346,2.2996,2.2643,2.2415,2.231,2.2388,2.2989,2.33,2.3482,2.4016,2.419,2.419,2.419,2.4284,2.441,2.4478,2.4528,2.4508,2.4242,2.4279,2.4227,2.368,2.3719,2.3779,2.3437,2.2834,2.235,2.2186,2.1436,2.0333,1.877,0.0,0.0,0.0,0.0,0.0,1.9265,0.0,1.7141,1.7516,1.5703,1.4078,1.3046,0.0,0.0,0.0,0.0,0.0,1.5163,0.0,1.7012,2.0807,1.8815,1.9758,2.3692,2.2529,2.2478,2.3392,2.2923,2.2625,2.2436,2.2349,2.231,2.231,2.249,2.2537,2.2563,2.2773,2.2849,2.2849,2.2849,2.2849,2.2824,2.8975,0.0,2.5046,0.0,2.6853,2.6944,2.6352,2.7842,2.8664,2.7692,2.7276,2.6862,2.633,2.6536,2.6179,2.4757,2.4913,2.4567,2.3386,2.3767,2.3894,2.3529,2.3952,0.0,2.3837,2.4074,2.4094,2.3855,2.1943,0.0,0.0,0.0,0.0,0.0,2.1909,2.2589,2.2649,2.3731,2.419,2.419,2.419,2.3996,2.3671,2.3346,2.2996,2.2643,2.2415,2.231,2.2377,2.289,2.3045,2.3189,2.3976,2.419,2.4209,2.4266,2.4393,2.451,2.462,2.4666,2.4682,2.4535,2.4606,2.461,2.4204,2.4284,2.4362,2.4036,2.3513,2.314,2.3275,2.2582,2.162,2.046,0.0,0.0,0.0,1.8841,0.0,2.1419,1.9563,1.8641,1.9874,1.7622,1.5761,1.5034,0.0,0.0,0.0,0.0,0.0,0.0,0.0,0.0,2.1749,1.9808,2.0463,2.3692,2.3046,2.2735,2.2711,2.2166,2.1926,2.1972,2.1972,2.2107,2.2304,2.2332,2.2504,2.2703,2.2799,2.2994,2.3189,2.3189,2.3189,2.3165,3.2247,3.1529,3.1207,3.2805,3.2059,3.0198,2.7157,2.7996,2.8209,2.592,2.6943,2.7897,2.788,2.7936,2.7165,2.5161,2.5296,2.4199,2.1148,2.2685,2.3171,0.0,0.0,2.419,2.419,2.419,2.419,2.419,0.0,0.0,2.1865,0.0,2.1865,2.1947,2.3469,2.4172,2.4172,2.419,2.419,2.419,2.419,2.3996,2.3671,2.3346,2.2996,2.2643,2.2415,2.231,2.2349,2.2625,2.2721,2.2873,2.3896,2.419,2.4247,2.4445,2.4495,2.4575,2.4892,2.4747,2.4572,2.4924,2.4752,2.4561,2.4749,2.479,2.4711,2.4452,2.397,2.3562,2.3509,2.3307,2.2517,2.0525,0.0,0.0,0.0,1.8405,0.0,1.99,1.6335,1.5415,1.9586,1.6974,0.0,0.0,0.0,0.0,0.0,0.0,0.0,1.4484,1.2601,0.0,1.7237,1.6923,1.9069,2.3674,2.2289,2.1628,2.1593,2.0517,2.0467,2.1221,2.1221,2.1617,2.2243,2.1747,2.1986,2.2634,2.2195,2.2511,2.3189,2.3189,2.3189,2.3189,2.7068,2.8978,3.0602,2.9971,3.0004,3.0058,2.9887,2.9817,2.9463,2.846,2.9474,2.9875,2.876,2.8412,2.7932,0.0,2.5073,2.4014,0.0,2.2667,2.2207,2.3419,2.1801,2.0849,2.0849,2.0849,2.0849,2.0849,0.0,0.0,0.0,2.189,2.2468,2.3487,2.3971,2.419,2.419,2.419,2.419,2.419,2.419,2.3858,2.3346,2.3236,2.2883,2.2426,2.2321,2.231,2.2349,2.2625,2.2695,2.2848,2.361,2.3876,2.3939,2.4373,2.4591,2.4741,2.4949,2.4924,2.4872,2.4967,2.4924,2.4854,2.4925,2.504,2.5054,2.4742,2.461,2.4517,2.4405,2.4211,2.3525,2.1834,2.2372,0.0,2.0989,0.0,2.075,2.1426,1.9419,1.8962,2.1464,1.9163,0.0,0.0,0.0,0.0,0.0,0.0,0.0,0.0,1.8372,0.0,2.2154,1.9895,2.0046,2.2607,2.1725,2.1054,2.05,2.0154,2.0137,2.0382,2.0382,2.062,2.1044,2.1651,2.1834,2.1854,2.3048,2.3313,2.3131,2.3676,2.3876,2.3837,2.7105,2.8883,3.0331,2.9588,2.9896,3.0115,2.9674,2.9963,2.9813,2.8694,2.9692,3.0228,2.9549,2.8956,0.0,2.7745,2.5556,2.4616,2.5533,2.3227,2.2538,2.4135,2.2226,2.1143,2.1143,2.1143,0.0,2.1143,2.2235,2.2753,2.2753,2.2753,2.3277,2.419,2.419,2.419,2.419,2.419,2.419,2.419,2.4074,2.3774,2.3369,2.3117,2.2781,2.2453,2.2349,2.231,2.2338,2.25,2.2625,2.2797,2.3346,2.3656,2.3925,2.4458,2.47,2.4861,2.5053,2.5065,2.5022,2.5099,2.5072,2.5039,2.5063,2.5143,2.5172,2.4956,2.4939,2.4936,2.4889,2.4689,2.4198,2.3226,2.3523,2.3637,2.2963,0.0,2.1821,0.0,0.0,2.0315,0.0,2.0795,1.9777,0.0,0.0,0.0,0.0,0.0,1.8747,1.9955,1.9507,2.0202,2.2234,1.9992,1.9788,2.1635,2.0766,1.9925,1.9174,1.9042,1.9144,1.9387,1.9387,1.9647,2.0101,2.079,2.1086,2.1245,2.2279,2.2813,2.307,2.3566,2.3787,2.3787,3.0613,3.0393,3.032,0.0,3.1146,0.0,2.7481,2.885,2.943,2.7243,2.8206,2.9384,3.0044,2.9457,2.8534,2.7399,0.0,0.0,2.5073,2.406,2.3715,2.419,2.3969,2.3859,2.3859,2.3859,2.3969,2.419,2.419,2.419,2.419,2.419,2.419,2.419,2.419,2.419,2.419,2.419,2.419,2.417,2.3837,2.3692,2.3628,2.2972,2.2746,2.2712,2.2426,2.2321,2.2321,2.231,2.249,2.2772,2.3093,2.3581,2.4118,2.4648,2.4804,2.4902,2.5222,2.5152,2.5053,2.5243,2.5198,2.5119,2.5154,2.5126,2.5092,2.5092,2.4989,2.4937,2.5013,2.4824,2.4607,2.4561,2.4375,2.4266,2.4323,2.2952,2.2064,2.2377,0.0,0.0,2.235,2.1954,2.1749,0.0,0.0,0.0,0.0,0.0,1.6435,1.8189,1.7298,1.7434,1.8745,1.8021,1.8689,2.0756,1.943,1.843,1.7766,1.7482,1.7716,1.8358,1.8358,1.8762,1.9439,1.932,1.9852,2.0717,2.046,2.1371,2.2813,2.2942,2.3048,2.3124,0.0,0.0,2.8962,2.7915,2.876,2.9586,2.9692,3.0142,3.0031,2.8658,2.9499,2.9971,2.9342,2.9104,2.8534,2.7399,2.5168,2.4502,2.6106,2.318,2.2243,2.4116,2.1804,2.0446,2.0446,2.0446,2.1675,2.419,2.419,2.419,2.419,2.419,2.419,2.419,2.419,2.419,2.419,2.419,2.419,2.417,2.3837,2.3692,2.3649,2.3236,2.3069,2.3045,2.2712,2.2599,2.2573,2.236,2.249,2.2772,2.3093,2.3581,2.4118,2.4648,2.4864,2.4986,2.5243,2.5152,2.503,2.5113,2.5117,2.507,2.4923,2.4966,2.4993,2.4888,2.4974,2.5125,2.5349,2.5168,2.4984,2.4959,2.4798,2.4162,2.2791,2.2459,2.1902,0.0,2.1263,2.2009,2.2479,2.3495,2.3381,0.0,0.0,2.0681,2.0834,2.0303,2.0815,2.2554,2.2092,2.1663,2.14,2.0517,1.9843,1.9367,1.8229,1.7581,1.7408,1.7594,1.7776,1.7936,1.7936,1.8294,1.8876,1.8965,1.9057,1.9351,2.127,2.155,2.1043,2.2465,2.2697,2.2287,2.5326,2.72,2.8718,2.786,2.8723,2.9622,2.9843,3.0173,3.0081,2.9104,2.9512,2.9457,2.8388,2.87,2.8453,2.7091,2.5583,2.5016,2.5783,2.3602,2.2866,2.4135,2.2483,2.1528,2.1528,2.1528,2.2409,2.419,2.419,2.419,2.419,2.419,2.419,2.419,2.419,2.419,2.419,2.419,2.419,2.417,2.3837,2.3692,2.3671,2.3346,2.3093,2.2947,2.2772,2.2625,2.25,2.2349,2.2581,2.2972,2.3141,2.3731,2.4416,2.4712,2.4891,2.5034,2.5253,2.5233,2.5217,2.531,2.5273,2.5195,2.5021,2.4943,2.491,2.4903,2.4953,2.5103,2.5403,2.531,2.5189,2.5143,2.4258,2.3237,2.2304,2.1643,2.121,2.1083,2.209,2.3056,2.3724,2.4638,2.4607,2.3227,2.2077,0.0,2.2597,2.1937,2.1971,2.287,2.2951,2.2382,2.1167,2.0299,1.9282,1.8157,1.7574,1.7224,1.7068,1.7427,1.7393,1.7137,1.7452,1.7593,1.7648,1.7995,1.8172,1.8339,1.9964,2.0358,2.0152,2.1298,2.153,2.1285,2.8994,2.8994,2.8994,2.8994,2.9567,2.9787,2.9085,2.9586,2.9769,2.9085,2.8994,2.8645,2.775,2.8168,2.8022,2.6833,2.6539,2.6012,2.5045,2.4492,2.419,2.419,2.419,2.419,2.419,2.419,2.419,2.419,2.4228,2.4228,2.419,2.4228,2.4228,2.419,2.419,2.419,2.419,2.419,2.419,2.417,2.3837,2.3714,2.3735,2.3346,2.3045,2.2848,2.2746,2.2563,2.2332,2.2293,2.266,2.3141,2.3189,2.3892,2.4723,2.479,2.4917,2.5088,2.5283,2.537,2.5467,2.5558,2.5508,2.5366,2.5224,2.4981,2.4842,2.4974,2.4947,2.5005,2.5352,2.538,2.5206,2.4793,2.3279,2.2094,2.1959,0.0,2.0795,2.2427,2.2968,2.3744,2.5168,2.537,2.5409,2.5409,2.3458,2.315,2.5111,2.3255,2.1991,2.1662,2.2083,2.1438,1.9645,1.8927,1.8194,1.7368,1.7272,1.7141,1.6965,1.713,1.6945,1.6542,1.6991,1.6926,1.6495,1.7009,1.7358,1.762,1.8104,1.876,1.9462,1.9897,2.0101,2.0205,2.8994,2.8994,2.8994,2.8994,2.9085,2.9122,2.9012,2.9104,2.9122,2.9012,2.8994,2.8938,2.8755,2.7291,2.6557,2.7236,2.6245,2.5511,2.5342,2.4611,2.419,2.419,2.419,2.419,2.419,2.419,2.419,2.419,2.4375,2.4357,2.419,2.4375,2.4357,2.419,2.419,2.419,2.419,2.419,2.419,2.417,2.3837,2.3876,2.4036,2.3455,2.3346,2.3459,2.2898,2.2669,2.2599,2.2388,2.25,2.2822,2.3117,2.3755,2.4425,2.4723,2.5031,2.5264,2.536,2.5466,2.5567,2.5512,2.55,2.5424,2.5168,2.4953,2.4842,2.4974,2.4947,2.5031,2.5407,2.5529,2.4891,2.2914,2.2446,2.1754,2.0031,0.0,2.2176,2.262,2.4044,2.5082,2.5293,2.537,2.5409,2.5409,2.5096,2.4761,2.4409,2.448,2.3876,2.2397,2.2329,2.1171,1.8807,1.8661,1.8293,1.7704,1.7167,1.7161,1.7629,1.7057,1.7044,1.7449,1.6999,1.6939,1.7135,1.695,1.6901,1.7075,1.831,1.8302,1.7742,1.8992,1.923,1.8943,2.8994,2.8994,2.8994,2.8994,2.8994,2.8994,2.8994,2.8994,2.8994,2.8994,2.8994,2.8773,2.8187,2.7255,2.6741,2.6961,2.6392,2.6043,2.6043,2.4887,2.419,2.419,2.419,2.419,2.419,2.419,2.4247,2.4357,2.4444,2.4512,2.4528,2.4512,2.4444,2.4357,2.4247,2.419,2.419,2.419,2.419,2.419,2.4016,2.3937,2.3896,2.3588,2.3346,2.3117,2.2822,2.2599,2.2473,2.25,2.273,2.3021,2.3369,2.3908,2.4452,2.4727,2.5043,2.5322,2.543,2.5498,2.5556,2.5545,2.5538,2.5468,2.5299,2.5082,2.4956,2.513,2.5108,2.5145,2.5459,2.5586,2.5308,2.4228,2.3275,2.2338,2.1368,2.2023,2.2647,2.2736,2.4321,2.539,2.537,2.5409,2.5446,2.5444,2.551,2.5365,2.4929,2.5028,2.467,2.3765,2.2279,2.0633,1.8843,1.8678,1.8313,1.7743,1.728,1.7129,1.7258,1.7109,1.6999,1.6924,1.6773,1.6623,1.6495,1.6534,1.6528,1.6586,1.72,1.7113,1.6779,1.7763,1.7992,1.7879,2.8994,2.8994,2.8994,2.8994,2.8994,2.8994,2.8994,2.8994,2.8994,2.8994,2.8994,2.8682,2.786,2.7567,2.7236,2.6833,2.6667,2.6521,2.6337,2.5162,2.4483,2.4483,2.43,2.419,2.419,2.4247,2.4358,2.4495,2.4591,2.4682,2.4804,2.4639,2.4526,2.4495,2.4284,2.419,2.419,2.419,2.419,2.419,2.419,2.3996,2.3692,2.361,2.323,2.2695,2.2634,2.2527,2.2426,2.2634,2.2923,2.3259,2.3588,2.406,2.4489,2.4727,2.5043,2.5351,2.546,2.5508,2.5535,2.5564,2.5552,2.5486,2.5409,2.519,2.5065,2.5264,2.5246,2.526,2.5459,2.5605,2.5527,2.498,0.0,2.2804,2.2739,2.2741,2.2924,2.3397,2.4637,2.5429,2.5418,2.5486,2.553,2.5525,2.56,2.5585,2.5523,2.5284,2.493,2.4463,2.2417,2.0657,1.929,1.9075,1.857,1.782,1.7522,1.7306,1.7149,1.7184,1.6987,1.6659,1.6604,1.6395,1.6039,1.6219,1.6301,1.6285,1.6126,1.6083,1.6165,1.6607,1.6897,1.7183,2.8994,2.8994,2.8994,2.8994,2.8994,2.8994,2.8994,2.8994,2.8994,2.8994,2.8994,2.8957,2.8883,2.8007,2.7383,2.7346,2.6888,2.6282,2.555,2.5384,2.5311,2.5311,2.4593,2.419,2.419,2.4375,2.4478,2.4495,2.4804,2.4917,2.4804,2.479,2.4685,2.4495,2.4284,2.419,2.419,2.419,2.419,2.419,2.419,2.3996,2.3671,2.3369,2.3021,2.2686,2.2426,2.249,2.2669,2.2695,2.2923,2.3259,2.3588,2.3987,2.4393,2.4708,2.5082,2.5409,2.5486,2.5542,2.5585,2.5511,2.5488,2.5466,2.5341,2.5152,2.5065,2.5264,2.5246,2.526,2.5459,2.5605,2.498,2.2812,0.0,0.0,2.2295,2.2465,2.3315,2.5164,2.5508,2.5564,2.5495,2.5543,2.5592,2.5592,2.5644,2.5665,2.56,2.5341,2.4648,2.3459,2.3028,2.1954,2.012,2.0084,1.9428,1.8166,1.782,1.785,1.8147,1.7245,1.7136,1.765,1.6737,1.6468,1.6712,1.6421,1.6301,1.6258,1.5805,1.5722,1.5826,1.5749,1.6328,1.7116,2.9377,2.9206,2.8994,2.8994,2.8994,2.8994,2.8994,2.8994,2.8994,2.8994,2.8994,2.8994,2.8994,2.8627,2.8388,2.8388,2.775,2.72,2.6906,2.5954,2.5182,2.4667,2.4355,2.4266,2.4375,2.4461,2.4604,2.4804,2.4949,2.4974,2.493,2.4842,2.4685,2.4495,2.4284,2.419,2.419,2.419,2.419,2.419,2.419,2.3996,2.3671,2.3346,2.2996,2.2695,2.2573,2.2625,2.2772,2.3165,2.3392,2.3566,2.3896,2.4192,2.4484,2.4831,2.5145,2.5399,2.5483,2.5557,2.5591,2.5565,2.5523,2.5486,2.539,2.5273,2.5214,2.5274,2.5346,2.5417,2.5496,2.558,2.5357,2.451,0.0,2.4436,2.437,2.4469,2.4808,2.5565,2.5625,2.5582,2.5554,2.5592,2.5601,2.5601,2.5668,2.5679,2.5593,2.5306,2.4851,2.4257,2.4148,2.2922,2.0421,1.9757,1.9453,1.9428,1.8461,1.8356,1.8943,1.7682,1.7248,1.7483,1.7348,1.7109,1.6821,1.7173,1.6905,1.6258,1.5777,1.5506,1.5374,1.5549,1.5872,1.6184,2.9848,2.9436,2.8994,2.8994,2.8994,2.8994,2.8994,2.8994,2.8994,2.8994,2.8994,2.8994,2.8994,2.8994,2.8994,2.8994,2.8503,2.8062,2.7824,2.6303,2.5054,2.4245,2.419,2.4247,2.441,2.4461,2.4651,2.4943,2.4943,2.4962,2.4998,2.4814,2.4623,2.4495,2.4284,2.419,2.419,2.419,2.419,2.419,2.419,2.3996,2.3671,2.3437,2.3141,2.2873,2.2873,2.2923,2.3093,2.3544,2.3774,2.3917,2.4191,2.4459,2.4779,2.5342,2.5452,2.5465,2.5826,2.5963,2.594,2.5673,2.5764,2.582,2.5476,2.5563,2.563,2.536,2.5409,2.549,2.5477,2.5543,2.5614,2.5664,2.5637,2.5623,2.5651,2.5665,2.5661,2.5664,2.5625,2.5605,2.5625,2.5636,2.5621,2.5625,2.5643,2.564,2.5542,2.527,2.5039,2.4892,2.4569,2.3326,2.1124,2.0397,1.9979,1.9881,1.9199,1.8966,1.9122,1.8403,1.8087,1.8082,1.8004,1.7823,1.7626,1.7646,1.7251,1.6565,1.589,1.5564,1.5448,1.5301,1.5418,1.5577,3.0398,2.9643,2.8994,2.9017,2.9017,2.8994,2.8994,2.8994,2.8994,2.8994,2.8994,2.8994,2.8994,2.8994,2.8994,2.8994,2.8994,2.8668,2.7842,2.6303,2.5054,2.4245,2.419,2.419,2.419,2.441,2.4591,2.4804,2.4804,2.4883,2.4998,2.4666,2.4495,2.4495,2.4284,2.419,2.419,2.419,2.419,2.419,2.419,2.3996,2.3692,2.3692,2.35,2.3189,2.3189,2.3414,2.3692,2.3692,2.3917,2.4247,2.4426,2.4737,2.5206,2.629,2.6043,2.5619,2.6571,2.6868,2.6691,2.5829,2.6214,2.6566,2.563,2.6024,2.637,2.5495,2.5409,2.5472,2.5404,2.5507,2.5601,2.5601,2.5609,2.5603,2.5599,2.5611,2.5599,2.5602,2.5605,2.5625,2.5684,2.5703,2.5693,2.5697,2.564,2.5542,2.5418,2.5209,2.5102,2.5098,2.4069,2.316,2.2419,2.2325,2.126,1.9216,2.0005,1.9772,1.8639,1.944,1.9814,1.9724,1.8595,1.8596,1.9291,1.7826,1.7254,1.7207,1.6053,1.5877,1.6148,1.4954,1.4972,1.549,3.0398,2.9643,2.9067,2.9314,2.916,2.8994,2.8994,2.8994,2.8994,2.8994,2.8994,2.8994,2.8994,2.8994,2.8994,2.8994,2.8994,2.8668,2.7842,2.5768,2.4685,2.5035,2.4502,2.4321,2.4607,2.4545,2.4651,2.4937,2.4842,2.476,2.4651,2.4543,2.4409,2.4284,2.4228,2.419,2.419,2.419,2.419,2.419,2.419,2.3996,2.3671,2.3437,2.33,2.3189,2.3189,2.3414,2.3753,2.3976,2.421,2.4461,2.4747,2.5342,2.5989,2.6463,2.6899,2.7304,2.7621,2.7768,2.7613,2.6796,2.7184,2.7709,2.7374,2.6976,2.6583,2.6274,2.5832,2.549,2.5477,2.5543,2.562,2.5659,2.5589,2.5564,2.5654,2.5628,2.5619,2.5653,2.5671,2.5684,2.5703,2.5703,2.5693,2.5697,2.564,2.5572,2.5464,2.5371,2.5328,2.5377,2.5017,2.4477,2.3732,2.2208,2.1111,2.0455,2.056,2.0411,2.0003,2.0009,1.9687,1.9112,1.9186,1.9386,1.9618,1.8935,1.858,1.832,1.7231,1.6586,1.6231,1.5535,1.5271,1.5151,3.0398,2.9848,2.9357,2.9314,2.9138,2.8994,2.8994,2.8994,2.8994,2.8994,2.8994,2.8994,2.8994,2.8994,2.8994,2.8994,2.8994,2.8521,2.7402,2.5952,2.5071,2.4924,2.4447,2.4321,2.4561,2.4444,2.4526,2.4804,2.4636,2.4545,2.4495,2.4284,2.4116,2.3996,2.3858,2.3876,2.3996,2.3996,2.3996,2.3996,2.384,2.3436,2.2917,2.2521,2.2487,2.2666,2.2898,2.3346,2.3885,2.4303,2.4547,2.4718,2.4949,2.5428,2.606,2.6888,2.7264,2.761,2.8373,2.8625,2.8555,2.81,2.8359,2.853,2.7795,2.74,2.7016,2.6274,2.5774,2.5569,2.5917,2.6028,2.6204,2.6622,2.634,2.6076,2.6152,2.5834,2.5628,2.5669,2.5661,2.5671,2.5703,2.5703,2.5683,2.5611,2.5581,2.5485,2.5318,2.5345,2.5376,2.5387,2.5387,2.5063,2.4361,2.3016,2.2144,2.1708,2.1912,2.1599,2.0859,2.1291,2.1007,2.0178,2.0151,2.0282,2.048,1.9564,1.9017,1.8694,1.7805,1.7199,1.6735,1.5915,1.5462,1.5181,3.0417,3.0122,2.971,2.9163,2.904,2.8994,2.8994,2.8994,2.8957,2.8883,2.8957,2.8957,2.8883,2.8957,2.8994,2.8994,2.8865,2.8205,2.6906,2.6557,2.5805,2.4465,2.4281,2.419,2.419,2.419,2.4284,2.4459,2.4247,2.4229,2.4372,2.3883,2.3671,2.3649,2.3346,2.3369,2.3671,2.3671,2.3631,2.357,2.3152,2.2443,2.1552,2.1009,2.1172,2.1742,2.2207,2.3064,2.4062,2.4604,2.4896,2.5019,2.5034,2.5209,2.5755,2.7439,2.7409,2.7225,2.8952,2.9483,2.9519,2.9599,2.9603,2.9177,2.7598,2.7682,2.7661,2.6063,2.5678,2.5867,2.6671,2.6804,2.7116,2.8032,2.7379,2.6801,2.6877,2.6139,2.5598,2.5603,2.5609,2.5628,2.5696,2.5703,2.5636,2.5503,2.5495,2.5348,2.501,2.5203,2.5264,2.5187,2.5335,2.5116,2.4499,2.4438,2.3884,2.2825,2.3639,2.3097,2.1414,2.2867,2.3044,2.2155,2.1164,2.1071,2.1498,1.9767,1.8932,1.8694,1.8056,1.7764,1.7541,1.6222,1.5704,1.5548,3.0487,3.0161,2.9829,2.9588,2.923,2.8994,2.8994,2.8994,2.8755,2.8136,2.8613,2.8778,2.8136,2.8631,2.8994,2.8994,2.786,2.7512,2.8407,2.6117,2.5126,2.6043,2.4869,2.419,2.419,2.419,2.4173,2.4118,2.3903,2.3714,2.3468,2.3351,2.3323,2.3323,2.3212,2.3236,2.3323,2.3323,2.313,2.2775,2.2272,2.1349,2.0115,1.9015,1.9477,2.0695,2.0662,2.1987,2.386,2.4575,2.493,2.5116,2.5332,2.588,2.667,2.7749,2.8373,2.8952,3.009,3.0359,3.0364,3.0421,3.0402,3.0265,2.9876,2.9352,2.8831,2.8463,2.7862,2.7489,2.7681,2.7262,2.7147,2.7988,2.682,2.6047,2.6737,2.6067,2.5538,2.5583,2.5646,2.5691,2.5696,2.5704,2.562,2.544,2.5476,2.5348,2.501,2.5203,2.5245,2.513,2.5344,2.5418,2.5262,2.5309,2.4517,2.296,2.3825,2.366,2.2613,2.2816,2.2412,2.1551,2.0527,2.0502,2.1057,1.9815,1.9589,1.9896,1.895,1.8213,1.7631,1.7003,1.6495,1.5998,3.0505,3.0254,2.9975,2.9729,2.9435,2.9156,2.9017,2.8994,2.8847,2.8429,2.8741,2.8851,2.8429,2.876,2.8994,2.8994,2.8223,2.7787,2.786,2.6282,2.5383,2.5456,2.4649,2.419,2.419,2.419,2.4095,2.3866,2.3759,2.3522,2.3189,2.3045,2.2972,2.2972,2.2832,2.2832,2.2972,2.2972,2.272,2.2302,2.159,2.048,1.9221,1.8054,1.8678,2.0177,2.0327,2.2028,2.4287,2.4743,2.4973,2.5166,2.5865,2.6385,2.7006,2.8337,2.9012,2.9543,3.0455,3.0641,3.0602,3.0641,3.0602,3.0469,3.014,2.9625,2.9095,2.8751,2.8283,2.8074,2.8497,2.8249,2.8154,2.8646,2.7608,2.6749,2.6791,2.6079,2.5565,2.5604,2.6035,2.63,2.6284,2.5893,2.5744,2.5996,2.6053,2.5943,2.564,2.5817,2.5676,2.5118,2.5337,2.5473,2.5489,2.5534,2.5081,2.421,2.4686,2.4458,2.364,2.3945,2.3373,2.2127,2.15,2.1224,2.1105,2.0031,1.9793,2.0052,1.935,1.88,1.8351,1.7852,1.7551,1.7337,3.054,3.0337,3.0107,2.9794,2.957,2.933,2.9089,2.904,2.8938,2.8815,2.8902,2.8938,2.8815,2.892,2.8994,2.8994,2.8865,2.8301,2.709,2.6631,2.586,2.4667,2.4355,2.419,2.419,2.419,2.4016,2.361,2.361,2.3432,2.3038,2.2764,2.2634,2.2608,2.2453,2.25,2.2695,2.2772,2.2504,2.2023,2.1093,1.9931,1.8636,1.7612,1.8337,1.9973,2.0483,2.2546,2.5053,2.5111,2.5279,2.5603,2.6562,2.6908,2.727,2.8938,2.9418,2.9606,3.0479,3.0674,3.0612,3.0595,3.0544,3.034,2.9809,2.9546,2.9245,2.8664,2.8414,2.8544,2.9256,2.9294,2.9225,2.9324,2.8517,2.7612,2.6901,2.6092,2.5588,2.5603,2.6424,2.7027,2.7099,2.6458,2.6283,2.686,2.6783,2.6584,2.6308,2.6354,2.5979,2.512,2.5297,2.5423,2.5471,2.547,2.5486,2.5466,2.5531,2.5208,2.4549,2.5117,2.4603,2.3208,2.274,2.2103,2.1344,2.0306,1.9877,1.9824,1.9601,1.9388,1.9161,1.8608,1.8702,1.8927,3.0606,3.0376,3.0145,2.998,2.9643,2.9392,2.9351,2.9156,2.8737,2.8044,2.8576,2.8741,2.8044,2.8594,2.8994,2.8994,2.8356,2.8172,2.8627,2.6722,2.5768,2.6264,2.4942,2.419,2.419,2.419,2.3896,2.3259,2.3259,2.2982,2.2415,2.2377,2.2332,2.236,2.2563,2.2686,2.2721,2.3021,2.2737,2.2023,2.1093,1.9885,1.8521,1.7301,1.8158,2.0016,2.0329,2.2838,2.5983,2.577,2.6394,2.7286,2.7488,2.7711,2.8127,2.9179,2.949,2.9685,3.0618,3.0743,3.061,3.0612,3.0506,3.0417,3.0448,3.0345,3.0231,3.0269,3.0148,3.0102,3.0217,2.9675,2.9187,2.9147,2.793,2.6907,2.6745,2.6063,2.5592,2.5597,2.6435,2.7255,2.7873,2.7885,2.7827,2.7736,2.7091,2.6584,2.6308,2.5768,2.5318,2.5018,2.5261,2.538,2.534,2.538,2.539,2.5322,2.5397,2.5438,2.5391,2.4766,2.4375,2.4119,2.2526,2.1731,2.1509,2.0595,2.0134,1.9964,1.9925,1.9696,1.9337,1.9029,1.9415,2.0074,3.0024,2.9829,2.962,2.9171,2.8962,2.8914,2.9129,2.9067,2.8865,2.8521,2.8796,2.8847,2.8521,2.8796,2.8994,2.8994,2.8686,2.8246,2.7695,2.7071,2.63,2.5309,2.4997,2.4649,2.4208,2.419,2.3876,2.3189,2.3189,2.2883,2.231,2.231,2.2388,2.2527,2.2634,2.2797,2.2996,2.3141,2.287,2.2302,2.1407,2.0544,1.9684,1.8838,1.9636,2.1379,2.2832,2.4464,2.5981,2.6303,2.6763,2.7338,2.8119,2.8444,2.8758,2.9848,3.0173,3.025,3.0681,3.0614,3.0414,3.0394,3.0284,3.0209,3.0386,3.0417,3.0452,3.0626,3.0544,3.0467,3.0467,3.0206,2.9802,2.9236,2.8236,2.7345,2.6827,2.6099,2.5981,2.6982,2.7468,2.8018,2.8757,2.8405,2.8084,2.7909,2.7563,2.7108,2.6496,2.6186,2.5763,2.5182,2.5171,2.5212,2.5303,2.5222,2.5222,2.5303,2.5322,2.5382,2.5488,2.5164,2.4785,2.4297,2.3548,2.2886,2.231,2.1405,2.0949,2.0802,2.0333,1.9984,1.9832,2.057,2.111,2.1492]},{"header":{"parameterUnit":"m.s-1","parameterCategory":1,"la1":30.6,"la2":28.766,"lo1":-90.7593,"lo2":-88.6598,"dy":0.0162,"dx":0.0183,"nx":116,"ny":114,"refTime":"2023-09-15T00:00:00:Z","depth":0,"parameterNumber":3,"parameterNumberName":"V-component_of_WINDS"},"data":[0.0,0.0,0.0,0.0,0.0,0.0,0.0,0.0,0.0,0.0,0.0,0.0,0.0,0.0,0.0,0.0,0.0,0.0,0.0,0.0,0.0,0.0,0.0,0.0,0.0,0.0,0.0,0.0,0.0,0.0,0.0,0.0,0.0,0.0,0.0,0.0,0.0,0.0,0.0,0.0,0.0,0.0,0.0,0.0,0.0,0.0,0.0,0.0,0.0,0.0,0.0,0.0,0.0,0.0,0.0,0.0,0.0,0.0,0.0,0.0,0.0,0.0,0.0,0.0,0.0,0.0,0.0,0.0,0.0,0.0,0.0,0.0,0.0,0.0,0.0,0.0,0.0,0.0,0.0,0.0,0.0,0.0,0.0,0.0,0.0,0.0,0.0,0.0,0.0,0.0,0.0,0.0,0.0,0.0,0.0,0.0,0.0,0.0,0.0,0.0,0.0,0.0,0.0,0.0,0.0,0.0,0.0,0.0,0.0,0.0,0.0,0.0,0.0,0.0,0.0,0.0,0.0,0.0,0.0,0.0,0.0,0.0,0.0,0.0,0.0,0.0,0.0,0.0,0.0,0.0,0.0,0.0,0.0,0.0,0.0,0.0,0.0,0.0,0.0,0.0,0.0,0.0,0.0,0.0,0.0,0.0,0.0,0.0,0.0,0.0,0.0,0.0,0.0,0.0,0.0,0.0,0.0,0.0,0.0,0.0,0.0,0.0,0.0,0.0,0.0,0.0,0.0,0.0,0.0,0.0,0.0,0.0,0.0,0.0,0.0,0.0,0.0,0.0,0.0,0.0,0.0,0.0,0.0,0.0,0.0,0.0,0.0,0.0,0.0,0.0,0.0,0.0,0.0,0.0,0.0,0.0,0.0,0.0,0.0,0.0,0.0,0.0,0.0,0.0,0.0,0.0,0.0,0.0,0.0,0.0,0.0,0.0,0.0,0.0,0.0,0.0,0.0,0.0,0.0,0.0,0.0,0.0,0.0,0.0,0.0,0.0,0.0,0.0,0.0,0.0,0.0,0.0,0.0,0.0,0.0,0.0,0.0,0.0,0.0,0.0,0.0,0.0,0.0,0.0,0.0,0.0,0.0,0.0,0.0,0.0,0.0,0.0,0.0,0.0,0.0,0.0,0.0,0.0,0.0,0.0,0.0,0.0,0.0,0.0,0.0,0.0,0.0,0.0,0.0,0.0,0.0,0.0,0.0,0.0,0.0,0.0,0.0,0.0,0.0,0.0,0.0,0.0,0.0,0.0,0.0,0.0,0.0,0.0,0.0,0.0,0.0,0.0,0.0,0.0,0.0,0.0,0.0,0.0,0.0,0.0,0.0,0.0,0.0,0.0,0.0,0.0,0.0,0.0,0.0,0.0,0.0,0.0,0.0,0.0,0.0,0.0,0.0,0.0,0.0,0.0,0.0,0.0,0.0,0.0,0.0,0.0,0.0,0.0,0.0,0.0,0.0,0.0,0.0,0.0,0.0,0.0,0.0,0.0,0.0,0.0,0.0,0.0,0.0,0.0,0.0,0.0,0.0,0.0,0.0,0.0,0.0,0.0,0.0,0.0,0.0,0.0,0.0,0.0,0.0,0.0,0.0,0.0,0.0,0.0,0.0,0.0,0.0,0.0,0.0,0.0,0.0,0.0,0.0,0.0,0.0,0.0,0.0,0.0,0.0,0.0,0.0,0.0,0.0,0.0,0.0,0.0,0.0,0.0,0.0,0.0,0.0,0.0,0.0,0.0,0.0,0.0,0.0,0.0,0.0,0.0,0.0,0.0,0.0,0.0,0.0,0.0,0.0,0.0,0.0,0.0,0.0,0.0,0.0,0.0,0.0,0.0,0.0,0.0,0.0,0.0,0.0,0.0,0.0,0.0,0.0,0.0,0.0,0.0,0.0,0.0,0.0,0.0,0.0,0.0,0.0,0.0,0.0,0.0,0.0,0.0,0.0,0.0,0.0,0.0,0.0,0.0,0.0,0.0,0.0,0.0,0.0,0.0,0.0,0.0,0.0,0.0,0.0,0.0,0.0,0.0,0.0,0.0,0.0,0.0,0.0,0.0,0.0,0.0,0.0,0.0,0.0,0.0,0.0,0.0,0.0,0.0,0.0,0.0,0.0,0.0,0.0,0.0,0.0,0.0,0.0,0.0,0.0,0.0,0.0,0.0,0.0,0.0,0.0,0.0,0.0,0.0,0.0,0.0,0.0,0.0,0.0,0.0,0.0,0.0,0.0,0.0,0.0,0.0,0.0,0.0,0.0,0.0,0.0,0.0,0.0,0.0,0.0,0.0,0.0,0.0,0.0,0.0,0.0,0.0,0.0,0.0,0.0,0.0,0.0,0.0,0.0,0.0,0.0,0.0,0.0,0.0,0.0,0.0,0.0,0.0,0.0,0.0,0.0,0.0,0.0,0.0,0.0,0.0,0.0,0.0,0.0,0.0,0.0,0.0,0.0,0.0,0.0,0.0,0.0,0.0,0.0,0.0,0.0,0.0,0.0,0.0,0.0,0.0,0.0,0.0,0.0,0.0,0.0,0.0,0.0,0.0,0.0,0.0,0.0,0.0,0.0,0.0,0.0,0.0,0.0,0.0,0.0,0.0,0.0,0.0,0.0,0.0,0.0,0.0,0.0,0.0,0.0,0.0,0.0,0.0,0.0,0.0,0.0,0.0,0.0,0.0,0.0,0.0,0.0,0.0,0.0,0.0,0.0,0.0,0.0,0.0,0.0,0.0,0.0,0.0,0.0,0.0,0.0,0.0,0.0,0.0,0.0,0.0,0.0,0.0,0.0,0.0,0.0,0.0,0.0,0.0,0.0,0.0,0.0,0.0,0.0,0.0,0.0,0.0,0.0,0.0,0.0,0.0,0.0,0.0,0.0,0.0,0.0,0.0,0.0,0.0,0.0,0.0,0.0,0.0,0.0,0.0,0.0,0.0,0.0,0.0,0.0,0.0,0.0,0.0,0.0,0.0,0.0,0.0,0.0,0.0,0.0,0.0,0.0,0.0,0.0,0.0,0.0,0.0,0.0,0.0,0.0,0.0,0.0,0.0,0.0,0.0,0.0,0.0,0.0,0.0,0.0,0.0,0.0,0.0,0.0,0.0,0.0,0.0,0.0,0.0,0.0,0.0,0.0,0.0,0.0,0.0,0.0,0.0,0.0,0.0,0.0,0.0,0.0,0.0,0.0,0.0,0.0,0.0,0.0,0.0,0.0,0.0,0.0,0.0,0.0,0.0,0.0,0.0,0.0,0.0,0.0,0.0,0.0,0.0,0.0,0.0,0.0,0.0,0.0,0.0,0.0,0.0,0.0,0.0,0.0,0.0,0.0,0.0,0.0,0.0,0.0,0.0,0.0,0.0,0.0,0.0,0.0,0.0,0.0,0.0,0.0,0.0,0.0,0.0,0.0,0.0,0.0,0.0,0.0,0.0,0.0,0.0,0.0,0.0,0.0,0.0,0.0,0.0,0.0,0.0,0.0,0.0,0.0,0.0,0.0,0.0,0.0,0.0,0.0,0.0,0.0,0.0,0.0,0.0,0.0,0.0,0.0,0.0,0.0,0.0,0.0,0.0,0.0,0.0,0.0,0.0,0.0,0.0,0.0,0.0,0.0,0.0,0.0,0.0,0.0,0.0,0.0,0.0,0.0,0.0,0.0,0.0,0.0,0.0,0.0,0.0,0.0,0.0,0.0,0.0,0.0,0.0,0.0,0.0,0.0,0.0,0.0,0.0,0.0,0.0,0.0,0.0,0.0,0.0,0.0,0.0,0.0,0.0,0.0,0.0,0.0,0.0,0.0,0.0,0.0,0.0,0.0,0.0,0.0,0.0,0.0,0.0,0.0,0.0,0.0,0.0,0.0,0.0,0.0,0.0,0.0,0.0,0.0,0.0,0.0,0.0,0.0,0.0,0.0,0.0,0.0,0.0,0.0,0.0,0.0,0.0,0.0,0.0,0.0,0.0,0.0,0.0,0.0,0.0,0.0,0.0,0.0,0.0,0.0,0.0,0.0,0.0,0.0,0.0,0.0,0.0,0.0,0.0,0.0,0.0,0.0,0.0,0.0,0.0,0.0,0.0,0.0,0.0,0.0,0.0,0.0,0.0,0.0,0.0,0.0,0.0,0.0,0.0,0.0,0.0,0.0,0.0,0.0,0.0,0.0,0.0,0.0,0.0,0.0,0.0,0.0,0.0,0.0,0.0,0.0,0.0,0.0,0.0,0.0,0.0,0.0,0.0,0.0,0.0,0.0,0.0,0.0,0.0,0.0,0.0,0.0,0.0,0.0,0.0,0.0,0.0,0.0,0.0,0.0,0.0,0.0,0.0,0.0,0.0,0.0,0.0,0.0,0.0,0.0,0.0,0.0,0.0,0.0,0.0,0.0,0.0,0.0,0.0,0.0,0.0,0.0,0.0,0.0,0.0,0.0,0.0,0.0,0.0,0.0,0.0,0.0,0.0,0.0,0.0,0.0,0.0,0.0,0.0,0.0,0.0,0.0,0.0,0.0,0.0,0.0,0.0,0.0,0.0,0.0,0.0,0.0,0.0,0.0,0.0,0.0,0.0,0.0,0.0,0.0,0.0,0.0,0.0,0.0,0.0,0.0,0.0,0.0,0.0,0.0,0.0,0.0,0.0,0.0,0.0,0.0,0.0,0.0,0.0,0.0,0.0,0.0,0.0,0.0,0.0,0.0,0.0,0.0,0.0,0.0,0.0,0.0,0.0,0.0,0.0,0.0,0.0,0.0,0.0,0.0,0.0,0.0,0.0,0.0,0.0,0.0,0.0,0.0,0.0,0.0,0.0,0.0,0.0,0.0,0.0,0.0,0.0,0.0,0.0,0.0,0.0,0.0,0.0,0.0,0.0,0.0,0.0,0.0,0.0,0.0,0.0,0.0,0.0,0.0,0.0,0.0,0.0,0.0,0.0,0.0,0.0,0.0,0.0,0.0,0.0,0.0,0.0,0.0,0.0,0.0,0.0,0.0,0.0,0.0,0.0,0.0,0.0,0.0,0.0,0.0,0.0,0.0,0.0,0.0,0.0,0.0,0.0,0.0,0.0,0.0,0.0,0.0,0.0,0.0,0.0,0.0,0.0,0.0,0.0,0.0,0.0,0.0,0.0,0.0,0.0,0.0,0.0,0.0,0.0,0.0,0.0,0.0,0.0,0.0,0.0,0.0,0.0,0.0,0.0,0.0,0.0,0.0,0.0,0.0,0.0,0.0,0.0,0.0,0.0,0.0,0.0,0.0,0.0,0.0,0.0,0.0,0.0,0.0,0.0,0.0,0.0,0.0,0.0,0.0,0.0,0.0,0.0,0.0,0.0,0.0,0.0,0.0,0.0,0.0,0.0,0.0,0.0,0.0,0.0,0.0,0.0,0.0,0.0,0.0,0.0,0.0,0.0,0.0,0.0,0.0,0.0,0.0,0.0,0.0,0.0,0.0,0.0,0.0,0.0,0.0,0.0,0.0,0.0,0.0,0.0,0.0,0.0,0.0,0.0,0.0,0.0,0.0,0.0,0.0,0.0,0.0,0.0,0.0,0.0,0.0,0.0,0.0,0.0,0.0,0.0,0.0,0.0,0.0,0.0,0.0,0.0,0.0,0.0,0.0,0.0,0.0,0.0,0.0,0.0,0.0,0.0,0.0,0.0,0.0,0.0,0.0,0.0,0.0,0.0,0.0,0.0,0.0,0.0,0.0,0.0,0.0,0.0,0.0,0.0,0.0,0.0,0.0,0.0,0.0,0.0,0.0,0.0,0.0,0.0,0.0,0.0,0.0,0.0,0.0,0.0,0.0,0.0,0.0,0.0,0.0,0.0,0.0,0.0,0.0,0.0,0.0,0.0,0.0,0.0,0.0,0.0,0.0,0.0,0.0,0.0,0.0,0.0,0.0,0.0,0.0,0.0,0.0,0.0,0.0,0.0,0.0,0.0,0.0,0.0,0.0,0.0,0.0,0.0,0.0,0.0,0.0,0.0,0.0,0.0,0.0,0.0,0.0,0.0,0.0,0.0,0.0,0.0,0.0,0.0,0.0,0.0,0.0,0.0,0.0,0.0,0.0,0.0,0.0,0.0,0.0,0.0,0.0,0.0,0.0,0.0,1.2053,0.0,0.0,0.0,0.0,0.0,0.0,0.0,0.0,0.0,0.0,0.0,0.0,0.0,0.0,0.0,0.0,0.0,0.0,0.0,0.0,0.0,0.0,0.0,0.0,0.0,0.0,0.0,0.0,0.0,0.0,0.0,0.0,0.0,0.0,0.0,0.0,0.0,0.0,0.0,0.0,0.0,0.0,0.0,0.0,0.0,0.0,0.0,0.0,0.0,0.0,0.0,0.0,0.0,0.0,0.0,0.0,0.0,0.0,0.0,0.0,0.0,0.0,0.0,0.0,0.0,0.0,0.0,0.0,0.0,0.0,0.0,0.0,0.0,0.0,0.0,0.0,0.0,0.0,0.0,0.0,0.0,0.0,0.0,0.0,0.0,0.0,0.0,0.0,0.0,0.0,0.0,0.0,0.0,0.0,0.0,0.0,0.0,0.0,0.0,0.0,0.0,0.0,0.0,0.0,0.0,0.0,0.0,0.0,0.0,0.0,0.0,0.0,0.0,0.0,0.0,0.0,1.2743,0.0,0.0,0.0,0.0,0.0,0.0,0.0,0.0,0.0,0.0,0.0,0.0,0.0,0.0,0.0,0.0,0.0,0.0,0.0,0.0,0.0,0.0,0.0,0.0,0.0,0.0,0.0,0.0,0.0,0.0,0.0,0.0,0.0,0.0,0.0,0.0,0.0,0.0,0.0,0.0,0.0,0.0,0.0,0.0,0.0,0.0,0.0,0.0,0.0,0.0,0.0,0.0,0.0,0.0,0.0,0.0,0.0,0.0,0.0,0.0,0.0,0.0,0.0,0.0,0.0,0.0,0.0,0.0,0.0,0.0,0.0,0.0,0.0,0.0,0.0,0.0,0.0,0.0,0.0,0.0,0.0,0.0,0.0,0.0,0.0,0.0,0.0,0.0,0.0,0.0,0.0,0.0,0.0,0.0,0.0,0.0,0.0,0.0,0.0,0.0,0.0,0.0,0.0,0.0,0.0,0.0,0.0,0.0,1.5841,1.6339,1.74,1.7845,1.7764,1.7218,1.5509,1.4454,1.3905,1.3719,0.0,0.0,0.0,0.0,0.0,0.0,0.0,0.0,0.0,0.0,0.0,0.0,0.0,0.0,0.0,0.0,0.0,0.0,0.0,0.0,0.0,0.0,0.0,0.0,0.0,0.0,0.0,0.0,0.0,0.0,0.0,0.0,0.0,0.0,0.0,0.0,0.0,0.0,1.5806,1.7877,1.8702,1.8426,1.7325,0.0,0.0,0.0,0.0,0.0,0.0,0.0,0.0,0.0,0.0,0.0,0.0,0.0,0.0,0.0,0.0,0.0,0.0,0.0,0.0,0.0,0.0,0.0,0.0,0.0,0.0,0.0,0.0,0.0,0.0,0.0,0.0,0.0,0.0,0.0,0.0,0.0,0.0,0.0,0.0,0.0,0.0,0.0,1.3514,1.3232,0.0,0.0,0.0,0.0,0.0,0.0,0.0,0.0,0.0,0.0,0.0,0.0,0.0,1.5427,1.6823,1.7287,1.8054,1.912,1.9602,1.9901,2.0073,2.0229,2.0248,2.011,1.8859,0.0,1.6046,1.5562,0.0,0.0,0.0,0.0,0.0,0.0,0.0,0.0,0.0,0.0,0.0,0.0,0.0,0.0,0.0,0.0,0.0,0.0,0.0,0.0,0.0,0.0,0.0,0.0,0.0,0.0,0.0,0.0,0.0,0.0,0.0,0.0,0.0,0.0,0.0,0.0,1.7437,1.8746,1.9706,2.1055,2.1865,2.2191,2.1203,2.0198,1.9211,1.8642,0.0,0.0,0.0,0.0,0.0,0.0,0.0,0.0,0.0,0.0,0.0,0.0,0.0,0.0,0.0,0.0,0.0,0.0,0.0,0.0,0.0,0.0,0.0,0.0,0.0,0.0,0.0,0.0,0.0,0.0,0.0,0.0,0.0,0.0,0.0,0.0,0.0,0.0,0.0,1.4162,1.455,1.4098,1.4561,1.4601,0.0,0.0,0.0,0.0,0.0,0.0,0.0,0.0,0.0,1.6468,1.7629,1.8608,1.9304,1.9701,2.0493,2.1629,2.1801,2.2299,2.2973,2.2992,2.2836,2.2498,2.1681,2.0564,1.9196,1.7714,1.7112,1.6979,0.0,0.0,0.0,0.0,1.4273,1.4536,0.0,0.0,0.0,0.0,0.0,0.0,0.0,0.0,0.0,0.0,0.0,0.0,0.0,1.3051,0.0,1.3819,0.0,0.0,0.0,0.0,0.0,0.0,0.0,0.0,0.0,0.0,0.0,1.8327,2.0498,2.2295,2.3699,2.4507,2.5151,2.563,2.5285,2.367,2.1156,2.0483,1.9153,0.0,0.0,0.0,0.0,0.0,0.0,0.0,0.0,0.0,0.0,0.0,0.0,0.0,0.0,0.0,0.0,0.0,0.0,0.0,0.0,0.0,0.0,0.0,0.0,0.0,0.0,0.0,0.0,0.0,0.0,0.0,0.0,0.0,0.0,0.0,0.0,0.0,0.0,1.4871,1.5275,1.4756,1.521,1.5218,0.0,0.0,0.0,0.0,0.0,0.0,1.68,1.7787,1.8619,1.9291,2.0765,2.1713,2.192,2.2457,2.3341,2.4342,2.4362,2.4828,2.5726,2.5704,2.5345,2.4746,2.4098,2.3433,2.2477,1.9901,1.8744,1.8507,1.7589,1.6995,1.6621,1.6503,1.6586,1.6811,0.0,0.0,0.0,0.0,0.0,0.0,0.0,0.0,0.0,0.0,0.0,0.0,0.0,1.4728,1.6179,1.7441,1.7114,1.6374,0.0,0.0,0.0,0.0,0.0,0.0,0.0,0.0,0.0,2.005,2.3628,2.5719,2.6422,2.7739,2.8368,2.8427,2.9011,2.7799,2.5151,2.2652,2.153,2.1177,0.0,0.0,0.0,0.0,0.0,0.0,0.0,0.0,0.0,0.0,0.0,0.0,0.0,0.0,0.0,0.0,0.0,0.0,0.0,0.0,0.0,0.0,0.0,0.0,0.0,0.0,0.0,0.0,0.0,0.0,0.0,0.0,0.0,0.0,0.0,0.0,0.0,0.0,0.0,1.477,1.622,0.0,0.0,0.0,0.0,1.6396,1.7393,1.8482,1.9521,2.0213,2.1029,2.2051,2.3238,2.4318,2.5335,2.6465,2.7306,2.7846,2.811,2.826,2.8315,2.8135,2.7542,2.6696,2.6179,2.5889,2.5612,2.2048,2.0225,1.9673,1.9096,1.887,1.8795,1.8246,1.8396,1.8846,0.0,0.0,0.0,0.0,0.0,0.0,0.0,0.0,0.0,0.0,0.0,0.0,0.0,1.7135,1.9478,1.9943,2.1105,2.0956,1.8901,0.0,0.0,0.0,0.0,0.0,0.0,0.0,2.1401,2.3703,2.627,2.7874,2.8532,2.9011,2.9684,3.0462,2.9849,2.9759,2.9819,2.6333,2.3864,2.2173,2.0085,1.825,0.0,0.0,0.0,0.0,0.0,0.0,0.0,0.0,0.0,0.0,0.0,0.0,0.0,0.0,0.0,0.0,0.0,0.0,0.0,0.0,0.0,0.0,0.0,0.0,0.0,0.0,0.0,0.0,0.0,0.0,0.0,0.0,0.0,0.0,0.0,0.0,0.0,1.6795,1.7772,0.0,1.7601,1.8204,1.8631,1.8631,2.0012,2.1167,2.1907,2.2836,2.3841,2.4946,2.5372,2.5937,2.6678,2.7242,2.788,2.8495,2.8692,2.9059,2.9465,2.8917,2.8339,2.7721,2.7503,2.725,2.6786,2.549,2.4635,2.3931,2.2309,2.2341,2.3204,2.2296,2.2362,2.295,0.0,0.0,0.0,0.0,0.0,0.0,0.0,0.0,0.0,0.0,0.0,1.3831,1.6039,1.9711,2.2285,2.2965,2.3777,2.3071,2.0213,0.0,0.0,0.0,0.0,0.0,0.0,2.1447,2.4456,2.7288,2.9085,3.0278,3.0937,3.1221,3.1641,3.214,3.1561,3.1902,3.2662,2.9804,2.7081,2.4507,2.2224,2.0391,1.878,0.0,0.0,0.0,0.0,0.0,0.0,0.0,0.0,0.0,0.0,0.0,0.0,0.0,0.0,0.0,0.0,0.0,0.0,0.0,0.0,0.0,0.0,0.0,0.0,0.0,0.0,0.0,0.0,0.0,0.0,0.0,0.0,0.0,0.0,0.0,1.8345,1.8901,1.9654,1.9987,1.961,2.0225,2.0727,2.0916,2.2309,2.351,2.4349,2.5163,2.6298,2.7611,2.7765,2.8138,2.8838,2.8929,2.9255,2.9699,2.9693,3.0073,3.0698,3.0134,2.9478,2.89,2.89,2.8661,2.8254,2.8015,2.8141,2.8282,2.556,2.5217,2.6119,2.5389,2.5306,2.5419,0.0,0.0,0.0,0.0,0.0,0.0,0.0,0.0,0.0,0.0,1.2512,1.5633,1.9748,2.2292,2.4477,2.6422,2.4762,2.2233,1.9001,1.6598,0.0,0.0,0.0,0.0,2.1717,2.4492,2.7442,3.0679,3.2015,3.3008,3.3662,3.4418,3.4311,3.364,3.4395,3.4312,3.3561,3.2886,3.1132,2.8539,2.5106,2.3437,2.26,0.0,0.0,0.0,0.0,0.0,0.0,0.0,0.0,0.0,0.0,0.0,0.0,0.0,0.0,0.0,0.0,0.0,0.0,0.0,0.0,0.0,0.0,0.0,0.0,0.0,0.0,0.0,0.0,0.0,0.0,0.0,0.0,0.0,1.7118,1.9343,2.0917,2.0969,2.1824,2.2027,2.0945,2.1769,2.2636,2.3175,2.4243,2.5537,2.6892,2.7165,2.8144,2.9938,3.0183,3.0788,3.1681,3.1613,3.1571,3.1585,3.1268,3.1473,3.2097,3.1722,3.1161,3.0387,3.0372,3.0358,3.0297,2.947,3.0459,3.2184,2.8706,2.7384,2.7443,2.7384,2.6876,2.606,0.0,0.0,0.0,0.0,0.0,0.0,0.0,0.0,0.8036,0.92,1.3293,1.7061,1.948,2.3349,2.5989,2.6542,2.4762,2.2817,2.0991,0.0,0.0,0.0,0.0,0.0,2.4516,2.7667,3.0428,3.2851,3.3716,3.4482,3.5209,3.5401,3.5662,3.5904,3.5602,3.5577,3.5692,3.5133,3.4435,3.3326,2.8988,2.5808,2.3549,0.0,0.0,0.0,0.0,0.0,0.0,0.0,0.0,0.0,0.0,0.0,0.0,0.0,0.0,0.0,0.0,0.0,0.0,0.0,0.0,0.0,0.0,0.0,0.0,0.0,0.0,0.0,0.0,0.0,0.0,0.0,0.0,2.0646,1.9933,2.1536,2.3175,2.4235,2.4775,2.4936,2.4622,2.4644,2.5001,2.5777,2.6531,2.7577,2.9053,2.7823,2.7687,2.9118,2.8384,2.8457,2.9628,3.0312,3.1098,3.206,3.2123,3.2463,3.3084,3.2989,3.2825,3.2598,3.2123,3.1916,3.1856,3.1661,3.19,3.2229,2.9549,2.9302,3.0178,2.8984,2.8367,2.7881,0.0,0.0,0.0,0.0,0.0,0.0,0.0,0.0,0.8495,1.0098,1.4119,1.777,2.0204,2.3407,2.545,2.5749,2.3954,2.1889,1.9765,0.0,0.0,0.0,0.0,2.4377,2.812,3.0628,3.2716,3.4496,3.5235,3.581,3.622,3.6828,3.7179,3.7232,3.7156,3.7118,3.7097,3.674,3.6397,3.5828,3.313,3.0462,2.7851,2.5738,2.4493,2.3557,2.1485,2.1413,2.1845,1.862,0.0,0.0,0.0,0.0,0.0,0.0,0.0,0.0,0.0,0.0,0.0,0.0,0.0,0.0,0.0,0.0,0.0,0.0,0.0,0.0,0.0,0.0,0.0,0.0,2.1579,2.406,2.4499,2.509,2.5864,2.6718,2.7134,2.7242,2.6999,2.7006,2.7379,2.8136,2.8473,2.9203,3.0453,2.9303,2.9018,2.9907,2.9402,2.9529,3.0368,3.1238,3.2009,3.2757,3.2837,3.3275,3.3903,3.3619,3.335,3.3066,3.2677,3.2362,3.2123,3.2392,3.2677,0.0,0.0,0.0,0.0,0.0,2.9566,2.9282,0.0,0.0,0.0,0.0,0.0,0.0,0.0,0.0,0.958,1.1736,1.48,1.7993,2.1173,2.2745,2.3849,2.4462,2.2577,2.007,0.0,0.0,0.0,2.267,2.5501,2.8502,3.1855,3.3188,3.4435,3.5757,3.6451,3.6874,3.706,3.8379,3.864,3.8124,3.8735,3.8635,3.7921,3.8035,3.7665,3.7069,3.7069,3.5729,3.3403,2.9681,2.8598,2.8681,2.5712,2.4636,2.4253,2.1816,0.0,0.0,0.0,0.0,0.0,0.0,0.0,0.0,0.0,0.0,0.0,0.0,0.0,0.0,0.0,0.0,0.0,0.0,0.0,0.0,0.0,0.0,0.0,0.0,2.4118,2.7036,2.9564,2.9312,2.8915,2.8957,2.9209,2.9178,2.8711,2.9018,2.9495,3.0229,3.0202,3.0495,3.1401,0.0,0.0,0.0,0.0,3.2134,3.2407,3.3125,3.3529,3.3604,3.3604,3.3903,3.4457,3.3948,3.3365,3.2736,3.2662,3.2302,3.1735,3.2377,3.3021,3.3589,3.344,3.2976,3.2199,3.076,3.0332,3.0315,0.0,0.0,0.0,0.0,0.0,0.0,0.0,0.0,0.9468,1.1303,1.4593,1.7713,2.0133,2.2337,2.3655,2.3789,2.1036,1.874,0.0,0.0,1.9335,2.554,2.7927,3.041,3.3181,3.4538,3.5684,3.6552,3.6705,3.7398,3.8565,3.8853,3.9243,3.9648,3.9783,3.9437,3.8745,3.9385,3.9196,3.8477,3.8477,3.6929,3.4452,3.3053,3.2284,3.162,2.932,2.9495,3.0123,2.5976,2.5324,2.5678,2.264,0.0,0.0,0.0,0.0,0.0,0.0,0.0,0.0,0.0,0.0,0.0,0.0,0.0,0.0,0.0,0.0,0.0,0.0,0.0,0.0,2.5866,2.8113,3.0118,3.1719,3.2273,3.2466,3.2526,3.1965,3.1532,3.1418,3.0909,3.097,3.1697,3.1274,3.1594,3.3,3.1442,3.0598,3.0702,3.1291,3.1663,3.1661,3.2901,3.3769,3.4292,0.0,0.0,3.4487,3.4921,3.4741,3.4068,3.3529,3.323,3.3125,3.3245,3.3694,3.4188,3.3125,3.2302,3.1513,3.0075,3.0295,3.1013,0.0,0.0,0.0,0.0,0.0,0.0,0.0,0.0,0.8404,0.9884,1.2604,1.5258,1.7486,1.8604,1.9585,2.0572,1.874,0.0,0.0,2.0244,2.3358,2.8661,3.0938,3.2866,3.4559,3.5268,3.5994,3.6772,3.6772,3.7533,3.8988,3.8988,3.9377,4.007,4.007,3.9901,3.9542,3.9952,3.985,3.9489,3.9489,3.8667,3.731,3.6166,3.5568,3.507,3.3716,3.3131,3.2638,2.9653,2.8228,2.738,2.5314,2.3584,2.1877,0.0,0.0,0.0,0.0,0.0,0.0,0.0,0.0,0.0,0.0,0.0,0.0,0.0,0.0,2.1082,0.0,0.0,2.605,2.8248,2.9953,3.1599,3.326,3.4083,3.4128,3.3125,3.2892,3.257,3.1924,3.182,3.2077,3.2805,3.2573,3.28,3.3948,3.3036,3.2183,3.1524,3.2168,3.2362,3.2018,3.332,3.4143,3.4472,3.4831,3.4996,3.4996,3.4996,3.4622,3.3948,3.329,3.2826,3.2557,3.3215,3.3694,3.3918,3.326,3.2602,3.1885,3.0821,3.0923,3.1364,0.0,0.0,0.0,0.0,0.0,0.0,0.0,0.0,0.0,0.8702,1.0567,1.2607,1.4877,1.49,1.5248,0.0,0.0,0.0,0.0,2.3353,2.7091,3.1224,3.3389,3.4709,3.5182,3.5318,3.5774,3.6552,3.6705,3.7533,3.8988,3.8988,3.9377,4.007,4.007,4.007,4.007,4.007,4.007,4.007,4.007,4.007,3.9952,3.8723,3.8149,3.7882,3.7102,3.5355,3.3317,3.2229,3.0134,2.7844,2.7186,2.6258,2.473,2.1442,2.0669,0.0,0.0,0.0,0.0,0.0,0.0,0.0,0.0,0.0,1.9617,2.1114,2.2933,2.4593,2.558,2.6946,2.8502,3.0253,3.1524,3.2856,3.4457,3.516,3.4816,3.2931,3.3395,3.3469,3.2407,3.2781,3.332,3.3844,3.3769,3.3918,3.4442,3.4472,3.3933,3.2736,3.3469,3.3574,3.2901,3.4083,3.4666,3.4681,3.5235,3.5429,3.5295,3.4726,3.4038,3.3275,3.2736,3.2287,3.2003,3.32,3.3679,3.3679,3.3544,3.3095,3.2437,3.1779,3.1482,3.1482,0.0,0.0,0.0,0.0,0.0,0.0,0.0,0.0,0.0,0.0,1.0137,1.1707,1.3899,1.4383,0.0,0.0,0.0,0.0,1.9443,2.3229,2.7395,3.1968,3.366,3.4235,3.366,3.4286,3.4996,3.574,3.6434,3.7533,3.8988,3.8988,3.9377,4.007,4.007,4.007,4.007,4.007,4.007,4.007,4.007,4.007,4.007,3.9901,3.9385,3.8592,3.7214,3.5055,3.2757,3.2579,3.1121,2.925,2.8592,2.8278,2.7294,2.3069,0.0,2.0754,1.705,1.5684,1.5706,1.735,1.8363,1.9647,0.0,0.0,2.5113,2.5908,2.7534,2.908,2.9724,3.142,3.2991,3.3799,3.4562,3.513,3.5355,3.5459,3.4981,3.3559,3.4517,3.522,3.507,3.513,3.5205,3.528,3.4711,3.4397,3.4472,3.4472,3.4143,3.341,3.4622,3.4951,3.4262,3.5011,3.5385,3.5385,3.5474,3.519,3.4592,3.4502,3.3799,3.2617,3.2542,3.2811,3.3335,3.4068,3.4367,3.4307,3.3724,3.3095,3.2437,3.1779,3.1482,3.1482,0.0,0.0,0.0,0.0,0.0,0.0,0.0,0.0,0.0,0.0,0.0,0.9006,1.0833,0.0,0.0,0.0,0.0,0.0,1.9246,2.2869,2.6894,3.1444,3.3068,3.3728,3.3406,3.4117,3.4861,3.5622,3.5943,3.7094,3.8988,3.8565,3.8971,4.007,4.007,4.007,4.007,4.007,4.0341,4.0696,4.0257,4.0341,4.0595,3.9309,3.8033,3.6802,3.5547,3.3631,0.0,0.0,2.8924,2.7859,2.7964,2.747,2.6255,2.3287,2.1551,0.0,1.7836,1.8052,0.0,0.0,2.1959,2.3914,2.5204,2.6552,2.7847,2.8824,3.0529,3.2049,3.2676,3.3185,3.3844,0.0,3.4651,3.4607,3.54,3.516,3.4562,3.3604,3.3664,3.3562,3.3148,3.4226,3.4766,3.4319,3.4437,3.4651,3.5055,3.507,3.4951,3.4681,3.522,3.537,3.507,3.5355,3.5504,3.5504,3.5504,3.5145,3.4472,3.4083,3.3185,3.1943,3.1943,3.2542,3.3514,3.3784,3.4128,3.4442,3.4173,3.3664,3.2961,3.1913,3.1482,3.1482,0.0,0.0,0.0,0.0,0.0,0.0,0.0,0.0,0.0,0.0,0.0,0.0,0.0,0.0,0.0,0.0,0.0,0.0,0.0,2.1994,2.5795,3.0074,3.1901,3.2797,3.2797,3.3711,3.4658,3.5622,3.5825,3.6992,3.8988,3.8447,3.887,4.007,4.007,4.007,4.007,4.007,4.0392,4.0849,4.0307,4.029,4.0358,3.8125,3.6151,3.4415,3.3439,3.1331,0.0,0.0,2.6028,2.536,2.6066,2.5809,2.4956,2.2981,2.0925,1.9181,1.8696,0.0,0.0,2.2748,2.5251,2.7654,2.8196,2.9392,3.069,3.1748,3.3057,3.4203,3.4681,3.4367,3.4367,3.5355,3.4696,3.4397,3.537,3.4906,3.4023,3.2811,3.2526,3.1901,3.041,3.2467,3.3848,3.375,3.4212,3.4771,3.5474,3.5504,3.5504,3.5504,3.5504,3.5504,3.5504,3.5504,3.5504,3.5504,3.5504,3.5145,3.4442,3.3604,3.2706,3.1794,3.1556,3.2183,3.3215,3.3215,3.3619,3.4188,3.4008,3.3754,3.3365,3.2213,3.1809,3.1779,0.0,0.0,0.0,0.0,0.0,0.0,0.0,0.0,0.0,0.0,0.0,0.0,0.0,0.0,0.0,0.0,0.0,0.0,0.0,2.0485,2.4036,2.7722,3.0074,3.1258,3.1258,3.2696,3.4167,3.5622,3.6366,3.7516,3.8988,3.8971,3.936,4.007,4.007,4.007,4.007,4.007,4.0087,4.0104,4.0087,3.9665,3.8819,3.6552,3.4129,3.1816,3.1066,0.0,0.0,2.4008,2.2932,2.1964,2.2622,2.367,0.0,2.2308,1.9848,1.8119,1.9628,0.0,2.1521,2.485,2.7592,2.9971,3.1839,3.3313,3.4532,3.5235,3.5415,3.5444,3.5474,3.5459,3.5459,3.5489,3.5474,3.5459,3.5504,3.4906,3.3514,3.0896,3.1587,3.1021,0.0,3.0532,3.308,3.4385,3.452,3.4771,3.5474,3.5504,3.5504,3.5504,3.5504,3.5504,3.5504,3.5504,3.5504,3.5504,3.5504,3.5145,3.4427,3.314,3.2527,3.2452,3.175,3.1913,3.2542,3.2542,3.2931,3.3469,3.2826,3.2961,3.341,3.2736,3.2482,3.2392,0.0,0.0,0.0,0.0,0.0,0.0,0.0,0.0,0.0,0.0,0.0,0.0,0.0,0.0,0.0,0.0,0.0,0.0,0.0,1.7513,2.0719,2.3567,2.7514,2.9916,3.0472,3.1694,3.2853,3.3888,3.4638,3.5617,3.6755,3.7041,3.7723,3.8667,3.914,3.936,3.9394,3.9868,4.0358,4.0696,3.9225,3.8768,3.8413,3.3018,2.9783,2.7611,0.0,0.0,0.0,2.0227,1.9723,1.9824,2.0483,2.0525,1.9982,1.8553,1.9169,2.0474,2.1099,0.0,2.6966,2.8552,3.0878,3.3109,3.4248,3.4788,3.522,3.5459,3.3502,3.1754,3.1781,3.0586,3.0081,3.1524,3.2231,3.328,3.5244,3.4056,3.2746,3.194,3.1393,0.0,0.0,0.0,0.0,3.2982,3.4349,3.5265,3.5489,3.5504,3.5504,3.5504,3.5504,3.5504,3.5504,3.5504,3.5504,3.5504,3.504,3.477,3.4618,3.3593,3.3442,3.387,3.2688,3.2557,3.3125,3.2691,3.2901,3.3469,3.3245,3.3559,3.413,3.4042,3.4219,3.4496,0.0,0.0,0.0,0.0,0.0,0.0,0.0,0.0,0.0,0.0,0.0,0.0,0.0,0.0,0.0,0.0,0.0,0.0,0.0,0.0,1.6661,1.9344,2.2745,2.4925,2.5684,2.7577,2.9089,3.0162,3.1774,3.3222,3.4401,3.4881,3.5744,3.6916,3.7254,3.781,3.8444,3.8475,3.8744,3.887,3.6474,3.5363,3.4583,2.8758,2.5607,0.0,0.0,0.0,1.8466,1.6919,1.6802,1.7372,1.7899,1.8027,1.7972,1.8194,2.0064,2.2491,2.4454,2.7543,3.0657,3.2243,3.3933,3.531,3.5759,3.5669,3.537,3.4891,3.2676,3.0518,2.9607,2.7957,2.7241,2.8813,2.9612,3.1056,3.4027,3.323,3.229,3.2137,3.1561,3.0845,0.0,0.0,0.0,3.2322,3.3793,3.4878,3.512,3.5135,3.5235,3.5489,3.5504,3.5504,3.5504,3.5504,3.5619,3.5894,3.544,3.5477,3.5797,3.5022,3.4411,3.396,3.3521,3.2853,3.2123,3.2407,3.2617,3.2796,3.2796,3.3517,3.4607,3.4685,3.5582,3.6558,0.0,0.0,0.0,0.0,0.0,0.0,0.0,0.0,0.0,0.0,0.0,0.0,0.0,0.0,0.0,0.0,0.0,0.0,0.0,0.0,0.0,1.5208,1.6257,1.7096,1.7742,2.0859,2.3215,2.4711,2.7849,3.0112,3.1567,3.2052,3.3028,3.4329,3.4108,3.5011,3.6713,3.5606,3.5028,3.4627,3.1947,2.9832,2.7802,2.4099,0.0,0.0,0.0,0.0,0.0,1.4299,1.4466,1.4938,1.5258,1.6562,1.8489,2.1013,2.2428,2.4208,2.916,3.115,3.2602,3.5744,3.6507,3.6492,3.6492,3.5923,3.4996,3.3589,3.2602,3.121,0.0,0.0,2.6837,2.7375,2.7803,2.9097,3.2137,3.2556,3.2302,0.0,0.0,0.0,0.0,0.0,0.0,3.2514,0.0,3.3798,3.4445,3.446,3.485,3.5509,3.5619,3.5619,3.5554,3.5554,3.5928,3.6614,3.6645,3.7068,3.7799,3.7126,3.5474,3.3107,3.4291,3.2942,3.0078,3.188,3.2197,3.1569,3.1597,3.2856,3.4701,3.4789,3.6486,3.845,0.0,0.0,0.0,0.0,0.0,0.0,0.0,0.0,0.0,0.0,0.0,0.0,0.0,0.0,0.0,0.0,0.0,0.0,0.0,0.0,0.0,0.0,0.0,0.0,0.0,0.0,0.0,2.098,2.1815,2.2494,2.3033,2.3578,2.3791,2.3858,2.6064,2.7029,2.7061,2.842,2.8839,2.8499,0.0,2.6258,2.5196,0.0,0.0,0.0,0.0,0.0,0.0,0.0,0.0,0.0,1.8484,2.0342,2.2152,2.2582,2.5794,2.946,3.0283,3.3155,3.6118,3.6971,3.6821,3.6492,3.6492,3.5205,3.335,3.1061,2.7831,2.4724,0.0,0.0,0.0,2.5512,2.7529,0.0,3.3433,3.3454,0.0,3.2905,0.0,3.2936,3.2447,3.3517,0.0,0.0,3.4303,3.504,3.5205,3.5769,3.6137,3.6322,3.6874,3.6951,3.6337,3.6337,3.6473,3.6762,3.7261,3.7648,3.7953,3.7673,3.7456,3.7308,3.6598,3.5461,3.4044,3.41,3.3692,3.2988,3.3067,3.3719,3.4759,3.5861,3.6669,3.7305,0.0,0.0,0.0,0.0,0.0,0.0,0.0,0.0,0.0,0.0,0.0,0.0,0.0,0.0,0.0,0.0,0.0,0.0,0.0,0.0,0.0,0.0,0.0,0.0,0.0,0.0,0.0,0.0,0.0,0.0,1.8726,1.8918,1.9361,2.0018,2.1586,2.2743,2.3608,2.4168,0.0,0.0,0.0,0.0,0.0,0.0,0.0,0.0,0.0,0.0,0.0,0.0,0.0,1.9099,2.1495,2.3674,2.5583,2.6831,0.0,3.2617,3.3679,3.5863,3.7913,3.8212,3.7584,3.6432,3.4711,3.3006,3.0702,2.6901,2.3934,0.0,1.892,1.8658,0.0,0.0,0.0,0.0,3.2183,3.2812,3.3131,0.0,3.3856,0.0,3.434,3.4711,3.4796,0.0,3.4759,3.5201,3.5553,3.5926,3.6472,3.7144,3.7573,3.7573,3.7144,3.716,3.7351,3.7741,3.8107,3.851,3.8922,3.8813,3.836,3.7645,0.0,3.6628,3.4818,3.5058,3.4711,3.3967,3.3698,3.422,3.5207,3.6023,3.6903,3.7803,0.0,0.0,0.0,0.0,0.0,0.0,0.0,0.0,0.0,0.0,0.0,0.0,0.0,0.0,0.0,0.0,0.0,0.0,0.0,0.0,0.0,0.0,0.0,0.0,0.0,0.0,0.0,0.0,0.0,0.0,0.0,0.0,0.0,0.0,0.0,0.0,0.0,0.0,0.0,0.0,0.0,0.0,0.0,0.0,0.0,0.0,0.0,0.0,0.0,0.0,2.0557,2.0812,2.4659,2.7143,2.9175,3.1958,3.3425,3.4726,3.7404,3.8332,3.8646,3.9155,3.8212,3.6193,3.2512,3.0313,2.7604,2.2488,0.0,1.9491,1.7257,1.7418,1.8726,2.1198,0.0,2.6334,3.0058,3.1681,3.2931,3.414,3.4361,3.4682,3.5434,3.5404,3.5424,3.5604,3.5034,3.498,3.5721,3.5943,3.6653,3.806,3.7978,3.7978,3.8092,3.7978,3.8302,3.9086,3.9086,3.9437,4.007,4.007,3.879,3.6653,3.8328,3.7318,3.4552,3.5679,3.569,3.4876,3.4272,3.4725,3.5712,3.5811,3.7017,3.8582,0.0,0.0,0.0,0.0,0.0,0.0,0.0,0.0,0.0,0.0,0.3534,0.3728,0.0,0.0,0.0,0.0,0.0,0.0,0.0,0.0,0.0,0.0,0.0,0.0,0.0,0.0,0.0,0.0,0.0,0.0,0.0,0.0,0.0,0.0,0.0,0.0,0.0,0.0,0.0,0.0,0.0,0.0,0.0,0.0,0.0,0.0,0.0,0.0,0.0,0.0,2.3661,2.4761,2.905,3.2109,3.4128,3.4143,3.5759,3.7434,3.6956,3.8003,3.9125,3.8676,3.7195,3.522,3.2871,2.9205,0.0,0.0,1.8642,1.7044,1.5822,1.7111,1.9673,2.3611,0.0,0.0,0.0,0.0,3.3228,0.0,0.0,0.0,0.0,0.0,0.0,0.0,0.0,3.6259,3.644,3.7633,3.8731,3.9662,3.9032,3.9032,3.9679,3.9032,3.9086,3.9901,3.9901,3.9952,4.007,4.007,3.9868,3.9412,3.9733,0.0,3.8011,3.832,3.7635,3.635,3.6269,3.6001,3.5694,3.638,3.6426,3.6383,0.0,0.0,0.0,0.0,0.0,0.0,0.0,0.2851,0.3033,0.2818,0.2968,0.3127,0.3221,0.3157,0.0,0.0,0.0,0.0,0.0,0.0,0.0,0.0,0.0,0.0,0.0,0.0,0.5359,0.5503,0.0,0.0,0.0,0.7047,0.7242,0.0,0.0,0.0,0.0,0.0,0.0,0.0,0.0,0.0,0.0,0.0,0.0,0.0,0.0,0.0,0.0,0.0,2.1595,2.4015,3.1344,3.4973,3.6423,3.5737,3.7164,3.8698,3.7324,3.8174,3.926,3.8556,3.6941,3.4262,2.949,0.0,0.0,0.0,1.4827,1.4051,1.3737,1.5162,0.0,0.0,0.0,0.0,0.0,0.0,0.0,0.0,0.0,0.0,0.0,0.0,0.0,0.0,0.0,3.699,3.7783,3.8908,3.9714,4.007,3.9731,3.9714,4.0087,3.9731,3.9731,4.007,4.007,4.007,4.007,4.007,4.007,4.007,4.007,3.9661,3.8904,3.8984,3.8336,3.7217,3.6915,3.6552,3.6214,3.618,3.6197,3.6332,0.0,0.0,0.0,0.0,0.0,0.0,0.0,0.2252,0.2381,0.252,0.2702,0.2852,0.2935,0.3046,0.3238,0.0,0.0,0.0,0.0,0.0,0.0,0.0,0.0,0.0,0.0,0.0,0.0,0.5468,0.5803,0.0,0.0,0.0,0.0,0.0,0.8694,0.9062,0.0,0.0,0.0,0.0,0.0,0.0,0.0,0.0,0.0,0.0,0.0,0.0,0.0,0.0,1.8535,2.1542,3.0165,3.4233,3.5843,3.5723,3.723,3.8843,3.8095,3.875,3.9414,3.8447,3.6507,3.3095,2.6363,2.2877,0.0,1.3451,1.1999,1.1945,1.2464,0.0,1.5345,0.0,2.0404,0.0,0.0,0.0,0.0,0.0,0.0,0.0,0.0,0.0,0.0,0.0,0.0,0.0,3.909,3.9782,4.007,4.007,4.007,4.007,4.007,4.007,4.007,4.007,4.007,4.007,4.007,4.007,4.007,4.007,4.007,3.9572,3.8703,3.9088,3.8477,3.7293,3.7109,3.6823,3.6451,3.5842,3.5903,3.6316,0.0,0.0,0.0,0.0,0.0,0.0,0.0,0.2427,0.2643,0.2366,0.2664,0.2944,0.3073,0.3091,0.3238,0.0,0.0,0.0,0.0,0.0,0.0,0.0,0.0,0.0,0.0,0.0,0.0,0.47,0.5453,0.0,0.0,0.0,0.0,0.0,0.0,0.8034,0.8109,0.0,0.0,0.0,0.0,0.0,0.0,0.0,0.0,0.0,0.0,0.0,0.0,0.0,0.0,1.8688,2.2723,2.6903,3.0664,3.2524,0.0,0.0,3.8982,3.9967,4.0055,3.8,3.513,3.1509,2.6632,0.0,1.7969,1.4363,1.2658,1.2179,1.3415,1.377,0.0,0.0,0.0,2.0463,0.0,0.0,0.0,0.0,0.0,0.0,0.0,0.0,0.0,0.0,0.0,0.0,4.0003,4.007,4.007,4.007,4.007,4.007,4.007,4.007,4.007,4.007,4.007,4.007,4.007,4.007,4.007,4.007,4.007,3.9291,0.0,3.9443,3.8326,3.596,3.7293,3.6941,3.5723,3.5639,3.5241,3.4787,0.0,0.0,0.0,0.0,0.0,0.0,0.2142,0.247,0.2703,0.277,0.2917,0.3071,0.3203,0.322,0.3306,0.0,0.0,0.0,0.0,0.0,0.0,0.0,0.0,0.0,0.0,0.0,0.0,0.489,0.5744,0.0,0.0,0.0,0.0,0.0,0.0,0.7899,0.7885,0.0,0.0,0.0,0.0,0.0,0.0,0.0,0.0,0.0,0.0,0.0,0.0,0.0,0.0,0.0,1.4556,1.7638,0.0,0.0,3.1676,3.4883,3.6016,3.7826,3.9093,3.7729,3.4337,3.0088,2.545,0.0,1.704,1.3361,1.2179,1.1969,1.2508,1.2598,1.3359,0.0,0.0,0.0,2.369,0.0,0.0,0.0,0.0,0.0,0.0,0.0,0.0,0.0,0.0,0.0,4.0087,4.007,4.007,4.007,4.007,4.007,4.007,4.007,4.007,4.007,3.9631,3.9428,3.9428,3.9428,3.9428,3.9428,3.9428,3.7921,0.0,3.7827,3.6831,3.4077,3.6333,3.6857,3.6265,3.5791,3.5207,3.4576,0.0,0.0,0.0,0.0,0.0,0.1743,0.2198,0.2443,0.2701,0.3055,0.3136,0.3194,0.3298,0.3306,0.3323,0.3383,0.0,0.0,0.0,0.0,0.0,0.0,0.0,0.0,0.0,0.0,0.4613,0.5228,0.601,0.6672,0.0,0.0,0.787,0.7812,0.0,0.0,0.0,0.0,0.0,0.0,0.0,0.0,0.0,0.0,0.0,0.0,0.0,0.0,0.0,0.0,0.0,0.0,0.0,0.0,0.0,0.0,2.7882,3.243,3.3219,3.6162,3.8632,3.7195,3.3215,2.8532,0.0,0.0,1.5889,1.2508,1.1805,1.1805,1.1805,1.1805,1.2261,0.0,0.0,1.621,2.1164,0.0,0.0,0.0,0.0,0.0,0.0,0.0,0.0,0.0,0.0,0.0,4.007,4.007,4.007,4.007,4.007,3.9969,3.9766,3.9749,3.9648,3.9428,3.914,3.8531,3.7702,3.8802,3.8717,3.7719,3.8599,3.708,0.0,3.6814,3.5953,3.3203,3.579,3.6637,3.6366,3.5564,3.5005,3.4576,0.0,0.0,0.0,0.0,0.0,0.0,0.0,0.2374,0.2644,0.3055,0.3212,0.3306,0.3306,0.3306,0.3246,0.3118,0.0,0.0,0.0,0.0,0.0,0.0,0.0,0.0,0.0,0.0,0.0,0.5497,0.6104,0.6672,0.7211,0.768,0.7783,0.7605,0.0,0.0,0.0,0.0,0.0,0.0,0.0,0.0,0.0,0.0,0.0,0.0,0.0,0.0,0.0,0.0,0.0,0.0,0.0,0.0,0.0,0.0,2.3691,3.0291,3.1416,3.571,3.9184,3.6258,3.1524,2.6786,0.0,0.0,1.4244,1.2224,1.1805,1.1805,1.1805,1.1805,1.2335,1.3929,1.4739,0.0,1.9399,0.0,0.0,0.0,0.0,0.0,0.0,0.0,0.0,0.0,0.0,0.0,4.007,4.007,4.007,4.007,4.007,3.9732,3.9005,3.9005,3.865,3.7939,3.865,3.7432,3.4658,3.8379,3.8041,3.4709,3.7686,3.7315,0.0,3.6992,3.6145,3.37,3.5917,3.6315,3.5532,3.4847,3.4624,3.4528,0.0,0.0,0.0,0.0,0.0,0.0,0.0,0.2443,0.2692,0.3055,0.3062,0.3005,0.2962,0.2996,0.3005,0.2972,0.0,0.0,0.0,0.0,0.0,0.0,0.0,0.0,0.0,0.0,0.4584,0.4414,0.5607,0.6293,0.6455,0.6744,0.7042,0.7332,0.7332,0.0,0.0,0.0,0.0,0.0,0.0,0.0,0.0,0.0,0.0,0.0,0.0,0.0,0.0,0.0,0.0,0.0,0.0,0.0,0.0,0.0,0.0,0.0,2.4958,2.7225,2.8682,2.7829,2.4536,2.1006,1.9061,1.5919,1.313,1.2029,1.1805,1.1805,1.1805,1.1805,1.2261,1.3694,1.4628,0.0,0.0,0.0,0.0,0.0,0.0,0.0,0.0,0.0,0.0,0.0,0.0,0.0,3.8492,3.8533,3.8755,3.9326,3.9343,3.8988,3.8261,3.8261,3.8142,3.7905,3.7618,3.6026,3.3466,3.6477,3.6177,3.35,3.6291,3.5666,3.2818,3.5308,3.4157,3.1134,3.4133,3.5157,3.4847,3.4186,3.4186,3.4479,0.0,0.0,0.0,0.0,0.0,0.0,0.0,0.2394,0.2606,0.2935,0.2935,0.2889,0.2843,0.2815,0.2804,0.2861,0.0,0.0,0.0,0.0,0.0,0.0,0.0,0.0,0.0,0.3959,0.4305,0.3901,0.5202,0.5821,0.5794,0.6047,0.6394,0.6787,0.6787,0.0,0.0,0.0,0.0,0.0,0.0,0.0,0.5174,0.0,0.0,0.0,0.0,0.0,0.0,0.0,0.0,0.0,0.0,0.0,0.0,0.0,1.2567,1.587,0.0,2.1741,2.3309,2.2863,2.018,0.0,0.0,1.3765,1.164,1.1461,1.182,1.2089,1.185,1.2209,1.2629,1.2886,1.4729,0.0,0.0,0.0,0.0,0.0,0.0,0.0,0.0,0.0,0.0,0.0,0.0,0.0,3.703,3.7031,3.7154,3.7386,3.8152,3.8227,3.7483,3.7483,3.733,3.7043,3.6857,3.5346,3.2713,3.5819,3.5503,3.2763,3.5566,3.5141,0.0,3.4466,3.3452,3.0963,3.3275,3.4345,3.4495,3.3844,3.4153,3.4894,0.0,0.0,0.0,0.0,0.0,0.0,0.0,0.0,0.2413,0.2731,0.2824,0.286,0.286,0.2682,0.2626,0.274,0.0,0.0,0.0,0.0,0.0,0.0,0.0,0.0,0.0,0.3598,0.3934,0.383,0.4816,0.5276,0.5219,0.5537,0.5802,0.6031,0.6042,0.6095,0.0,0.0,0.0,0.0,0.0,0.0,0.0,0.0,0.0,0.0,0.0,0.0,0.0,0.0,0.0,0.0,0.0,0.0,0.0,0.0,0.0,0.0,0.0,1.847,2.1506,2.0207,0.0,0.0,0.0,0.0,0.0,1.0783,1.1925,1.2636,1.2044,1.3047,1.3446,1.1939,1.5128,0.0,0.0,0.0,0.0,0.0,0.0,0.0,0.0,0.0,0.0,0.0,0.0,3.631,3.5655,3.563,3.531,3.4617,3.6539,3.7303,3.6641,3.6688,3.6265,3.5341,3.6282,3.5064,3.209,3.5903,3.5695,0.0,3.5313,3.5462,3.3633,3.4333,3.3754,3.2609,3.3307,3.3966,3.4523,3.3818,3.4451,3.5633,0.0,0.0,0.0,0.0,0.0,0.0,0.0,0.0,0.0,0.0,0.251,0.252,0.252,0.2383,0.2304,0.0,0.0,0.0,0.0,0.0,0.0,0.0,0.0,0.0,0.0,0.3396,0.3615,0.3132,0.3986,0.4393,0.4384,0.4472,0.4773,0.5266,0.547,0.5606,0.567,0.0,0.0,0.0,0.0,0.0,0.0,0.0,0.0,0.0,0.5761,0.6695,0.0,0.0,0.0,0.0,0.0,0.0,0.0,0.0,0.9653,0.9235,0.9638,0.0,1.2138,1.202,1.1237,1.0481,0.0,0.0,0.0,0.0,0.0,1.2921,1.3271,1.4423,1.4947,1.3768,1.628,1.8783,0.0,0.0,0.0,0.0,0.0,0.0,0.0,0.0,0.0,0.0,0.0,3.4211,3.4044,3.4032,3.3982,3.377,3.4322,3.4775,3.5112,3.5631,3.4751,3.266,3.4846,3.3409,2.8919,3.3363,3.4093,3.195,3.3614,3.4064,3.3633,3.4333,3.3448,3.1834,3.3632,3.4346,3.4359,3.4157,3.5243,3.6729,0.0,0.0,0.0,0.0,0.0,0.0,0.0,0.0,0.0,0.0,0.0,0.0,0.0,0.0,0.0,0.0,0.0,0.0,0.0,0.0,0.0,0.0,0.0,0.0,0.2393,0.2991,0.3174,0.2896,0.3525,0.3799,0.3729,0.3799,0.4146,0.4746,0.5266,0.5426,0.5315,0.5314,0.5069,0.0,0.4567,0.0,0.0,0.0,0.0,0.0,0.5361,0.6318,0.0,0.8172,0.9383,1.0556,0.0,0.0,0.0,0.0,0.9653,0.9143,0.8169,0.8154,0.8696,0.972,0.9213,0.8664,0.9578,0.0,0.0,0.0,0.0,1.2674,1.3773,1.4643,1.5077,1.4717,1.6847,0.0,0.0,0.0,0.0,0.0,0.0,0.0,0.0,0.0,0.0,0.0,3.3276,3.2766,3.2153,3.2137,3.2013,3.1723,3.2321,3.3274,3.4576,3.4941,3.3968,3.1722,3.4028,3.2974,2.91,3.2851,3.3991,3.2981,3.282,3.3063,3.3502,3.2981,3.2563,3.2364,3.3881,3.4711,3.5112,3.5104,3.5995,3.7117,0.0,0.0,0.0,0.0,0.0,0.0,0.0,0.0,0.0,0.0,0.0,0.0,0.0,0.0,0.0,0.0,0.0,0.0,0.0,0.0,0.0,0.0,0.0,0.2235,0.2364,0.2587,0.2766,0.2896,0.3285,0.3412,0.3306,0.3412,0.3674,0.4079,0.4989,0.5243,0.5008,0.5072,0.4952,0.0,0.4406,0.0,0.0,0.0,0.0,0.0,0.0,0.0,0.0,0.7729,0.8874,1.0046,1.0703,0.0,0.0,0.0,0.0,0.0,0.8244,0.7974,0.8469,1.0234,0.9276,0.8409,1.035,0.0,0.0,0.0,0.0,0.0,0.0,0.0,0.0,0.0,0.0,0.0,0.0,0.0,0.0,0.0,0.0,0.0,0.0,0.0,0.0,3.2422,3.2362,3.1824,3.0567,3.0507,3.0223,2.9609,3.0627,3.2144,3.4086,3.4409,3.3495,3.1394,3.3409,3.2966,3.0427,3.2914,3.424,3.4421,0.0,0.0,3.3499,3.1821,3.1925,3.3184,3.4015,3.5053,3.6085,3.6148,3.6756,3.7542,0.0,0.0,0.0,0.0,0.0,0.0,0.0,0.0,0.0,0.0,0.0,0.0,0.0,0.0,0.0,0.0,0.0,0.0,0.0,0.0,0.0,0.0,0.2023,0.2094,0.2225,0.2539,0.2766,0.2896,0.3182,0.3323,0.3306,0.3323,0.2986,0.2428,0.381,0.4482,0.4617,0.4951,0.4952,0.4666,0.4406,0.0,0.0,0.0,0.0,0.0,0.0,0.0,0.0,0.8234,0.9052,0.9805,1.0647,0.0,0.0,0.0,0.0,0.0,0.8109,0.8304,0.8965,0.9815,0.8947,0.8409,1.035,0.0,0.0,0.0,0.0,0.0,0.0,0.0,0.0,0.0,0.0,0.0,0.0,0.0,0.0,0.0,0.0,0.0,0.0,0.0,3.2392,3.1676,3.1616,3.1345,3.0552,3.0507,3.0223,2.9609,2.9765,3.0531,3.1935,3.3649,3.2912,2.9895,3.2471,3.2276,2.9599,3.1222,3.2883,3.4428,0.0,3.3041,3.4085,3.3762,3.3246,3.2818,3.4115,3.5221,3.617,3.6803,3.796,3.9163,0.0,0.0,0.0,0.0,0.0,0.0,0.0,0.0,0.0,0.0,0.0,0.0,0.0,0.0,0.0,0.0,0.0,0.0,0.0,0.0,0.0,0.1727,0.1904,0.2161,0.2514,0.2646,0.2804,0.3008,0.3212,0.3003,0.2461,0.366,0.3897,0.3349,0.4463,0.4815,0.457,0.4791,0.4646,0.4252,0.0,0.0,0.0,0.0,0.0,0.0,0.0,0.0,0.0,0.0,0.865,0.9289,1.0298,0.0,0.0,0.0,0.0,0.0,0.802,0.8035,0.873,1.0917,1.0204,0.986,1.3217,0.0,0.0,0.0,0.0,0.0,0.0,0.0,0.0,0.0,0.0,0.0,0.0,0.0,0.0,0.0,0.0,0.0,0.0,3.1305,3.1795,3.1497,3.118,3.0687,3.0043,2.9669,2.9175,2.8517,2.8834,2.9477,3.0398,3.2036,3.1533,2.9005,3.1626,3.129,2.8421,3.081,3.2562,3.359,0.0,3.2235,3.3813,3.2758,3.2856,3.3684,3.4724,3.5647,3.6544,3.7471,3.7978,3.8346,0.0,0.0,0.0,0.0,0.0,0.0,0.0,0.0,0.0,0.0,0.0,0.0,0.0,0.0,0.0,0.0,0.0,0.0,0.0,0.0,0.1542,0.1751,0.1958,0.2235,0.2598,0.2644,0.2786,0.3055,0.322,0.2612,0.1341,0.3357,0.4514,0.492,0.5198,0.5072,0.4667,0.4687,0.4466,0.4089,0.0,0.0,0.0,0.0,0.0,0.0,0.0,0.0,0.0,0.0,0.0,0.0,0.0,0.0,0.0,0.915,0.852,0.7949,0.7856,0.7812,0.8583,1.1762,0.0,1.1012,1.6219,0.0,0.0,0.0,0.0,0.0,0.0,0.0,0.0,0.0,0.0,0.0,0.0,0.0,0.0,0.0,0.0,0.0,3.1215,3.1448,3.1482,3.1482,3.0896,3.0238,2.9609,2.8951,2.8278,2.764,2.8189,2.8807,2.9465,3.0554,3.0451,2.9194,3.1133,3.0807,2.8516,3.0918,3.241,3.3065,3.1634,3.2109,3.3743,3.2317,3.276,3.4393,3.4909,3.5679,3.6633,3.7728,3.7783,3.7484,0.0,0.0,0.0,0.0,0.0,0.0,0.0,0.0,0.0,0.0,0.0,0.0,0.0,0.0,0.0,0.0,0.0,0.0,0.0,0.0,0.1671,0.2486,0.2372,0.2205,0.2061,0.2354,0.2653,0.2906,0.3173,0.2208,0.0156,0.1561,0.373,0.6382,0.5065,0.4631,0.4871,0.4744,0.4666,0.4626,0.4366,0.0,0.0,0.0,0.0,0.0,0.0,0.0,0.0,0.0,0.0,0.0,0.0,0.0,0.8583,0.8062,0.76,0.7328,0.7559,0.8024,0.8984,1.1314,1.0417,0.0,1.7864,1.5918,0.0,0.0,0.0,0.0,0.0,0.0,0.0,0.0,0.0,0.0,0.0,0.0,0.0,0.0,0.0,3.2431,3.247,3.189,3.1482,3.1482,3.0896,3.0238,2.9609,2.8951,2.8278,2.764,2.8189,2.8811,2.9396,3.006,3.0613,3.1084,3.1358,3.1472,3.1453,3.1215,3.2001,3.3564,3.3666,3.4075,3.4611,3.4483,3.4347,3.4197,3.3997,3.4773,3.6092,3.7224,3.7764,3.7943,0.0,0.0,0.0,0.0,0.0,0.0,0.0,0.0,0.0,0.0,0.0,0.0,0.0,0.0,0.0,0.0,0.0,0.0,0.0,0.0,0.1707,0.2324,0.2312,0.2365,0.2501,0.2747,0.296,0.3147,0.1868,0.1646,0.241,0.2009,0.3086,0.5331,0.4688,0.4525,0.4697,0.4436,0.4376,0.4429,0.4067,0.4022,0.0,0.0,0.0,0.0,0.0,0.0,0.0,0.0,0.6673,0.7234,0.7626,0.771,0.7683,0.7777,0.7101,0.6417,0.6757,0.7173,0.8121,1.067,0.0,0.0,0.0,0.0,0.0,0.0,0.0,0.0,0.0,0.0,0.0,0.0,0.0,0.0,0.0,0.0,0.0,0.0,0.0,3.1618,3.1188,3.0421,2.995,2.995,2.9435,2.9039,2.882,2.8254,2.7844,2.7625,2.781,2.84,2.9406,2.9629,3.0254,3.1256,3.1534,3.1526,3.1278,3.1882,3.2692,3.3622,3.3881,3.4259,3.4699,3.4699,3.4641,3.4508,3.4398,3.4562,3.4989,3.6116,3.6405,3.6342,0.0,0.0,0.0,0.0,0.0,0.0,0.0,0.0,0.0,0.0,0.0,0.0,0.0,0.0,0.0,0.0,0.0,0.0,0.0,0.1537,0.1929,0.2517,0.2612,0.2804,0.3135,0.3158,0.2865,0.2259,0.0745,0.163,0.4723,0.3447,0.3694,0.5216,0.4831,0.4788,0.4961,0.4368,0.4157,0.4204,0.379,0.3683,0.0,0.0,0.0,0.0,0.0,0.0,0.0,0.0,0.5954,0.6425,0.0,0.6796,0.6856,0.7106,0.6522,0.5916,0.6428,0.6718,0.7535,0.0,0.0,0.0,0.0,0.0,0.0,0.0,0.0,0.0,0.0,0.0,0.0,0.0,0.0,0.0,0.0,0.0,0.0,0.0,3.1332,3.0646,2.9725,2.9086,2.8754,2.8806,2.8324,2.815,2.8388,2.7899,2.752,2.726,2.7655,2.8163,2.8801,2.9383,3.0175,3.1106,3.1716,3.1846,3.1582,3.2634,3.3405,3.3963,3.4229,3.454,3.4832,3.4832,3.4793,3.4694,3.4572,3.4486,3.4435,3.5112,3.5247,3.5274,0.0,0.0,0.0,0.0,0.0,0.0,0.0,0.0,0.0,0.0,0.0,0.0,0.0,0.0,0.0,0.0,0.0,0.0,0.0,0.1922,0.238,0.3257,0.3361,0.356,0.3884,0.3499,0.2221,0.0038,0.0038,0.2279,0.6549,0.5699,0.5736,0.6532,0.5602,0.5445,0.58,0.4615,0.4105,0.4052,0.3662,0.3306,0.3061,0.0,0.0,0.0,0.0,0.0,0.0,0.0,0.5521,0.5686,0.0,0.0,0.0,0.5901,0.58,0.5946,0.6701,0.6908,0.0,0.0,0.0,0.0,0.0,0.0,0.0,0.0,0.0,0.0,0.0,0.0,0.0,0.0,0.0,0.0,0.0,0.0,0.0,3.0389,3.0254,2.9708,2.8344,2.8166,2.8264,2.8382,2.7833,2.7788,2.8525,2.7934,2.726,2.6602,2.7821,2.817,2.7503,2.9345,3.0476,3.092,3.2004,3.2638,3.2925,3.3415,3.4006,3.4714,3.4981,3.5105,3.5105,3.5105,3.4944,3.4674,3.4334,3.4401,3.4653,3.4334,3.4595,3.5105,0.0,0.0,0.0,0.0,0.0,0.0,0.0,0.0,0.0,0.0,0.0,0.0,0.0,0.0,0.0,0.0,0.0,0.0,0.0,0.1698,0.2269,0.3196,0.3155,0.3384,0.3957,0.2928,0.237,0.2322,0.2322,0.3298,0.5164,0.4297,0.4275,0.4972,0.4987,0.4804,0.4539,0.5165,0.4734,0.3608,0.3485,0.3518,0.3594,0.0,0.0,0.0,0.0,0.0,0.0,0.0,0.0,0.0,0.533,0.0,0.6197,0.7254,0.639,0.5415,0.6865,0.0,0.0,0.0,0.0,0.0,0.0,0.0,0.0,0.0,0.0,0.0,0.0,0.0,0.0,0.0,0.0,0.0,0.0,0.0,0.0,2.9665,2.9054,2.8298,2.7386,2.6737,2.6245,2.5861,2.5881,2.5966,2.62,2.6205,2.6093,2.5899,2.672,2.7456,2.8132,2.9143,3.0294,3.1554,3.2178,3.2813,3.3396,3.4078,3.4615,3.4999,3.5254,3.5383,3.5383,3.5383,3.4742,3.3824,3.4346,3.4353,3.4037,3.3954,3.4307,3.4832,0.0,0.0,0.0,0.0,0.0,0.0,0.0,0.0,0.0,0.0,0.0,0.0,0.0,0.0,0.0,0.0,0.0,0.0,0.0,0.0,0.2572,0.3142,0.3398,0.3717,0.4114,0.2857,0.272,0.3777,0.3348,0.3704,0.4746,0.4004,0.3992,0.4576,0.4721,0.4553,0.4218,0.4798,0.4406,0.3395,0.3395,0.3489,0.3576,0.0,0.0,0.0,0.0,0.0,0.0,0.0,0.0,0.0,0.4638,0.0,0.0,0.6816,0.6396,0.6043,0.7514,0.0,0.0,0.0,0.0,0.0,0.0,0.0,0.0,0.0,0.0,0.0,0.0,0.0,0.0,0.0,0.0,0.0,0.0,0.0,2.9274,2.8166,2.7278,2.644,2.5779,2.4796,2.4178,2.4272,2.4436,2.4706,2.5012,2.536,2.5495,2.5226,2.6108,2.6947,2.7632,2.8822,3.0084,3.1462,3.2178,3.2893,3.3613,3.4228,3.4655,3.4944,3.5105,3.4805,3.4194,3.4399,3.3771,3.2743,3.3019,3.2988,3.2842,3.3049,3.3568,3.4243,0.0,0.0,0.0,0.0,0.0,0.0,0.0,0.0,0.0,0.0,0.0,0.0,0.0,0.0,0.0,0.0,0.0,0.0,0.0,0.0,0.3066,0.3169,0.3907,0.4305,0.4274,0.3164,0.3193,0.4436,0.3422,0.363,0.4933,0.4408,0.4426,0.4896,0.4732,0.4577,0.4439,0.3963,0.3598,0.3346,0.3334,0.3281,0.3187,0.3151,0.0,0.0,0.0,0.0,0.0,0.0,0.0,0.0,0.3857,0.4899,0.5843,0.5338,0.6099,0.7347,0.8477,0.0,0.0,0.0,0.0,0.0,0.0,0.0,0.0,0.0,0.0,0.0,0.0,0.0,0.0,0.0,0.0,0.0,0.0,0.0,2.7611,2.6086,2.5138,2.4394,2.3879,2.2627,2.2236,2.3175,2.3378,2.3761,2.4494,2.5044,2.5105,2.4507,2.5809,2.6516,2.6567,2.8402,2.9842,3.0874,3.1795,3.2616,3.3331,3.392,3.4323,3.4521,3.4427,3.3427,3.1958,3.2465,3.2151,3.1318,3.0745,3.0784,3.1199,3.1719,3.2502,3.3428,0.0,0.0,0.0,0.0,0.0,0.0,0.0,0.0,0.0,0.0,0.0,0.0,0.0,0.0,0.0,0.0,0.0,0.0,0.0,0.0,0.2781,0.3681,0.4195,0.4362,0.4147,0.358,0.3481,0.3861,0.3485,0.3715,0.4517,0.4087,0.3973,0.4161,0.4736,0.4468,0.3645,0.4603,0.4204,0.2927,0.2807,0.2952,0.3159,0.2846,0.2928,0.0,0.0,0.0,0.0,0.0,0.0,0.0,0.4036,0.4362,0.4779,0.5687,0.6497,0.7452,0.0,0.8968,0.0,0.0,0.0,0.0,0.0,0.0,0.0,0.0,0.0,0.0,0.0,0.0,0.0,0.0,0.0,0.0,0.0,2.6491,2.5654,2.4448,2.3419,2.273,2.2394,2.1752,2.152,2.185,2.1969,2.2353,2.3041,2.3216,2.3465,2.3819,2.5121,2.6245,2.7195,2.8083,2.9272,3.0731,3.0369,3.0518,3.1088,3.3227,3.3855,3.3237,3.2292,3.1062,2.9831,3.0558,3.0016,2.8776,2.9259,2.9634,2.9942,3.0386,3.1438,3.2771,0.0,0.0,0.0,0.0,0.0,0.0,0.0,0.0,0.0,0.0,0.0,0.0,0.0,0.0,0.0,0.0,0.0,0.0,0.0,0.0,0.0,0.386,0.4034,0.415,0.4204,0.3516,0.3442,0.3977,0.3624,0.0,0.0,0.0,0.0,0.3535,0.0,0.3843,0.325,0.3995,0.3718,0.2811,0.3008,0.3181,0.3324,0.3118,0.303,0.2938,0.2319,0.0,0.0,0.0,0.0,0.0,0.0,0.0,0.4731,0.5022,0.5779,0.6825,0.0,0.0,0.0,0.0,0.0,0.0,0.0,0.0,0.0,0.0,0.0,0.0,0.0,0.0,0.0,0.0,0.0,0.0,0.0,2.45,2.3599,2.234,2.1636,2.1241,2.1212,2.0653,2.0402,2.0673,2.0772,2.0851,2.0928,2.1509,2.2144,2.2789,2.4011,2.5409,2.6864,2.7528,2.8526,2.9865,2.9678,2.9659,2.9834,3.1556,3.1871,3.1075,3.0802,2.9755,2.8177,2.8486,2.7749,2.6453,2.6662,2.7125,2.7794,2.9055,3.0523,3.2053,0.0,0.0,0.0,0.0,0.0,0.0,0.0,0.0,0.0,0.0,0.0,0.0,0.0,0.0,0.0,0.0,0.0,0.0,0.0,0.0,0.0,0.0,0.3843,0.3934,0.4224,0.3471,0.3427,0.4171,0.0,0.0,0.0,0.0,0.0,0.3501,0.0,0.346,0.3064,0.3055,0.2972,0.2867,0.3288,0.3407,0.3316,0.3365,0.3037,0.2525,0.2157,0.187,0.1758,0.2312,0.0,0.0,0.0,0.0,0.4595,0.3853,0.4734,0.6098,0.0,0.0,0.0,0.0,0.0,0.0,0.0,0.0,0.0,0.0,0.0,0.0,0.0,0.0,0.0,0.0,0.0,0.0,2.3525,2.2655,2.1658,2.0382,1.9859,1.9764,2.0067,1.9491,1.9275,1.9647,1.9778,1.9627,1.9158,2.0039,2.0957,2.1686,2.2915,2.4342,2.591,2.6574,2.7401,2.8435,2.8596,2.8589,2.8405,2.9011,2.9029,2.8647,2.9022,2.8206,2.6563,2.6203,2.54,2.4398,2.4066,2.4477,2.5505,2.7743,2.9519,3.1109,0.0,0.0,0.0,0.0,0.0,0.0,0.0,0.0,0.0,0.0,0.0,0.0,0.0,0.0,0.0,0.0,0.0,0.0,0.2172,0.0,0.0,0.389,0.4103,0.4143,0.3945,0.4104,0.4002,0.3605,0.0,0.0,0.0,0.0,0.0,0.5101,0.0,0.0,0.2926,0.2861,0.2888,0.2964,0.2931,0.2769,0.2571,0.2801,0.238,0.1715,0.2054,0.19,0.158,0.1952,0.2145,0.0,0.0,0.0,0.2907,0.267,0.4255,0.6073,0.0,0.0,0.0,0.0,0.0,0.0,0.0,0.0,0.0,0.0,0.0,0.0,0.0,0.0,0.0,0.0,0.0,0.0,2.2655,2.1272,2.0017,1.9559,1.8353,1.7879,1.8738,1.8401,1.8389,1.9083,1.9107,1.9131,1.9112,1.9243,1.9864,2.0994,2.2308,2.3486,2.4452,2.5096,2.5635,2.6048,2.5467,2.5156,2.5115,2.5217,2.5773,2.6586,2.5317,2.4661,2.4438,2.3451,2.3068,2.2995,2.2921,2.3274,2.407,2.6308,2.8039,2.9454,0.0,0.0,0.0,0.0,0.0,0.0,0.0,0.0,0.0,0.0,0.0,0.0,0.0,0.0,0.0,0.141,0.1655,0.192,0.2176,0.3023,0.3479,0.345,0.3862,0.3952,0.3689,0.3822,0.3846,0.0,0.0,0.0,0.0,0.7621,0.7013,0.0,0.0,0.0,0.0,0.0,0.3917,0.2666,0.2682,0.2529,0.229,0.2338,0.1993,0.1522,0.1649,0.1678,0.1741,0.2185,0.2378,0.2521,0.3066,0.0,0.0,0.0,0.3294,0.0,0.7149,0.0,0.0,0.0,0.0,0.0,0.0,0.0,0.0,0.0,0.0,0.0,0.0,0.0,0.0,0.0,0.0,0.0,2.1605,2.0332,1.9043,1.8207,1.7896,1.7715,1.776,1.7956,1.8068,1.8081,1.8103,1.7979,1.7637,1.7965,1.8534,1.9418,2.0611,2.1724,2.28,2.3597,2.43,2.4966,2.4222,2.3866,2.3849,2.3184,2.365,2.4915,2.4198,2.3837,2.3599,2.2416,2.2251,2.2649,2.23,2.2712,2.3694,2.5485,2.7091,2.8565,0.0,0.0,0.0,0.0,0.0,0.0,0.0,0.0,0.0,0.0,0.0,0.0,0.0,0.0,0.0,0.0,0.1794,0.1916,0.2242,0.2826,0.3128,0.3051,0.3398,0.3507,0.3309,0.3356,0.0,0.0,0.0,0.0,0.7975,0.8464,0.7981,0.0,0.8186,0.0,0.0,0.0,0.0,0.0,0.3413,0.2893,0.2092,0.205,0.1741,0.134,0.1284,0.1445,0.1736,0.2175,0.2374,0.2567,0.3296,0.3019,0.0,0.0,0.0,0.0,0.0,0.0,0.0,0.0,0.0,0.0,0.0,0.0,0.0,0.0,0.0,0.0,0.0,0.0,0.0,0.0,0.0,0.0,2.0612,1.9485,1.8219,1.7315,1.7513,1.7629,1.7207,1.7684,1.7827,1.7413,1.7388,1.7137,1.6547,1.6923,1.7434,1.8044,1.8979,2.0034,2.1166,2.2122,2.2914,2.3608,2.3056,2.2775,2.2759,2.1845,2.2003,2.2997,2.2997,2.2872,2.2593,2.1509,2.1524,2.2178,2.1676,2.2207,2.345,2.4737,2.6148,2.7476,0.0,0.0,0.0,0.0,0.0,0.0,0.0,0.0,0.0,0.0,0.0,0.0,0.0,0.1252,0.1185,0.1753,0.1809,0.1955,0.2376,0.2317,0.2453,0.2895,0.2815,0.0,0.274,0.3001,0.0,0.0,0.0,0.0,0.5704,0.7551,0.8341,0.8177,0.8172,0.8564,0.914,0.0,0.0,0.0,0.0,0.0,0.0,0.0,0.1616,0.0,0.0,0.1256,0.1351,0.1506,0.1774,0.2083,0.2387,0.2529,0.2564,0.0,0.0,0.0,0.0,0.0,0.0,0.0,0.0,0.0,0.0,0.0,0.0,0.0,0.0,0.0,0.0,0.0,0.0,0.0,0.0,1.9224,1.986,1.8529,1.7471,1.7368,1.6892,1.6823,1.7318,1.7426,1.7413,1.7388,1.7388,1.7137,1.6547,1.6547,1.6791,1.731,1.8033,1.8823,1.969,2.0644,2.1135,2.1167,2.1135,2.1119,2.1119,2.1055,2.0828,2.0491,2.0491,2.0553,2.0609,2.0091,2.0343,2.0986,2.0896,2.1608,2.2875,2.409,2.501,2.5806,0.0,0.0,0.0,0.0,0.0,0.0,0.0,0.0,0.0,0.0,0.0,0.0,0.0,0.16,0.164,0.2015,0.1966,0.2015,0.2249,0.2228,0.23,0.2568,0.2662,0.2697,0.2697,0.2796,0.0,0.0,0.0,0.414,0.5406,0.6265,0.7156,0.8189,1.1154,1.0466,0.7244,0.9592,0.0,0.0,0.0,0.0,0.0,0.0,0.0,0.0,0.0,0.0,0.387,0.2249,0.1939,0.2337,0.2773,0.2712,0.2444,0.2315,0.0,0.0,0.0,0.0,0.0,0.0,0.0,0.0,0.0,0.0,0.0,0.0,0.0,0.0,0.0,0.0,0.0,0.0,0.0,1.8508,1.8814,1.7998,1.7188,1.6867,1.6647,1.6597,1.681,1.6823,1.6823,1.6823,1.5598,1.532,1.6459,1.5257,1.5196,1.6744,1.7356,1.8125,1.9067,1.9768,2.0234,2.0487,2.083,2.0991,2.0991,2.0682,2.0449,2.028,2.0035,2.0004,2.0109,1.9894,2.0255,2.0926,2.124,2.1906,2.2786,2.3601,2.4115,2.4432,0.0,0.0,0.0,0.0,0.0,0.0,0.0,0.0,0.0,0.0,0.0,0.0,0.0,0.0,0.1797,0.2165,0.2097,0.2097,0.2249,0.2232,0.2239,0.2306,0.2359,0.2398,0.2394,0.2435,0.0,0.0,0.0,0.0,0.0,0.5117,0.5947,0.69,1.0849,1.091,0.0,0.0,0.0,0.5592,0.0,0.0,0.3455,0.0,0.0,0.0,0.0,0.0,0.0,0.3914,0.3351,0.3139,0.375,0.34,0.0,0.0,0.0,0.0,0.0,0.0,0.0,0.0,0.0,0.0,0.0,0.0,0.0,0.0,0.0,0.0,0.0,0.0,0.0,0.0,0.0,1.7842,1.7954,1.7437,1.6909,1.6552,1.6522,1.6522,1.6522,1.6522,1.6522,1.6522,1.5232,0.0,1.6434,1.5207,1.5145,1.6714,1.7312,1.7959,1.8821,1.9368,1.9778,2.0062,2.0366,2.0565,2.0532,2.0227,2.0089,2.0089,1.9818,1.9545,1.9308,1.9642,1.9978,2.0371,2.1074,2.1917,2.2768,2.3131,2.3334,2.3374,0.0,0.0,0.0,0.0,0.0,0.0,0.0,0.0,0.0,0.0,0.0,0.0,0.0,0.0,0.0,0.2168,0.2162,0.2195,0.2401,0.2283,0.2174,0.209,0.1905,0.1791,0.1799,0.192,0.0,0.0,0.0,0.0,0.0,0.0,0.4771,0.4423,0.6815,0.9585,1.2432,0.0,1.2253,1.1867,0.0,0.9659,0.7112,0.0,0.0,0.0,0.7861,0.673,0.0,0.6406,0.0,0.0,0.0,0.0,0.0,0.0,0.0,0.0,0.0,0.0,0.0,0.0,0.0,0.0,0.0,0.0,0.0,0.0,0.0,0.0,0.0,0.0,0.0,0.0,0.0,1.7271,1.7271,1.6837,1.6522,1.6522,1.6522,1.6522,1.6522,1.6522,1.6522,1.6522,1.6459,1.6446,1.6522,1.6522,1.6752,1.7312,1.7827,1.8341,1.8855,1.9406,1.969,1.9639,1.969,1.969,1.969,1.969,1.969,1.969,1.969,1.9095,1.8226,1.9239,1.9454,1.9238,2.0328,2.1547,2.2724,2.2739,2.2687,2.2649,0.0,0.0,0.0,0.0,0.0,0.0,0.0,0.0,0.0,0.0,0.0,0.0,0.0,0.0,0.2377,0.2539,0.2462,0.2462,0.2589,0.2321,0.2004,0.167,0.1609,0.1611,0.1652,0.1689,0.0,0.0,0.0,0.0,0.0,0.0,0.0,0.0,0.2721,0.4851,0.8279,1.09,0.0,0.0,1.2414,0.9043,0.0,0.0,0.0,0.0,0.0,0.7596,0.6868,0.0,0.6285,0.4316,0.0,0.0,0.0,0.0,0.0,0.0,0.1565,0.0,0.0,0.0,0.0,0.0,0.0,0.0,0.0,0.0,0.0,0.0,0.0,0.0,0.0,0.0,0.0,1.671,1.671,1.6595,1.6522,1.6522,1.6522,1.6522,1.6522,1.6522,1.6522,0.0,1.5118,1.4904,1.6434,1.6879,1.7312,1.7867,1.8027,1.8185,1.8341,1.8855,1.893,1.8535,1.893,1.9132,1.9132,1.9132,1.9332,1.969,1.969,1.9332,1.8745,1.9412,1.9684,1.9798,2.0983,2.1957,2.2727,2.3176,2.2745,2.2053,0.0,0.0,0.0,0.0,0.0,0.0,0.0,0.0,0.0,0.0,0.0,0.0,0.0,0.0,0.2625,0.2686,0.264,0.2627,0.269,0.2259,0.1761,0.1284,0.1488,0.1616,0.1593,0.1648,0.1679,0.0,0.0,0.0,0.0,0.0,0.0,0.0,0.0,0.0,0.0,0.0,0.0,0.0,1.357,0.0,0.0,1.0011,0.9871,0.0,0.0,0.0,0.8736,1.0042,0.8489,0.0,0.0,0.0,0.0,0.0,0.0,0.0,0.0,0.0,0.0,0.0,0.0,0.0,0.421,0.6471,0.0,0.0,0.0,0.0,0.0,0.0,0.0,0.0,0.0,1.5522,1.6384,1.6522,1.6522,1.6522,1.6522,1.6522,1.6522,1.6522,1.6522,1.6522,1.5369,1.531,1.676,1.7353,1.7867,1.8419,1.8419,1.8535,1.8765,1.908,1.8968,1.8458,1.8727,1.8779,1.8574,1.8574,1.8855,1.9369,1.9369,1.9332,1.9273,1.9564,1.9783,2.0027,2.1245,2.2123,2.2783,2.337,2.2786,2.1805,0.0,0.0,0.0,0.0,0.0,0.0,0.0,0.0,0.0,0.0,0.0,0.0,0.0,0.0,0.0,0.0,0.2679,0.2663,0.256,0.2079,0.1571,0.1076,0.1533,0.175,0.1617,0.1706,0.1761,0.1757,0.0,0.0,0.0,0.0,0.0,0.0,0.0,0.0,0.0,0.0,0.0,1.3424,1.4352,1.3925,0.0,0.0,1.1775,1.0147,1.3047,1.2048,0.9808,1.2544,1.1164,0.0,0.0,0.0,0.0,0.0,0.3196,0.0,0.0,0.0,0.0,0.0,0.0,0.0,0.404,0.6592,0.9168,0.0,0.0,0.0,0.0,0.0,0.0,0.0,0.0,1.3839,1.5784,1.6321,1.6421,1.617,1.6371,1.6522,1.6522,1.6522,1.6522,1.6522,1.6552,1.6837,1.7353,1.7907,1.8419,1.8968,1.9006,1.9207,1.969,1.9639,1.9332,1.8817,1.8688,1.8405,1.8027,1.7933,1.8249,1.8817,1.8855,1.9169,1.9603,1.969,1.9804,2.0103,2.1178,2.2039,2.2742,2.3195,2.2684,2.1805,0.4512,0.0,0.0,0.0,0.0,0.0,0.0,0.0,0.0,0.0,0.0,0.0,0.0,0.0,0.0,0.0,0.2644,0.238,0.1609,0.1709,0.1844,0.1941,0.1842,0.1785,0.1765,0.1514,0.1449,0.1548,0.0,0.0,0.0,0.0,0.0,0.0,0.0,0.0,0.0,0.0,0.0,0.7732,1.1869,0.0,1.0152,1.2366,1.09,0.8234,1.2496,1.2223,0.9955,1.0605,0.9998,0.8535,0.0,0.0,0.0,0.2854,0.0,0.0,0.0,0.0,0.0,0.0,0.0,0.0,0.3724,0.51,0.6689,0.0,0.0,0.0,0.0,0.0,0.0,0.0,0.0,1.1637,1.3238,1.522,1.5885,1.429,1.5497,1.6522,1.6522,1.6522,1.6522,1.6522,1.6909,1.7394,1.7907,1.8458,1.9006,1.953,1.953,1.9603,1.969,1.9281,1.8779,1.8263,1.7341,1.7107,1.7422,1.6941,1.73,1.8302,1.8688,1.8968,1.9095,1.953,2.0005,2.057,2.0818,2.1635,2.264,2.2206,2.1906,2.1697,0.49,0.0,0.0,0.0,0.0,0.0,0.0,0.0,0.0,0.0,0.0,0.0,0.0,0.0,0.0,0.0,0.0,0.0,0.0,0.0,0.1787,0.2279,0.2109,0.1946,0.1809,0.1625,0.1586,0.1641,0.0,0.0,0.0,0.0,0.0,0.0,0.0,0.0,0.0,0.0,0.1383,0.4974,0.9181,0.0,1.1294,1.2695,1.1769,1.0159,1.3002,1.3103,1.1655,1.0123,0.9471,0.0,0.0,0.5966,0.4607,0.0,0.2803,0.2406,0.0,0.0,0.0,0.1296,0.0,0.0,0.0,0.5096,0.6737,0.8243,0.946,1.0189,0.9939,0.0,0.0,1.0079,0.9807,0.9564,0.9604,1.2484,1.451,1.423,1.5093,1.5806,1.6082,1.6107,1.6334,1.6854,1.7394,1.7947,1.8458,1.9006,1.9406,1.969,1.969,1.9566,1.9281,1.9043,1.8366,1.7259,1.6676,1.6262,1.6003,1.5696,1.6164,1.7259,1.7531,1.8143,1.893,1.9207,1.9649,2.0228,2.0572,2.1321,2.2133,2.1509,2.1109,2.0854,0.5309,0.0,0.0,0.0,0.0,0.0,0.0,0.0,0.0,0.0,0.0,0.0,0.0,0.0,0.0,0.0,0.0,0.0,0.0,0.0,0.0,0.2358,0.2286,0.216,0.198,0.1851,0.1805,0.1796,0.0,0.0,0.0,0.0,0.0,0.0,0.0,0.0,0.0,0.0,0.0,0.378,0.0,0.9892,1.192,1.268,1.248,1.1978,1.3217,1.3597,1.3062,1.0311,0.9444,0.9342,0.85,0.6884,0.0,0.0,0.0,0.0,0.0,0.0,0.0,0.0,0.0,0.242,0.0,0.0,0.0,0.8067,0.9614,0.0,0.0,0.0,0.0,0.0,0.0,0.0,0.0,0.9373,0.0,1.3454,1.3864,1.4283,1.4765,1.4991,1.5683,1.7034,1.765,1.8215,1.8878,1.9406,1.969,1.969,1.9603,1.9332,1.8893,1.8688,1.7866,1.6378,1.6164,1.5608,1.4698,1.456,1.5174,1.6262,1.6348,1.7246,1.8612,1.8688,1.9006,1.9465,2.0229,2.0917,2.1421,2.0758,2.0246,1.9927,0.5309,0.4575,0.0,0.0,0.0,0.2827,0.3418,0.0,0.0,0.0,0.0,0.0,0.0,0.0,0.0,0.0,0.0,0.0,0.1749,0.0,0.0,0.0,0.2388,0.252,0.2597,0.207,0.1806,0.1797,0.0,0.0,0.0,0.0,0.0,0.0,-0.0659,0.0,0.0,0.0,0.2924,0.0,0.7399,0.8117,0.0,1.0709,1.0878,0.9667,1.1733,1.2433,1.2148,0.0,0.9971,0.9241,0.0,0.6407,0.5164,0.4364,0.0,0.0,0.0,0.0,0.0,0.0,0.2102,0.0,0.0,0.0,0.538,0.558,0.0,0.0,0.0,0.0,0.0,0.0,0.0,0.0,0.6574,0.687,0.7462,0.8887,1.0214,1.1175,1.1644,1.2469,1.3947,1.6427,1.7077,1.7843,1.8864,1.9406,1.969,1.969,1.9244,1.8968,1.8893,1.7947,1.712,1.6391,1.5398,1.4835,1.4698,1.4143,1.4538,1.572,1.6176,1.6815,1.7504,1.7987,1.8224,1.838,1.9406,2.0228,2.0697,1.9526,1.9445,1.9784,0.5309,0.4667,0.0,0.0,0.0,0.3148,0.346,0.0,0.0,0.0,0.0,0.0,0.0,0.0,0.0,0.0,0.0,0.4704,0.0,0.0,0.0,0.0,0.0,0.0,0.2704,0.2441,0.216,0.1804,0.0851,0.0,0.0,0.0,0.0,0.0,-0.0626,0.0,0.4736,0.0,0.3476,0.0,0.0,0.0,0.0,1.058,1.1817,1.1222,1.0528,1.1018,1.1555,0.0,0.8781,0.0,0.0,0.0,0.0,0.0,0.0,0.0,0.0,0.0,0.0,0.0,0.0,0.0,0.4813,0.0,0.481,0.0,0.0,0.0,0.0,0.0,0.0,0.0,0.5258,0.0,0.0,0.0,0.6024,0.0,0.0,0.0,1.1823,1.1432,1.2224,1.5118,1.5591,1.6177,1.7228,1.8821,1.969,1.969,1.9169,1.8727,1.8458,1.7666,1.6659,1.5398,1.4915,1.434,1.3658,1.3382,1.392,1.5107,1.5309,1.6133,1.7312,1.7544,1.7827,1.8145,1.8612,1.8936,1.9141,1.8599,1.844,1.8334,0.4959,0.0,0.0,0.0,0.0,0.0,0.0,0.0,0.0,0.0,0.0,0.0,0.6,0.5303,0.0,0.0,0.6096,0.5875,0.0,0.0,0.563,0.0,0.0,0.0,0.0,0.0,0.2231,0.1319,0.0,0.0,0.0,0.0,0.0,0.0,0.0,0.0493,0.2531,0.0,0.6206,0.7712,0.7241,0.732,0.7965,1.0464,1.1839,1.2172,1.0381,1.0652,1.1411,0.8229,0.8293,0.0,0.7233,0.0,0.6513,0.0,0.0,0.0,0.393,0.0,0.0,0.0,0.0,0.0,0.0,0.0,0.0,0.0,0.0,0.0,0.0,0.0,0.0,0.0,0.0,0.5022,0.0,0.386,0.0,0.0,0.0,0.0,0.0,0.9768,1.0286,1.3064,1.3938,1.4842,1.6048,1.8411,1.9639,1.9479,1.8968,1.8419,1.7907,1.7162,1.6145,1.4698,1.4514,1.3931,1.2881,1.2881,1.3478,1.4468,1.4468,1.5264,1.6574,1.6574,1.6899,1.7423,1.7599,1.7653,1.7666,1.7827,1.7626,1.7295,0.4152,0.4245,0.0,0.0,0.0,0.0,0.0,0.0,0.0,0.0,0.0,0.0,0.0,0.0,0.0,0.0,0.0,0.683,0.7272,0.0,0.6579,0.0,0.0,0.1884,0.0,0.0,0.0,0.0,0.0,0.0,0.0,0.0,0.0,0.0,0.0,-0.0624,-0.1002,0.8549,1.2586,1.2626,1.2173,1.1979,1.1804,0.0,0.9751,1.1055,1.1811,0.0,0.0,1.003,0.9453,0.0,0.0,0.0,0.0,0.0,0.0,0.0,0.0,0.0,0.0,0.4233,0.0,0.0,0.0,0.0,0.4452,0.0,0.0,0.0,0.0,0.0,0.0,0.0,0.0,0.0,0.0,0.0,0.0,0.0,0.0,0.0,0.0,0.6753,0.8093,1.0007,1.2319,1.4333,1.6019,1.8411,1.9442,1.893,1.8419,1.7867,1.7353,1.6232,1.532,1.4698,1.4097,1.3505,1.2881,1.2881,1.3238,1.3815,1.3815,1.419,1.4789,1.4789,1.5141,1.5708,1.6262,1.6502,1.6595,1.7105,1.7312,1.7229,0.0,0.0,0.0,0.0,0.0,0.0,0.0,0.4606,0.0,0.0,0.0,0.0,0.0,0.9119,0.868,0.0,0.0,0.9981,0.9195,0.8841,0.0,0.0,0.0,0.4818,0.0,0.0,0.0,0.0,0.0,0.0,0.0,0.0,0.0,0.0,0.0,0.0114,0.0,0.0,0.0,0.0,0.0,1.1506,0.9855,0.0,1.1306,1.2217,1.2227,1.1817,0.0,0.9686,0.9128,0.8826,0.7564,0.7131,0.7244,0.809,0.7076,0.5813,0.0,0.0,0.6571,0.7197,0.0,0.0,0.0,0.0,0.0,0.0,0.0,0.0,0.0,0.0,0.0,0.0,0.0,0.0,0.0,0.0,0.0,0.0,0.0,0.0,0.0,0.0,0.5242,0.7505,0.7536,0.8483,1.0873,1.4679,1.6718,1.653,1.6845,1.7116,1.7299,1.5812,1.4961,1.4698,1.4097,1.3457,1.2881,1.2881,1.3238,1.3815,1.3815,1.4143,1.4698,1.4698,1.4835,1.5017,1.5174,1.5543,1.6039,1.6967,1.7076,1.671,0.4459,0.0,0.0,0.0,0.0,0.0,0.0,0.0,0.0,0.0,0.825,0.0,1.1322,0.0,1.041,0.0,1.0548,1.0628,1.106,0.9062,0.0,1.0614,0.9823,0.0,0.0,0.0,0.0,0.0,0.0,0.0,0.0,0.0,0.0,0.0,0.0,0.0578,0.5514,0.4906,0.7842,0.0,0.0,1.1784,0.0,0.0,1.2293,1.2627,0.0,1.1877,1.1005,1.0043,0.9471,0.8951,0.7977,0.7806,0.8056,0.8637,0.7846,0.6905,0.7508,0.7656,0.0,0.8364,0.7599,0.0,0.7679,0.0,0.5006,0.0,0.0,0.0,0.0,0.0,0.0,0.0,0.0,0.0,0.0,0.2493,0.0,0.0,0.0,0.0,0.0,0.3746,0.3505,0.4536,0.4989,0.6102,0.8119,1.2667,1.5091,1.4728,1.5847,1.6348,1.6143,1.5055,1.4346,1.4124,1.3705,1.3286,1.2881,1.2881,1.3104,1.3457,1.3457,1.3695,1.4071,1.4071,1.4201,1.4376,1.4376,1.4732,1.5365,1.6089,1.6157,1.5788,0.0,0.0,0.0,0.0,0.3922,0.0,0.0,0.0,0.7436,0.0,1.0362,1.0472,1.2094,1.0348,0.9733,1.1306,0.9001,0.8928,1.2425,0.7984,0.0,0.0,1.0815,1.0671,1.2849,0.0,0.0,0.0,0.0,0.0,0.0,0.0,0.0,0.0,-0.2621,0.0,0.5978,0.6276,0.8881,1.2782,1.2803,1.2796,1.2791,1.2826,1.2575,1.2221,1.2676,1.2344,1.1665,1.0965,1.032,0.9666,0.9008,0.8804,0.8804,0.8804,0.8804,0.8804,0.8804,0.8804,0.8649,0.7835,0.8076,0.0,0.0,0.0,0.8235,0.0,0.0,0.0,0.0,0.0,0.0,0.0,0.0,0.0,0.0,0.0,0.0,0.0,0.0,0.0,0.0,0.3072,0.2848,0.1342,0.4624,0.7031,0.0,1.221,1.4362,1.3644,1.514,1.5362,1.4098,1.3845,1.3543,1.312,1.2979,1.2881,1.2881,1.2881,1.2881,1.2881,1.2881,1.2881,1.2881,1.2881,1.3238,1.3779,1.3779,1.4097,1.4617,1.4663,1.472,1.4731,0.5183,0.4855,0.4675,0.0,0.5346,0.6063,0.0,0.0,0.0,0.0,1.1053,1.1981,1.1805,1.2665,1.2097,0.9159,0.9497,0.0,0.0,0.0,0.0,1.2803,1.2358,1.2313,1.2908,1.0893,0.0,0.7066,0.0,0.0,-0.0,0.0,0.0,0.0,0.0,0.0,-0.0075,0.4469,0.8119,1.0885,1.1576,1.1448,1.0901,0.0,1.1872,1.1932,1.2043,1.1625,1.0965,1.0261,0.9614,0.9008,0.8857,0.8804,0.8804,0.8804,0.8804,0.8804,0.8804,0.9159,0.9504,0.9249,0.9059,0.8899,0.0,0.0,0.0,0.0,0.0,0.0,0.0,0.0,0.0,0.0,0.0,0.0,0.0,0.0,0.0,0.2606,0.0,0.0,0.1829,0.1792,0.1767,0.1657,0.306,0.4663,0.6318,0.0,1.0153,1.2381,1.1707,1.2213,1.4074,1.2355,1.2006,1.312,1.2979,1.2881,1.2881,1.2881,1.2881,1.2881,1.2881,1.2881,1.2881,1.2881,1.2968,1.3152,1.3152,1.3248,1.3478,1.4387,1.4887,1.5037,0.5733,0.0,0.0,0.4641,0.0,0.0,0.7986,0.0,0.0,1.1107,1.2089,0.0,1.2982,1.3882,1.3441,1.0895,0.9774,0.0,0.9712,0.0,0.0,1.2735,1.2149,1.2102,1.289,1.2086,0.0,0.9747,0.0,0.0,0.2735,0.0,0.0,0.0,0.0,-0.0804,-0.0538,0.5672,0.887,0.9753,0.984,1.0107,0.0,1.0809,1.1288,1.1765,1.1466,1.0914,1.0364,1.0269,0.9614,0.8804,0.8804,0.8804,0.8804,0.8804,0.8804,0.8804,0.8804,0.9316,0.9814,0.9814,1.0059,1.0303,1.0303,1.0,0.9783,0.0,1.0532,1.1096,0.0,0.0,0.0,0.0,0.0,0.0,0.0,0.0,0.0,0.0,0.3004,0.0,0.1817,0.1506,0.1428,0.1532,0.2246,0.3232,0.448,0.0,0.8246,0.9672,0.9892,1.0463,1.1411,1.0125,1.0066,1.1276,1.1384,1.1592,1.1999,1.2295,1.2403,1.2452,1.2774,1.2881,1.2881,1.2881,1.2715,1.2403,1.2403,1.2723,1.3224,1.373,1.4042,1.4184,0.0,0.0,0.0,0.0,0.0,0.0,0.0,0.9598,0.0,1.3361,0.0,1.3067,1.425,1.4233,1.399,1.3704,0.0,0.9121,1.2319,0.8103,0.7704,1.2686,1.1445,1.1369,1.2861,1.1285,1.1276,0.0,0.0,0.0,0.0,0.0,0.0,0.0,0.0,0.0,0.0,0.7729,0.973,0.9065,0.8098,0.8812,1.0434,1.0317,1.0839,1.1616,1.1225,1.0568,1.002,1.0517,0.9814,0.8804,0.8804,0.8804,0.8804,0.8804,0.8804,0.8804,0.8804,0.9316,0.9814,0.9814,1.0813,1.1814,1.1814,1.2344,1.2881,1.2881,1.38,1.4192,1.2979,0.0,0.0,0.0,0.0,0.0,0.0,0.0,0.0,0.0,0.0,0.0,0.2108,0.1695,0.1456,0.1264,0.1896,0.2537,0.3071,0.0,0.7327,0.7031,0.8873,0.9384,0.8275,0.8123,0.8413,0.9221,0.9402,0.9947,1.0813,1.1516,1.1814,1.1823,1.2559,1.2881,1.2881,1.2881,1.251,1.1922,1.1922,1.256,1.3379,1.3018,1.2881,1.2881,0.0,0.0,0.0,0.0,0.0,0.7388,1.1231,1.2893,1.327,1.2168,1.3365,1.3781,1.2337,1.3294,1.3349,1.1454,1.0587,0.0,0.0,0.0,0.0,1.2803,1.2628,1.2589,1.2895,1.2568,1.2568,0.0,0.0,0.0,0.0,0.0,0.0,0.0,0.0,0.0,0.3994,0.5826,0.0,0.8231,0.7475,0.7722,0.8746,1.0165,1.0789,1.1116,1.2157,1.1692,1.0568,1.0115,0.9458,0.8804,0.8804,0.8804,0.8804,0.8804,0.8804,0.8804,0.8804,0.9316,0.9814,0.9814,1.0813,1.1814,1.1814,1.2344,1.2881,1.2881,1.3467,1.4006,1.415,0.0,0.0,0.0,0.0,0.0,0.0,0.0,0.0,0.0,0.0,0.4564,0.0,0.1342,0.1279,0.151,0.1651,0.2606,0.4579,0.0,0.4972,0.0,0.7195,0.7657,0.0,0.0,0.91,1.0784,0.99,0.9947,1.0813,1.1516,1.1774,1.185,1.2569,1.2881,1.2881,1.2881,1.2822,1.2715,1.2715,1.2822,1.2988,1.291,1.2881,1.2881,0.0,0.0,0.0,0.0,0.0,0.0,0.0,1.3455,1.4935,1.3468,1.4157,1.4334,1.3049,1.3604,1.3546,1.2253,1.0759,1.0188,1.0921,0.9794,0.9891,1.1738,1.1792,1.2127,1.2889,1.2166,1.1925,1.2184,0.0,0.0,0.0,0.0,0.0,0.0,0.0,0.1562,0.0,0.0,0.0,0.7702,0.7891,0.8156,0.8588,0.9829,1.0517,1.0914,1.1981,1.1882,1.1216,1.0517,0.9865,0.9263,0.891,0.8804,0.8804,0.8804,0.8804,0.8804,0.8804,0.9316,0.9865,1.021,1.0813,1.1466,1.2187,1.2344,1.2452,1.2822,1.3372,1.3584,1.2896,1.1645,0.0,0.0,0.0,0.0,0.0,0.0,0.4507,0.0,0.0,0.0,0.0,0.0,0.0,0.0,0.0,0.2231,0.0,0.0,0.3891,0.0,0.0,0.0,0.8728,0.0,0.8166,0.9251,0.8706,0.8904,0.9814,1.0813,1.1275,1.1334,1.2421,1.2881,1.2881,1.2501,1.2559,1.2871,1.2501,1.2559,1.2881,1.2881,1.2881,1.2881,0.0,0.6048,0.0,0.0,0.7849,0.0,1.0512,1.3324,1.5245,1.4971,1.4756,1.4551,1.4297,1.4058,1.3685,1.3001,1.1033,1.016,1.0915,0.95,0.9198,1.045,1.068,1.1328,1.2418,1.1359,1.1005,0.0,0.0,0.0,0.0,0.0,0.0,0.0,0.0,0.0,0.0,0.0,0.8338,0.769,0.8456,0.891,0.9113,0.9762,1.0415,1.1116,1.1774,1.2021,1.1922,1.1065,1.0364,0.9666,0.9008,0.8804,0.8804,0.8804,0.8804,0.8752,0.8593,0.9047,0.971,1.0246,1.0458,1.0922,1.2157,1.1981,1.1774,1.251,1.3266,1.3352,1.1874,1.1604,0.0,0.0,0.0,0.0,0.0,0.0,0.0,0.0,0.0,0.0,0.3313,0.0,0.0,0.0,0.0,0.0,0.2578,0.0,0.0,0.0,0.0,0.6616,0.7198,0.0,0.713,0.7967,0.7781,0.8173,0.9061,1.0415,1.1015,1.1065,1.2353,1.2881,1.2832,1.2295,1.2393,1.2822,1.2236,1.2403,1.2881,1.2881,1.2881,1.2881,0.0,0.0,0.0,0.0,0.0,0.0,1.4332,1.3806,1.3556,1.5148,1.4678,1.4326,1.4687,1.4033,1.2903,1.1381,1.1819,1.1037,0.833,0.9674,1.0213,0.9469,1.0311,1.0839,1.0981,1.0889,1.083,0.0,0.0,0.802,0.0,0.0,0.0,0.0,0.0,0.0,0.0,0.8659,0.8742,0.8672,0.8784,0.9159,0.9762,1.0466,1.1116,1.1814,1.251,1.2774,1.2569,1.1225,1.0364,0.9666,0.9008,0.8804,0.8804,0.8804,0.8804,0.8646,0.799,0.8315,0.8896,0.8901,0.9377,1.0064,1.0821,1.0922,1.1065,1.1765,1.289,1.359,1.2958,1.1961,1.0277,0.0,0.0,0.0,0.0,0.0,0.304,0.2117,0.0,0.0,0.1725,0.1715,0.1427,0.0455,0.1276,0.0,0.0,0.0,0.0,0.4551,0.4583,0.5001,0.5947,0.5976,0.7185,0.9562,0.8775,0.8864,0.9762,1.1116,1.1715,1.1765,1.2559,1.2881,1.2881,1.2832,1.2822,1.2881,1.2822,1.2822,1.2881,1.2881,1.2881,1.2881,0.0,0.0,0.0,0.0,0.0,0.0,0.0,1.366,1.372,1.4935,1.4974,1.4873,1.4795,1.4088,1.3364,1.2921,1.1852,1.0853,1.0052,0.9764,0.9394,0.9034,0.9372,0.9762,1.021,0.9814,0.9814,0.0,0.0,0.0,0.0,0.0,0.0,0.0,0.0,0.5641,0.7146,0.8293,0.8786,0.8804,0.8804,0.9211,0.9865,1.0517,1.1216,1.1913,1.2618,1.2881,1.2666,1.1275,1.0618,1.021,0.9159,0.8804,0.8804,0.8804,0.848,0.8049,0.7777,0.7616,0.7551,0.7935,0.7947,0.8165,0.9268,0.9224,0.9068,0.9768,1.1014,1.1883,1.1734,1.1397,1.0472,0.8357,0.0,0.0,0.0,0.0,0.0,0.5072,0.0,0.4314,0.3444,0.2487,0.1325,-0.0142,0.0,0.0,0.0,0.0,0.0,0.3851,0.0,0.6024,0.8196,0.7602,0.8134,0.9814,0.9854,1.0067,1.0415,1.1366,1.203,1.2501,1.2774,1.2881,1.2881,1.2403,1.2236,1.2187,1.1792,1.1642,1.1642,1.1642,1.1642,1.1692,1.0618,0.0,1.0825,0.0,1.1956,1.2924,1.3067,1.3354,1.3672,1.3882,1.435,1.4585,1.4296,1.374,1.3195,1.2887,1.1551,1.0555,0.9987,0.9422,0.8874,0.839,0.8659,0.0,0.951,0.9061,0.9008,0.9517,0.7236,0.0,0.0,0.0,0.0,0.0,0.5922,0.6745,0.6817,0.8229,0.8804,0.8804,0.8804,0.9211,0.9865,1.0517,1.1216,1.1913,1.2618,1.2881,1.2725,1.1475,1.1116,1.0813,0.9263,0.8804,0.8752,0.8533,0.8103,0.761,0.7176,0.7015,0.6961,0.6977,0.694,0.6999,0.7342,0.7482,0.7623,0.781,0.9321,1.0545,1.0485,1.0771,1.0428,0.8685,0.0,0.0,0.0,0.6533,0.0,0.6294,0.5014,0.4346,0.4817,0.3706,0.1761,-0.115,0.0,0.0,0.0,0.0,0.0,0.0,0.0,0.0,0.7916,0.7802,0.8424,0.9814,1.0563,1.0905,1.0954,1.1477,1.2091,1.2686,1.2686,1.2764,1.2813,1.1999,1.1715,1.1756,1.0997,1.0722,1.0813,1.0813,1.0813,1.0864,1.1737,1.2419,1.3006,1.3588,1.419,1.4082,1.2376,1.2981,1.3079,1.1744,1.2421,1.3009,1.3,1.2879,1.2024,1.0038,1.1131,1.0272,0.6516,0.8482,0.9069,0.0,0.0,0.8804,0.8804,0.8804,0.8804,0.8804,0.0,0.0,0.5859,0.0,0.5859,0.5932,0.7909,0.8738,0.8738,0.8804,0.8804,0.8804,0.8804,0.9211,0.9865,1.0517,1.1216,1.1913,1.2618,1.2881,1.2774,1.203,1.1765,1.1466,0.9413,0.8804,0.8646,0.7943,0.7723,0.7396,0.5919,0.6573,0.7337,0.5869,0.6632,0.7101,0.4923,0.6009,0.7144,0.6153,0.8195,1.0123,0.9798,1.0316,1.0025,0.7623,0.0,0.0,0.0,0.337,0.0,0.3554,0.3175,0.3559,0.5157,0.5271,0.0,0.0,0.0,0.0,0.0,0.0,0.0,0.6411,0.1186,0.0,0.3546,0.5621,0.7704,0.9806,1.0751,1.1199,1.1181,1.149,1.1816,1.219,1.219,1.248,1.2842,1.1808,1.1568,1.172,1.0765,1.0557,1.0813,1.0813,1.0813,1.0813,0.9919,1.1488,1.2832,1.2568,1.2891,1.3304,1.3778,1.2733,1.1904,1.2081,1.1983,1.1768,1.1401,1.1841,1.2073,0.0,1.0258,0.9218,0.0,0.8475,0.8028,0.8293,0.7828,0.7589,0.7589,0.7589,0.7589,0.7589,0.0,0.0,0.0,0.5917,0.6602,0.7916,0.8547,0.8804,0.8804,0.8804,0.8804,0.8804,0.8804,0.9458,1.0517,1.0712,1.1534,1.2559,1.2822,1.2881,1.2774,1.203,1.1814,1.1516,0.9961,0.9465,0.9249,0.8037,0.7343,0.6745,0.576,0.5869,0.6086,0.5592,0.5869,0.5738,0.4059,0.2964,0.2468,0.2819,0.4284,0.6056,0.7812,0.8455,0.7986,0.5901,0.7431,0.0,0.5428,0.0,0.5415,0.4505,0.3687,0.3472,0.4221,0.4161,0.0,0.0,0.0,0.0,0.0,0.0,0.0,0.0,0.4031,0.0,0.6353,0.7241,0.8509,1.0065,1.1309,1.1731,1.1481,1.1577,1.1685,1.1768,1.1768,1.1666,1.1426,1.0854,1.0298,0.9787,0.9429,0.9242,0.917,0.9386,0.9465,0.951,0.9932,1.1087,1.2101,1.1804,1.1927,1.2167,1.252,1.1652,1.0999,1.1087,1.1101,1.1002,1.0755,1.1115,0.0,1.2208,1.0261,0.9449,1.0576,0.9033,0.8259,0.8784,0.809,0.7695,0.7695,0.7695,0.0,0.7695,0.7224,0.7011,0.7011,0.7011,0.7619,0.8804,0.8804,0.8804,0.8804,0.8804,0.8804,0.8804,0.9061,0.9666,1.0466,1.0965,1.1733,1.251,1.2774,1.2881,1.2832,1.2344,1.203,1.1616,1.0517,0.9799,0.9124,0.7711,0.6966,0.6372,0.5382,0.5328,0.5433,0.5164,0.5386,0.4867,0.1918,-0.0823,-0.2258,-0.049,0.1034,0.2841,0.5404,0.6789,0.7225,0.6061,0.7871,0.8779,0.6856,0.0,0.5949,0.0,0.0,0.3674,0.0,0.4468,0.3889,0.0,0.0,0.0,0.0,0.0,0.1517,0.4378,0.4414,0.5037,0.6428,0.8077,0.928,1.0031,1.1158,1.1504,1.1126,1.1273,1.1446,1.1649,1.1649,1.1516,1.1315,1.0479,0.9777,0.9183,0.8776,0.8529,0.8397,0.8577,0.8482,0.8365,1.1142,1.1062,1.1035,0.0,1.1336,0.0,0.9396,1.0216,1.0566,0.9248,0.9988,1.0695,1.0935,1.0722,1.0739,1.107,0.0,0.0,1.0258,0.9843,0.9341,0.8804,0.8724,0.8684,0.8684,0.8684,0.8724,0.8804,0.8804,0.8804,0.8804,0.8804,0.8804,0.8804,0.8804,0.8804,0.8804,0.8804,0.8804,0.8857,0.951,0.9814,0.9969,1.1266,1.1715,1.1823,1.2559,1.2822,1.2822,1.2881,1.2403,1.1665,1.1015,0.9828,0.8423,0.7009,0.6588,0.6209,0.4846,0.5003,0.5382,0.4736,0.5069,0.4204,-0.1043,-0.4827,-0.6489,-0.375,-0.1583,0.049,0.2684,0.5333,0.7289,0.7509,0.8156,0.8355,0.7553,0.6473,0.5145,0.3544,0.0,0.0,0.5624,0.5831,0.5121,0.0,0.0,0.0,0.0,0.0,0.0574,0.2193,0.3011,0.3746,0.45,0.8213,0.999,0.9789,1.055,1.0695,1.0361,1.0871,1.1341,1.1752,1.1752,1.1953,1.2088,1.0709,0.9952,0.9551,0.8685,0.8364,0.8416,0.8407,0.7992,0.7458,0.0,0.0,1.0541,1.016,1.0468,1.0768,1.0588,1.0896,1.0856,1.0289,1.0664,1.0909,1.0752,1.0665,1.0739,1.107,0.9535,0.8918,0.9761,0.8494,0.7986,0.8778,0.7936,0.7442,0.7442,0.7442,0.7889,0.8804,0.8804,0.8804,0.8804,0.8804,0.8804,0.8804,0.8804,0.8804,0.8804,0.8804,0.8804,0.8857,0.951,0.9814,0.9917,1.0712,1.1065,1.1116,1.1823,1.208,1.2129,1.2715,1.2403,1.1665,1.1015,0.9828,0.8423,0.7009,0.6199,0.5597,0.4736,0.5003,0.5492,0.5567,0.3978,0.1533,-0.1961,-0.4402,-0.6,-0.6263,-0.4123,-0.1592,0.0387,0.3202,0.5425,0.6223,0.6761,0.6644,0.5209,0.462,0.3665,0.0,0.247,0.324,0.4217,0.5101,0.5077,0.0,0.0,0.3507,0.2604,0.2268,0.2602,0.3673,0.4847,0.5552,0.5634,0.8394,1.0056,1.0625,1.0845,1.0933,1.0878,1.1812,1.2274,1.2385,1.2385,1.1994,1.1286,1.0784,0.992,0.8921,0.8974,0.8707,0.8342,0.8399,0.7871,0.7188,0.928,0.99,1.0524,1.014,1.0454,1.0782,1.0862,1.0982,1.0949,1.0665,1.0742,1.0722,1.0403,1.0517,1.0567,1.0467,0.9375,0.9105,0.9897,0.8649,0.8097,0.8784,0.8183,0.7836,0.7836,0.7836,0.8156,0.8804,0.8804,0.8804,0.8804,0.8804,0.8804,0.8804,0.8804,0.8804,0.8804,0.8804,0.8804,0.8857,0.951,0.9814,0.9865,1.0517,1.1015,1.1316,1.1665,1.203,1.2344,1.2774,1.2197,1.1266,1.0914,0.9408,0.7581,0.6853,0.6091,0.5378,0.468,0.4791,0.5073,0.5207,0.2991,-0.0,-0.2961,-0.4848,-0.6095,-0.644,-0.5475,-0.3808,-0.1165,0.105,0.3037,0.4944,0.499,0.4517,0.3632,0.3042,0.2417,0.1706,0.2273,0.3087,0.4023,0.4678,0.4839,0.4253,0.4241,0.0,0.3529,0.3573,0.3726,0.4033,0.5299,0.5893,0.5672,0.8047,0.9825,1.0964,1.0981,1.1132,1.1404,1.2431,1.2811,1.2565,1.2796,1.2433,1.1625,1.1081,1.0281,0.9395,0.9363,0.9064,0.8658,0.8443,0.7889,0.7173,1.0624,1.0624,1.0624,1.0624,1.0762,1.0842,1.0658,1.0768,1.0835,1.0658,1.0624,1.0497,1.01,1.0322,1.0268,0.9766,0.9659,0.979,1.0119,0.9279,0.8804,0.8804,0.8804,0.8804,0.8804,0.8804,0.8804,0.8804,0.8699,0.8699,0.8804,0.8699,0.8699,0.8804,0.8804,0.8804,0.8804,0.8804,0.8804,0.8857,0.951,0.9762,0.971,1.0517,1.1116,1.1516,1.1715,1.2187,1.2764,1.2871,1.2049,1.0914,1.0813,0.8933,0.674,0.6642,0.5982,0.5218,0.4629,0.4473,0.4376,0.3934,0.1728,-0.1108,-0.4051,-0.571,-0.6367,-0.5651,-0.6105,-0.5601,-0.2218,-0.072,0.066,0.2715,0.2549,0.203,0.1776,0.0,0.1363,0.1814,0.2515,0.339,0.4381,0.4473,0.448,0.448,0.4295,0.4238,0.4484,0.4626,0.4474,0.4015,0.5149,0.5794,0.5819,0.7743,0.9421,1.0905,1.1057,1.14,1.1934,1.2967,1.3239,1.2866,1.3275,1.3105,1.2543,1.1527,1.0847,1.0379,0.9881,0.9559,0.9283,0.8755,0.807,0.7304,1.0624,1.0624,1.0624,1.0624,1.0658,1.0672,1.0631,1.0665,1.0672,1.0631,1.0624,1.0604,1.0537,0.9933,0.9666,0.9913,0.9552,0.9285,0.9349,0.9018,0.8804,0.8804,0.8804,0.8804,0.8804,0.8804,0.8804,0.8804,0.8156,0.8209,0.8804,0.8156,0.8209,0.8804,0.8804,0.8804,0.8804,0.8804,0.8804,0.8857,0.951,0.9465,0.9106,1.032,1.0517,1.0261,1.1416,1.1864,1.208,1.2666,1.2344,1.1566,1.0965,0.9238,0.7351,0.674,0.5664,0.4625,0.4529,0.449,0.3878,0.1337,-0.0612,-0.2504,-0.512,-0.6164,-0.6367,-0.5651,-0.6105,-0.5664,-0.267,-0.0947,-0.076,-0.3118,-0.1816,-0.0997,-0.2415,0.0,0.0726,0.1284,0.3059,0.431,0.446,0.4473,0.448,0.448,0.3304,0.315,0.4414,0.5259,0.5457,0.4914,0.5464,0.6574,0.8177,0.8504,0.927,1.0428,1.1255,1.1961,1.2517,1.3507,1.4175,1.4512,1.4138,1.3656,1.3089,1.209,1.1616,1.1463,1.0785,1.0566,1.0555,0.9834,0.8764,0.7702,1.0624,1.0624,1.0624,1.0624,1.0624,1.0624,1.0624,1.0624,1.0624,1.0624,1.0624,1.0544,1.0329,0.992,0.9733,0.9813,0.9606,0.9479,0.9479,0.9058,0.8804,0.8804,0.8804,0.8804,0.8804,0.8804,0.8586,0.8209,0.7883,0.767,0.7616,0.767,0.7883,0.8209,0.8646,0.8804,0.8804,0.8804,0.8804,0.8804,0.9159,0.9309,0.9413,1.0012,1.0517,1.0965,1.1566,1.208,1.2393,1.2344,1.1832,1.1166,1.0466,0.9058,0.7534,0.6799,0.5609,0.4294,0.3461,0.3244,0.2348,-0.1451,-0.291,-0.3749,-0.486,-0.5618,-0.5819,-0.5113,-0.5854,-0.569,-0.2732,-0.1005,-0.0497,-0.2066,-0.4314,-0.5829,-0.5826,-0.3144,-0.1137,-0.0893,0.2342,0.4477,0.4473,0.448,0.4144,0.335,0.2625,0.2498,0.3227,0.4922,0.5923,0.5925,0.6126,0.6904,0.8242,0.8561,0.9231,1.0244,1.1008,1.1663,1.2197,1.3188,1.3643,1.3643,1.395,1.3764,1.3179,1.2459,1.2174,1.2161,1.1766,1.1652,1.1586,1.0673,0.9922,0.9307,1.0624,1.0624,1.0624,1.0624,1.0624,1.0624,1.0624,1.0624,1.0624,1.0624,1.0624,1.051,1.014,1.0033,0.9913,0.9766,0.9706,0.9653,0.9586,0.9158,0.8911,0.8911,0.8844,0.8804,0.8804,0.8646,0.8268,0.7723,0.7343,0.6961,0.6588,0.7182,0.7557,0.7723,0.848,0.8804,0.8804,0.8804,0.8804,0.8804,0.8804,0.9211,0.9814,0.9961,1.0771,1.1814,1.1972,1.2295,1.2559,1.1972,1.1366,1.0661,1.0012,0.8817,0.7545,0.6799,0.5609,0.4242,0.307,0.2232,0.078,-0.3026,-0.4219,-0.4494,-0.448,-0.5011,-0.5328,-0.4625,-0.5597,-0.5716,-0.2732,-0.1006,0.0,0.0,0.0,-0.7741,-0.8164,-0.567,-0.3324,-0.215,0.1237,0.3744,0.4425,0.4494,0.3987,0.2852,0.2071,0.2014,0.2683,0.4515,0.5928,0.6727,0.6907,0.7315,0.799,0.8393,0.9108,1.0031,1.058,1.1185,1.1841,1.26,1.28,1.2553,1.3386,1.3396,1.2873,1.2615,1.2508,1.2496,1.2543,1.2566,1.246,1.1628,1.1131,1.0685,1.0624,1.0624,1.0624,1.0624,1.0624,1.0624,1.0624,1.0624,1.0624,1.0624,1.0624,1.0611,1.0584,1.0194,0.9967,0.9953,0.9786,0.9566,0.9236,0.9176,0.915,0.915,0.8951,0.8804,0.8804,0.8156,0.7777,0.7723,0.6357,0.5982,0.6588,0.6642,0.702,0.7723,0.848,0.8804,0.8804,0.8804,0.8804,0.8804,0.8804,0.9211,0.9865,1.0466,1.1166,1.1873,1.2559,1.2403,1.1864,1.1814,1.1366,1.0661,1.0012,0.879,0.7458,0.6794,0.5618,0.448,0.4379,0.2291,-0.0223,-0.1952,-0.3469,-0.449,-0.4525,-0.5003,-0.5328,-0.4625,-0.5597,-0.5716,-0.2732,-0.1006,0.0,0.0,0.0,0.0,-0.8895,-0.8344,-0.5544,-0.0769,0.0111,0.1452,0.4209,0.4504,0.4455,0.434,0.1737,0.1401,0.4169,0.4525,0.5408,0.7172,0.7929,0.8263,0.8282,0.8319,0.8752,0.9558,1.0031,1.0831,1.1898,1.1908,1.2166,1.2589,1.2612,1.2353,1.192,1.2318,1.2508,1.2532,1.2914,1.3076,1.3104,1.2982,1.2082,1.101,0.9192,0.9843,1.0624,1.0624,1.0624,1.0624,1.0624,1.0624,1.0624,1.0624,1.0624,1.0624,1.0624,1.049,1.0403,1.0403,1.01,0.99,0.9793,0.9382,0.9103,0.8978,0.8864,0.8593,0.8156,0.783,0.723,0.6357,0.576,0.5651,0.5928,0.6367,0.702,0.7723,0.848,0.8804,0.8804,0.8804,0.8804,0.8804,0.8804,0.9211,0.9865,1.0517,1.1216,1.1814,1.2129,1.203,1.1665,1.0864,1.0415,1.0064,0.9413,0.8508,0.7427,0.6249,0.523,0.4307,0.3355,0.2912,0.2183,-0.0223,-0.2683,-0.4494,-0.4477,-0.4684,-0.4787,-0.457,-0.4927,-0.4653,-0.2567,0.0558,0.2163,0.0321,0.0,-0.0907,-0.3425,-0.3276,-0.217,-0.0223,0.0,0.0447,0.1619,0.3426,0.4514,0.4514,0.1682,0.0504,0.1621,0.35,0.5396,0.7301,0.7325,0.7448,0.7788,0.7982,0.8307,0.8752,0.9457,1.0071,1.0663,1.1103,1.1416,1.1627,1.2204,1.2204,1.1833,1.2249,1.2452,1.2532,1.2948,1.3302,1.3602,1.3221,1.2738,1.2307,0.7442,0.9,1.0624,1.0624,1.0624,1.0624,1.0624,1.0624,1.0624,1.0624,1.0624,1.0624,1.0624,1.0624,1.0624,1.0624,1.0374,1.0214,1.0127,0.9508,0.9057,0.8824,0.8804,0.8586,0.8049,0.783,0.7069,0.5873,0.5873,0.5706,0.5542,0.6475,0.7235,0.7723,0.848,0.8804,0.8804,0.8804,0.8804,0.8804,0.8804,0.9211,0.9865,1.0312,1.0914,1.1466,1.1466,1.1366,1.1015,1.0115,0.9666,0.9361,0.8685,0.7771,0.6756,0.5618,0.489,0.4147,0.2601,0.3303,0.3761,0.0728,-0.1971,-0.4032,-0.4435,-0.4507,-0.4577,-0.4529,-0.448,-0.3866,-0.1893,0.1786,0.3828,0.1738,0.0615,-0.0335,-0.1288,-0.1401,-0.1064,-0.0112,0.0,0.0,0.0,0.1849,0.2693,0.1736,-0.0224,-0.1119,-0.0502,0.1767,0.3966,0.5919,0.5842,0.6141,0.6914,0.7173,0.752,0.7882,0.8548,0.9097,0.9534,1.0148,1.039,1.0439,1.1141,1.1355,1.1229,1.1735,1.1968,1.209,1.281,1.3234,1.3488,1.3537,1.3344,1.3128,0.5428,0.8221,1.0624,1.0561,1.0561,1.0624,1.0624,1.0624,1.0624,1.0624,1.0624,1.0624,1.0624,1.0624,1.0624,1.0624,1.0624,1.0434,1.0134,0.9508,0.9057,0.8824,0.8804,0.8804,0.8804,0.8049,0.7343,0.6588,0.6588,0.6204,0.5542,0.7015,0.7723,0.7723,0.848,0.8804,0.8804,0.8804,0.8804,0.8804,0.8804,0.9211,0.9814,0.9814,1.0218,1.0813,1.0813,1.0364,0.9814,0.9814,0.9361,0.8646,0.7937,0.6686,0.5415,0.4873,0.4592,0.4172,0.2617,0.3299,0.3751,0.0733,-0.1374,-0.3027,-0.4231,-0.4589,-0.465,-0.4553,-0.448,-0.358,-0.0554,0.2456,0.4514,0.4514,0.1959,-0.1062,-0.4054,-0.4458,-0.337,-0.0391,-0.0,0.0,0.0,0.0,-0.1234,-0.43,-0.4521,-0.3646,-0.161,-0.055,0.0877,0.2804,0.3597,0.4502,0.559,0.5878,0.6348,0.6994,0.7281,0.7838,0.8692,0.8962,0.9082,0.9093,0.9322,0.9578,0.9935,1.0605,1.0939,1.1121,1.2542,1.2857,1.2673,1.4006,1.39,1.323,0.5428,0.8221,1.0364,0.9454,1.004,1.0624,1.0624,1.0624,1.0624,1.0624,1.0624,1.0624,1.0624,1.0624,1.0624,1.0624,1.0624,1.0434,1.0134,0.9379,0.8985,0.905,0.8918,0.8315,0.7289,0.7563,0.7069,0.5814,0.6367,0.675,0.7069,0.7503,0.799,0.848,0.8699,0.8804,0.8804,0.8804,0.8804,0.8804,0.8804,0.9211,0.9865,1.0312,1.0618,1.0813,1.0813,1.0364,0.9718,0.9263,0.8633,0.783,0.6573,0.5967,0.5583,0.4905,0.4803,0.4753,0.4005,0.2613,0.1145,0.0234,-0.0415,-0.1573,-0.4458,-0.4817,-0.4568,-0.4633,-0.4555,-0.3866,-0.1893,0.1786,0.4518,0.4524,0.1958,-0.0335,-0.1232,-0.3147,-0.4172,-0.3263,-0.1289,0.0,0.0,0.0,-0.1234,-0.43,-0.4521,-0.4222,-0.3635,-0.1997,-0.0442,0.0831,0.1749,0.306,0.4828,0.5383,0.5805,0.6108,0.6433,0.6829,0.7231,0.7983,0.8255,0.8211,0.8998,0.9351,0.941,1.0068,1.0512,1.0845,1.1405,1.1995,1.2567,1.3268,1.357,1.3762,0.5428,0.7442,0.9256,0.9454,1.0104,1.0624,1.0624,1.0624,1.0624,1.0624,1.0624,1.0624,1.0624,1.0624,1.0624,1.0624,1.0624,1.0381,0.9973,0.9446,0.9125,0.9072,0.8898,0.8374,0.7509,0.7883,0.7557,0.6357,0.7122,0.7563,0.7723,0.8243,0.8778,0.9211,0.9458,0.9465,0.9211,0.9211,0.9211,0.9211,0.9451,1.0069,1.0931,1.1599,1.1706,1.1487,1.1416,1.0517,0.9228,0.8487,0.7622,0.6681,0.576,0.5405,0.5243,0.4862,0.4869,0.4931,0.4875,0.2882,0.106,0.1903,0.1052,-0.056,-0.2738,-0.4034,-0.4703,-0.4633,-0.4545,-0.3993,-0.2267,0.0625,0.3101,0.4336,0.2943,0.0968,-0.1428,-0.2317,-0.3147,-0.4353,-0.2867,-0.1289,-0.0112,0.0,-0.1009,-0.3429,-0.4166,-0.4608,-0.4864,-0.3506,-0.2388,-0.1775,-0.0443,0.1643,0.446,0.4318,0.4405,0.4862,0.5109,0.5486,0.5981,0.6713,0.708,0.7146,0.7836,0.8298,0.8535,0.9019,0.9482,0.994,1.0488,1.1062,1.1718,1.2716,1.3323,1.3729,0.5432,0.6334,0.7822,0.997,1.0498,1.0624,1.0624,1.0624,1.0611,1.0584,1.0611,1.0611,1.0584,1.0611,1.0624,1.0624,1.0577,1.0335,0.9793,0.9666,0.9392,0.8905,0.8838,0.8804,0.8804,0.8804,0.848,0.7771,0.8527,0.858,0.7978,0.9287,0.9865,0.9917,1.0517,1.0466,0.9865,0.9865,0.9909,1.0005,1.0612,1.1621,1.2822,1.3514,1.3294,1.2616,1.231,1.0572,0.8227,0.723,0.615,0.5261,0.5378,0.5014,0.4541,0.4777,0.4833,0.4862,0.5301,0.3947,0.2972,0.4887,0.2916,0.0382,0.006,-0.2483,-0.4753,-0.4596,-0.4528,-0.3981,-0.2158,-0.0819,0.0828,0.3442,0.3909,0.1992,-0.3538,-0.1942,-0.1174,-0.3769,-0.4113,-0.3147,-0.0617,-0.0168,-0.0671,-0.2287,-0.3697,-0.4812,-0.5487,-0.4842,-0.4512,-0.4498,-0.2607,0.0219,0.388,0.2353,0.2195,0.3462,0.3428,0.3865,0.4747,0.5227,0.5585,0.5833,0.6119,0.6694,0.7455,0.7637,0.8085,0.8667,0.96,1.005,1.0436,1.2224,1.2945,1.3162,0.5376,0.6342,0.7437,0.8415,0.9709,1.0624,1.0624,1.0624,1.0537,1.0241,1.0414,1.0474,1.0241,1.0421,1.0624,1.0624,1.014,1.0013,1.0409,0.9506,0.9145,0.9479,0.9051,0.8804,0.8804,0.8804,0.8679,0.8482,0.9235,0.9762,1.0143,1.0458,1.0568,1.0568,1.0762,1.0712,1.0568,1.0568,1.0847,1.1355,1.1905,1.3083,1.4614,1.5467,1.4946,1.3568,1.1512,0.8772,0.5783,0.3508,0.3061,0.3586,0.4467,0.4622,0.4523,0.4581,0.4875,0.5301,0.5373,0.508,0.4809,0.5296,0.4815,0.3515,0.0652,-0.1153,-0.2776,-0.4572,-0.485,-0.46,-0.4137,-0.1847,-0.0237,-0.1039,-0.0937,-0.1194,-0.2516,-0.2109,-0.1562,-0.1061,-0.0952,-0.1628,-0.3383,-0.1403,-0.1119,-0.3802,-0.432,-0.4812,-0.5487,-0.4842,-0.4508,-0.4488,-0.2888,-0.161,-0.0772,-0.227,-0.1285,0.2211,0.2189,0.2278,0.2526,0.3767,0.4357,0.4385,0.5023,0.5589,0.6138,0.6391,0.6937,0.7737,0.8142,0.9081,1.0282,1.1042,1.182,1.2612,0.5036,0.5881,0.6645,0.7827,0.9069,1.011,1.0561,1.0624,1.0571,1.0347,1.0461,1.0501,1.0347,1.0468,1.0624,1.0624,1.0342,1.0114,1.014,0.9566,0.9239,0.9265,0.8971,0.8804,0.8804,0.8804,0.8949,0.9221,0.9599,1.0167,1.0813,1.1116,1.1266,1.1266,1.1633,1.1633,1.1266,1.1266,1.1639,1.2299,1.3101,1.4541,1.62,1.7208,1.6381,1.426,1.0525,0.5543,0.0689,0.0378,0.0599,0.1209,0.2604,0.3065,0.3137,0.3354,0.3627,0.4086,0.5096,0.5403,0.5396,0.5403,0.5396,0.4894,0.3035,0.0452,-0.2226,-0.4747,-0.5051,-0.4887,-0.4961,-0.3594,-0.2463,-0.2443,-0.3024,-0.3462,-0.329,-0.3318,-0.2462,-0.0279,0.0,-0.1206,-0.4222,-0.3065,-0.2819,-0.4525,-0.4652,-0.4925,-0.5626,-0.496,-0.4759,-0.5167,-0.3956,-0.2959,-0.223,-0.3702,-0.3413,-0.1163,0.0269,0.0854,0.0774,0.1674,0.2405,0.2962,0.4033,0.4608,0.4872,0.5461,0.6004,0.6419,0.6852,0.7691,0.8753,0.9442,1.0494,1.1529,0.4292,0.5213,0.592,0.7497,0.8619,0.953,1.0301,1.0498,1.0604,1.0488,1.0591,1.0604,1.0488,1.0598,1.0624,1.0624,1.0577,1.0301,0.986,0.9693,0.9412,0.8978,0.8864,0.8804,0.8804,0.8804,0.9159,0.9961,0.9961,1.0372,1.1174,1.1724,1.1972,1.2021,1.251,1.2344,1.1814,1.1665,1.2092,1.2908,1.4028,1.5572,1.7302,1.8398,1.725,1.4444,0.9497,0.2419,-0.4474,-0.3028,-0.2156,-0.1454,-0.0058,0.0587,0.0893,0.1643,0.1799,0.22,0.4013,0.4721,0.4986,0.5326,0.5386,0.5418,0.539,0.1937,-0.2045,-0.4797,-0.5202,-0.5033,-0.5159,-0.5165,-0.4629,-0.2953,-0.3944,-0.4807,-0.4562,-0.4542,-0.3596,-0.1062,-0.0288,-0.1121,-0.3929,-0.4487,-0.4694,-0.4797,-0.4783,-0.5107,-0.5772,-0.5063,-0.505,-0.58,-0.4974,-0.3913,-0.2621,-0.3863,-0.4494,-0.449,-0.1953,-0.0605,-0.0321,-0.011,0.0537,0.1572,0.2943,0.3649,0.3908,0.4688,0.5048,0.5173,0.562,0.6253,0.6974,0.7899,0.8971,0.9958,0.2678,0.4337,0.5723,0.6715,0.8221,0.9338,0.9466,1.011,1.053,1.0207,1.0401,1.0461,1.0207,1.0408,1.0624,1.0624,1.0321,1.0254,1.049,0.9726,0.9379,0.9559,0.9078,0.8804,0.8804,0.8804,0.9413,1.0661,1.0661,1.1334,1.2618,1.2725,1.2764,1.2715,1.2187,1.1873,1.1765,1.1166,1.1648,1.2908,1.4028,1.5536,1.7196,1.8073,1.6639,1.3565,0.8839,0.1547,-0.6058,-0.7695,-0.652,-0.4261,-0.4108,-0.3157,-0.1782,-0.0191,0.0322,0.0389,0.0668,0.188,0.342,0.4986,0.5379,0.5432,0.5369,0.2521,-0.1188,-0.4659,-0.5384,-0.5308,-0.5328,-0.5366,-0.5212,-0.4747,-0.4799,-0.4866,-0.4776,-0.4596,-0.434,-0.394,-0.1617,-0.0773,-0.2745,-0.4354,-0.5157,-0.4891,-0.4838,-0.5107,-0.5772,-0.5009,-0.4864,-0.5546,-0.4853,-0.4418,-0.4184,-0.4418,-0.4477,-0.4522,-0.4079,-0.2561,-0.0055,-0.0,0.0106,0.0316,0.1526,0.2668,0.3648,0.3771,0.4096,0.4517,0.46,0.5277,0.6283,0.6879,0.7356,0.7656,0.21,0.3861,0.5557,0.7003,0.7896,0.8771,0.9888,1.0364,1.0577,1.0381,1.0481,1.0571,1.0381,1.0481,1.0624,1.0624,1.0441,1.0281,1.008,0.9853,0.9573,0.9212,0.9098,0.8971,0.8811,0.8804,0.9465,1.0813,1.0813,1.1534,1.2881,1.2881,1.2666,1.2295,1.1972,1.1616,1.1216,1.0914,1.134,1.2299,1.3507,1.4654,1.5727,1.6376,1.4931,1.1668,0.4749,-0.1818,-0.7389,-0.8546,-0.8055,-0.669,-0.5402,-0.4569,-0.3914,-0.3203,-0.1581,0.0462,0.2482,0.3556,0.4478,0.5977,0.623,0.6009,0.5495,0.2594,-0.0997,-0.4645,-0.5386,-0.5372,-0.5372,-0.5394,-0.5322,-0.5155,-0.4979,-0.4515,-0.3472,-0.4017,-0.3883,-0.2183,-0.0839,-0.0734,-0.2516,-0.4309,-0.5269,-0.4921,-0.486,-0.4963,-0.515,-0.4794,-0.4717,-0.4952,-0.5007,-0.4901,-0.4519,-0.4846,-0.4846,-0.4519,-0.4522,-0.3793,-0.2454,-0.0769,0.0,0.0053,0.0565,0.1952,0.3834,0.3678,0.3788,0.4044,0.3998,0.443,0.5221,0.5996,0.6505,0.6725]}]]